[[{"header":{"parameterUnit":"m.s-1","parameterCategory":1,"la1":31.0,"la2":29.5877,"lo1":-88.7671,"lo2":-86.6584,"dy":0.0162,"dx":0.0185,"nx":115,"ny":88,"refTime":"2024-06-11T18:00:00:Z","depth":0,"parameterNumber":2,"parameterNumberName":"U-component_of_WINDS"},"data":[0.0,0.0,0.0,0.0,0.0,0.0,0.0,0.0,0.0,0.0,0.0,0.0,0.0,0.0,0.0,0.0,0.0,0.0,0.0,0.0,0.0,0.0,0.0,0.0,0.0,0.0,0.0,0.0,0.0,0.0,0.0,0.0,0.0,0.0,0.0,0.0,0.0,0.0,0.0,0.0,0.0,0.0,0.0,0.0,0.0,0.0,0.0,0.0,0.0,0.0,0.0,0.0,0.0,0.0,0.0,0.0,0.0,0.0,0.0,0.0,0.0,0.0,0.0,0.0,0.0,0.0,0.0,0.0,0.0,0.0,0.0,0.0,0.0,0.0,0.0,0.0,0.0,0.0,0.0,0.0,0.0,0.0,0.0,0.0,0.0,0.0,0.0,0.0,0.0,0.0,0.0,0.0,0.0,0.0,0.0,0.0,0.0,0.0,0.0,0.0,0.0,0.0,0.0,0.0,0.0,0.0,0.0,0.0,0.0,0.0,0.0,0.0,0.0,0.0,0.0,0.0,0.0,0.0,0.0,0.0,0.0,0.0,0.0,0.0,0.0,0.0,0.0,0.0,0.0,0.0,0.0,0.0,0.0,0.0,0.0,0.0,0.0,0.0,0.0,0.0,0.0,0.0,0.0,0.0,0.0,0.0,0.0,0.0,0.0,0.0,0.0,0.0,0.0,0.0,0.0,0.0,0.0,0.0,0.0,0.0,0.0,0.0,0.0,0.0,0.0,0.0,0.0,0.0,0.0,0.0,0.0,0.0,0.0,0.0,0.0,0.0,0.0,0.0,0.0,0.0,0.0,0.0,0.0,0.0,0.0,0.0,0.0,0.0,0.0,0.0,0.0,0.0,0.0,0.0,0.0,0.0,0.0,0.0,0.0,0.0,0.0,0.0,0.0,0.0,0.0,0.0,0.0,0.0,0.0,0.0,0.0,0.0,0.0,0.0,0.0,0.0,0.0,0.0,0.0,0.0,0.0,0.0,0.0,0.0,0.0,0.0,0.0,0.0,0.0,0.0,0.0,0.0,0.0,0.0,0.0,0.0,0.0,0.0,0.0,0.0,0.0,0.0,0.0,0.0,0.0,0.0,0.0,0.0,0.0,0.0,0.0,0.0,0.0,0.0,0.0,0.0,0.0,0.0,0.0,0.0,0.0,0.0,0.0,0.0,0.0,0.0,0.0,0.0,0.0,0.0,0.0,0.0,0.0,0.0,0.0,0.0,0.0,0.0,0.0,0.0,0.0,0.0,0.0,0.0,0.0,0.0,0.0,0.0,0.0,0.0,0.0,0.0,0.0,0.0,0.0,0.0,0.0,0.0,0.0,0.0,0.0,0.0,0.0,0.0,0.0,0.0,0.0,0.0,0.0,0.0,0.0,0.0,0.0,0.0,0.0,0.0,0.0,0.0,0.0,0.0,0.0,0.0,0.0,0.0,0.0,0.0,0.0,0.0,0.0,0.0,0.0,0.0,0.0,0.0,0.0,0.0,0.0,0.0,0.0,0.0,0.0,0.0,0.0,0.0,0.0,0.0,0.0,0.0,0.0,0.0,0.0,0.0,0.0,0.0,0.0,0.0,0.0,0.0,0.0,0.0,0.0,0.0,0.0,0.0,0.0,0.0,0.0,0.0,0.0,0.0,0.0,0.0,0.0,0.0,0.0,0.0,0.0,0.0,0.0,0.0,0.0,0.0,0.0,0.0,0.0,0.0,0.0,0.0,0.0,0.0,0.0,0.0,0.0,0.0,0.0,0.0,0.0,0.0,0.0,0.0,0.0,0.0,0.0,0.0,0.0,0.0,0.0,0.0,0.0,0.0,0.0,0.0,0.0,0.0,0.0,0.0,0.0,0.0,0.0,0.0,0.0,0.0,0.0,0.0,0.0,0.0,0.0,0.0,0.0,0.0,0.0,0.0,0.0,0.0,0.0,0.0,0.0,0.0,0.0,0.0,0.0,0.0,0.0,0.0,0.0,0.0,0.0,0.0,0.0,0.0,0.0,0.0,0.0,0.0,0.0,0.0,0.0,0.0,0.0,0.0,0.0,0.0,0.0,0.0,0.0,0.0,0.0,0.0,0.0,0.0,0.0,0.0,0.0,0.0,0.0,0.0,0.0,0.0,0.0,0.0,0.0,0.0,0.0,0.0,0.0,0.0,0.0,0.0,0.0,0.0,0.0,0.0,0.0,0.0,0.0,0.0,0.0,0.0,0.0,0.0,0.0,0.0,0.0,0.0,0.0,0.0,0.0,0.0,0.0,0.0,0.0,0.0,0.0,0.0,0.0,0.0,0.0,0.0,0.0,0.0,0.0,0.0,0.0,0.0,0.0,0.0,0.0,0.0,0.0,0.0,0.0,0.0,0.0,0.0,0.0,0.0,0.0,0.0,0.0,0.0,0.0,0.0,0.0,0.0,0.0,0.0,0.0,0.0,0.0,0.0,0.0,0.0,0.0,0.0,0.0,0.0,0.0,0.0,0.0,0.0,0.0,0.0,0.0,0.0,0.0,0.0,0.0,0.0,0.0,0.0,0.0,0.0,0.0,0.0,0.0,0.0,0.0,0.0,0.0,0.0,0.0,0.0,0.0,0.0,0.0,0.0,0.0,0.0,0.0,0.0,0.0,0.0,0.0,0.0,0.0,0.0,0.0,0.0,0.0,0.0,0.0,0.0,0.0,0.0,0.0,0.0,0.0,0.0,0.0,0.0,0.0,0.0,0.0,0.0,0.0,0.0,0.0,0.0,0.0,0.0,0.0,0.0,0.0,0.0,0.0,0.0,0.0,0.0,0.0,0.0,0.0,0.0,0.0,0.0,0.0,0.0,0.0,0.0,0.0,0.0,0.0,0.0,0.0,0.0,0.0,0.0,0.0,0.0,0.0,0.0,0.0,0.0,0.0,0.0,0.0,0.0,0.0,0.0,0.0,0.0,0.0,0.0,0.0,0.0,0.0,0.0,0.0,0.0,0.0,0.0,0.0,0.0,0.0,0.0,0.0,0.0,0.0,0.0,0.0,0.0,0.0,0.0,0.0,0.0,0.0,0.0,0.0,0.0,0.0,0.0,0.0,0.0,0.0,0.0,0.0,0.0,0.0,0.0,0.0,0.0,0.0,0.0,0.0,0.0,0.0,0.0,0.0,0.0,0.0,0.0,0.0,0.0,0.0,0.0,0.0,0.0,0.0,0.0,0.0,0.0,0.0,0.0,0.0,0.0,0.0,0.0,0.0,0.0,0.0,0.0,0.0,0.0,0.0,0.0,0.0,0.0,0.0,0.0,0.0,0.0,0.0,0.0,0.0,0.0,0.0,0.0,0.0,0.0,0.0,0.0,0.0,0.0,0.0,0.0,0.0,0.0,0.0,0.0,0.0,0.0,0.0,0.0,0.0,0.0,0.0,0.0,0.0,0.0,0.0,0.0,0.0,0.0,0.0,0.0,0.0,0.0,0.0,0.0,0.0,0.0,0.0,0.0,0.0,0.0,0.0,0.0,0.0,0.0,0.0,0.0,0.0,0.0,0.0,0.0,0.0,0.0,0.0,0.0,0.0,0.0,0.0,0.0,0.0,0.0,0.0,0.0,0.0,0.0,0.0,0.0,0.0,0.0,0.0,0.0,0.0,0.0,0.0,0.0,0.0,0.0,0.0,0.0,0.0,0.0,0.0,0.0,0.0,0.0,0.0,0.0,0.0,0.0,0.0,0.0,0.0,0.0,0.0,0.0,0.0,0.0,0.0,0.0,0.0,0.0,0.0,0.0,0.0,0.0,0.0,0.0,0.0,0.0,0.0,0.0,0.0,0.0,0.0,0.0,0.0,0.0,0.0,0.0,0.0,0.0,0.0,0.0,0.0,0.0,0.0,0.0,0.0,0.0,0.0,0.0,0.0,0.0,0.0,0.0,0.0,0.0,0.0,0.0,0.0,0.0,0.0,0.0,0.0,0.0,0.0,0.0,0.0,0.0,0.0,0.0,0.0,0.0,0.0,0.0,0.0,0.0,0.0,0.0,0.0,0.0,0.0,0.0,0.0,0.0,0.0,0.0,0.0,0.0,0.0,0.0,0.0,0.0,0.0,0.0,0.0,0.0,0.0,0.0,0.0,0.0,0.0,0.0,0.0,0.0,0.0,0.0,0.0,0.0,0.0,0.0,0.0,0.0,0.0,0.0,0.0,0.0,0.0,0.0,0.0,0.0,0.0,0.0,0.0,0.0,0.0,0.0,0.0,0.0,0.0,0.0,0.0,0.0,0.0,0.0,0.0,0.0,0.0,0.0,0.0,0.0,0.0,0.0,1.4605,0.0,0.0,0.0,0.0,0.0,0.0,0.0,0.0,0.0,0.0,0.0,0.0,0.0,0.0,0.0,0.0,0.0,0.0,0.0,0.0,0.0,0.0,0.0,0.0,0.0,0.0,0.0,0.0,0.0,0.0,0.0,0.0,0.0,0.0,0.0,0.0,0.0,0.0,0.0,0.0,0.0,0.0,0.0,0.0,0.0,0.0,0.0,0.0,0.0,0.0,0.0,0.0,0.0,0.0,0.0,0.0,0.0,0.0,0.0,0.0,0.0,0.0,0.0,0.0,0.0,0.0,0.0,0.0,0.0,0.0,0.0,0.0,0.0,0.0,0.0,0.0,0.0,0.0,0.0,0.0,0.0,0.0,0.0,0.0,0.0,0.0,0.0,0.0,0.0,0.0,0.0,0.0,0.0,0.0,0.0,0.0,0.0,0.0,0.0,0.0,0.0,0.0,0.0,0.0,0.0,0.0,0.0,0.0,0.0,0.0,1.4797,1.4797,1.4768,1.4717,1.4648,0.0,0.0,0.0,0.0,0.0,0.0,0.0,0.0,0.0,0.0,0.0,0.0,0.0,0.0,0.0,0.0,0.0,0.0,0.0,0.0,0.0,0.0,0.0,0.0,0.0,0.0,0.0,0.0,0.0,0.0,0.0,0.0,0.0,0.0,0.0,0.0,0.0,0.0,0.0,0.0,0.0,0.0,0.0,0.0,0.0,0.0,0.0,0.0,0.0,0.0,0.0,0.0,0.0,0.0,0.0,0.0,0.0,0.0,0.0,0.0,0.0,0.0,0.0,0.0,0.0,0.0,0.0,0.0,0.0,0.0,0.0,0.0,0.0,0.0,0.0,0.0,0.0,0.0,0.0,0.0,0.0,0.0,0.0,0.0,0.0,0.0,0.0,0.0,0.0,0.0,0.0,0.0,0.0,0.0,0.0,0.0,0.0,0.0,0.0,0.0,0.0,0.0,0.0,0.0,0.0,0.0,0.0,0.0,0.0,0.0,0.0,0.0,1.5315,1.5269,1.5195,0.0,0.0,0.0,0.0,0.0,0.0,0.0,0.0,0.0,0.0,0.0,0.0,0.0,0.0,0.0,0.0,0.0,0.0,0.0,0.0,0.0,0.0,0.0,0.0,0.0,0.0,0.0,0.0,0.0,0.0,0.0,0.0,0.0,0.0,0.0,0.0,0.0,0.0,0.0,0.0,0.0,0.0,0.0,0.0,0.0,0.0,0.0,0.0,0.0,0.0,0.0,0.0,0.0,0.0,0.0,0.0,0.0,0.0,0.0,0.0,0.0,0.0,0.0,0.0,0.0,0.0,0.0,0.0,0.0,0.0,0.0,0.0,0.0,0.0,0.0,0.0,0.0,0.0,0.0,0.0,0.0,0.0,0.0,0.0,0.0,0.0,0.0,0.0,0.0,0.0,0.0,0.0,0.0,0.0,0.0,0.0,0.0,0.0,0.0,0.0,0.0,0.0,0.0,0.0,0.0,0.0,0.0,0.0,0.0,0.0,1.5514,1.7018,1.7047,0.0,1.6748,0.0,0.0,0.0,0.0,0.0,0.0,0.0,0.0,0.0,0.0,0.0,0.0,0.0,0.0,0.0,0.0,0.0,0.0,0.0,0.0,0.0,0.0,0.0,0.0,0.0,0.0,0.0,0.0,0.0,0.0,0.0,0.0,0.0,0.0,0.0,0.0,0.0,0.0,0.0,0.0,0.0,0.0,0.0,0.0,0.0,0.0,0.0,0.0,0.0,0.0,0.0,0.0,0.0,0.0,0.0,0.0,0.0,0.0,0.0,0.0,0.0,0.0,0.0,0.0,0.0,0.0,0.0,0.0,0.0,0.0,0.0,0.0,0.0,0.0,0.0,0.0,0.0,0.0,0.0,0.0,0.0,0.0,0.0,0.0,0.0,0.0,0.0,0.0,0.0,0.0,0.0,0.0,0.0,0.0,0.0,0.0,0.0,0.0,0.0,0.0,0.0,0.0,0.0,0.0,0.0,0.0,0.0,0.0,0.0,0.0,0.0,1.7231,1.7247,1.7098,0.0,0.0,0.0,0.0,0.0,0.0,0.0,0.0,0.0,0.0,0.0,0.0,0.0,0.0,0.0,0.0,0.0,0.0,0.0,0.0,0.0,0.0,0.0,0.0,0.0,0.0,0.0,0.0,0.0,0.0,0.0,0.0,0.0,0.0,0.0,0.0,0.0,0.0,0.0,0.0,0.0,0.0,0.0,0.0,0.0,0.0,0.0,0.0,0.0,0.0,0.0,0.0,0.0,0.0,0.0,0.0,0.0,0.0,0.0,0.0,0.0,0.0,0.0,0.0,0.0,0.0,0.0,0.0,0.0,0.0,0.0,0.0,0.0,0.0,0.0,0.0,0.0,0.0,0.0,0.0,0.0,0.0,0.0,0.0,0.0,0.0,0.0,0.0,0.0,0.0,0.0,0.0,0.0,0.0,0.0,0.0,0.0,0.0,0.0,0.0,0.0,0.0,0.0,0.0,0.0,0.0,0.0,0.0,0.0,0.0,1.6812,0.0,1.7771,1.7773,1.7362,1.6538,0.0,0.0,0.0,0.0,0.0,0.0,0.0,0.0,0.0,0.0,0.0,0.0,0.0,0.0,0.0,0.0,0.0,0.0,0.0,0.0,0.0,0.0,0.0,0.0,0.0,0.0,0.0,0.0,0.0,0.0,0.0,0.0,0.0,0.0,0.0,0.0,0.0,0.0,0.0,0.0,0.0,0.0,0.0,0.0,0.0,0.0,0.0,0.0,0.0,0.0,0.0,0.0,0.0,0.0,0.0,0.0,0.0,0.0,0.0,0.0,0.0,0.0,0.0,0.0,0.0,0.0,0.0,0.0,0.0,0.0,0.0,0.0,0.0,0.0,0.0,0.0,0.0,0.0,0.0,0.0,0.0,0.0,0.0,0.0,0.0,0.0,0.0,0.0,0.0,0.0,0.0,0.0,0.0,0.0,0.0,0.0,0.0,0.0,0.0,0.0,0.0,0.0,0.0,0.0,0.0,0.0,0.0,0.0,0.0,1.7795,1.7749,1.925,1.9168,1.8064,0.0,0.0,0.0,0.0,0.0,0.0,0.0,0.0,0.0,0.0,0.0,0.0,0.0,0.0,0.0,0.0,0.0,0.0,0.0,0.0,0.0,0.0,0.0,0.0,0.0,0.0,0.0,0.0,0.0,0.0,0.0,0.0,0.0,0.0,0.0,0.0,0.0,0.0,0.0,0.0,0.0,0.0,0.0,0.0,0.0,0.0,0.0,0.0,0.0,0.0,0.0,0.0,0.0,0.0,0.0,0.0,0.0,0.0,0.0,0.0,0.0,0.0,0.0,0.0,0.0,0.0,0.0,0.0,0.0,0.0,0.0,0.0,0.0,0.0,0.0,0.0,0.0,0.0,0.0,0.0,0.0,0.0,0.0,0.0,0.0,0.0,0.0,0.0,0.0,0.0,0.0,0.0,0.0,0.0,0.0,0.0,0.0,0.0,0.0,0.0,0.0,0.0,0.0,0.0,0.0,0.0,0.0,0.0,0.0,1.6348,1.6857,1.834,2.074,1.8904,1.755,0.0,0.0,0.0,0.0,0.0,0.0,0.0,0.0,0.0,0.0,0.0,0.0,0.0,0.0,0.0,0.0,0.0,0.0,0.0,0.0,0.0,0.0,0.0,0.0,0.0,0.0,0.0,0.0,0.0,0.0,0.0,0.0,0.0,0.0,0.0,0.0,0.0,0.0,0.0,0.0,0.0,0.0,0.0,0.0,0.0,0.0,0.0,0.0,0.0,0.0,0.0,0.0,0.0,0.0,0.0,0.0,0.0,0.0,0.0,0.0,0.0,0.0,0.0,0.0,0.0,0.0,0.0,0.0,0.0,0.0,0.0,0.0,0.0,0.0,0.0,0.0,0.0,0.0,0.0,0.0,0.0,0.0,0.0,0.0,0.0,0.0,0.0,0.0,0.0,0.0,0.0,0.0,0.0,0.0,0.0,0.0,0.0,0.0,0.0,0.0,0.0,0.0,0.0,0.0,0.0,0.0,0.0,0.0,0.0,1.6085,0.0,1.939,0.0,1.8842,1.7245,0.0,0.0,0.0,0.0,0.0,0.0,0.0,0.0,0.0,0.0,0.0,0.0,0.0,0.0,0.0,0.0,0.0,0.0,0.0,0.0,0.0,0.0,0.0,0.0,0.0,0.0,0.0,0.0,0.0,0.0,0.0,0.0,0.0,0.0,0.0,0.0,0.0,0.0,0.0,0.0,0.0,0.0,0.0,0.0,0.0,0.0,0.0,0.0,0.0,0.0,0.0,0.0,0.0,0.0,0.0,0.0,0.0,0.0,0.0,0.0,0.0,0.0,0.0,0.0,0.0,0.0,0.0,0.0,0.0,0.0,0.0,0.0,0.0,0.0,0.0,0.0,0.0,0.0,0.0,0.0,0.0,0.0,0.0,0.0,0.0,0.0,0.0,0.0,0.0,0.0,0.0,0.0,0.0,0.0,0.0,0.0,0.0,0.0,0.0,0.0,0.0,0.0,0.0,0.0,0.0,0.0,0.0,0.0,1.6189,1.9025,2.0653,2.0692,1.9235,1.9021,1.7175,0.0,0.0,0.0,0.0,0.0,0.0,0.0,0.0,0.0,0.0,0.0,0.0,0.0,0.0,0.0,0.0,0.0,0.0,0.0,0.0,0.0,0.0,0.0,0.0,0.0,0.0,0.0,0.0,0.0,0.0,0.0,0.0,0.0,0.0,0.0,0.0,0.0,0.0,0.0,0.0,0.0,0.0,0.0,0.0,0.0,0.0,0.0,0.0,0.0,0.0,0.0,0.0,0.0,0.0,0.0,0.0,0.0,0.0,0.0,0.0,0.0,0.0,0.0,0.0,0.0,0.0,0.0,0.0,0.0,0.0,0.0,0.0,0.0,0.0,0.0,0.0,0.0,0.0,0.0,0.0,0.0,0.0,0.0,0.0,0.0,0.0,0.0,0.0,0.0,0.0,0.0,0.0,0.0,0.0,0.0,0.0,0.0,0.0,0.0,0.0,0.0,0.0,0.0,0.0,0.0,0.0,0.0,0.0,0.0,1.7765,1.8706,1.9733,2.0679,1.812,1.6584,0.0,0.0,0.0,0.0,0.0,0.0,0.0,0.0,0.0,0.0,0.0,0.0,0.0,0.0,0.0,0.0,0.0,0.0,0.0,0.0,0.0,0.0,0.0,0.0,0.0,0.0,0.0,0.0,0.0,0.0,0.0,0.0,0.0,0.0,0.0,0.0,0.0,0.0,0.0,0.0,0.0,0.0,0.0,0.0,0.0,0.0,0.0,0.0,0.0,0.0,0.0,0.0,0.0,0.0,0.0,0.0,0.0,0.0,0.0,0.0,0.0,0.0,0.0,0.0,0.0,0.0,0.0,0.0,0.0,0.0,0.0,0.0,0.0,0.0,0.0,0.0,0.0,0.0,0.0,0.0,0.0,0.0,0.0,0.0,0.0,0.0,0.0,0.0,0.0,0.0,0.0,0.0,0.0,0.0,0.0,0.0,0.0,0.0,0.0,0.0,0.0,0.0,0.0,0.0,0.0,0.0,0.0,0.0,0.0,1.8909,1.9863,2.0764,2.153,1.8828,1.7346,1.7281,0.0,0.0,0.0,0.0,0.0,0.0,0.0,0.0,0.0,0.0,0.0,0.0,0.0,0.0,0.0,0.0,0.0,0.0,0.0,0.0,0.0,0.0,0.0,0.0,0.0,0.0,0.0,0.0,0.0,0.0,0.0,0.0,0.0,0.0,0.0,0.0,0.0,0.0,0.0,0.0,0.0,0.0,0.0,0.0,0.0,0.0,0.0,0.0,0.0,0.0,0.0,0.0,0.0,0.0,0.0,0.0,0.0,0.0,0.0,0.0,0.0,0.0,0.0,0.0,0.0,0.0,0.0,0.0,0.0,0.0,0.0,0.0,0.0,0.0,0.0,0.0,0.0,0.0,0.0,0.0,0.0,0.0,0.0,0.0,0.0,0.0,0.0,0.0,0.0,0.0,0.0,0.0,0.0,0.0,0.0,0.0,0.0,0.0,0.0,0.0,0.0,0.0,0.0,0.0,0.0,0.0,0.0,0.0,2.177,2.3431,2.3405,2.1699,2.0694,1.913,0.0,0.0,0.0,0.0,0.0,0.0,0.0,0.0,0.0,0.0,0.0,0.0,0.0,0.0,0.0,0.0,0.0,0.0,0.0,0.0,0.0,0.0,0.0,0.0,0.0,0.0,0.0,0.0,0.0,0.0,0.0,0.0,0.0,0.0,0.0,0.0,0.0,0.0,0.0,0.0,0.0,0.0,0.0,0.0,0.0,0.0,0.0,0.0,0.0,0.0,0.0,0.0,0.0,0.0,0.0,0.0,0.0,0.0,0.0,0.0,0.0,0.0,0.0,0.0,0.0,0.0,0.0,0.0,0.0,0.0,0.0,0.0,0.0,0.0,0.0,0.0,0.0,0.0,0.0,0.0,0.0,0.0,0.0,0.0,0.0,0.0,0.0,0.0,0.0,0.0,0.0,0.0,0.0,0.0,0.0,0.0,0.0,0.0,0.0,0.0,0.0,0.0,0.0,0.0,0.0,0.0,0.0,0.0,0.0,2.182,2.3445,2.3927,2.3105,2.0721,1.9067,0.0,0.0,0.0,0.0,0.0,0.0,0.0,0.0,0.0,0.0,0.0,0.0,0.0,0.0,0.0,0.0,0.0,0.0,0.0,0.0,0.0,0.0,0.0,0.0,0.0,0.0,0.0,0.0,0.0,0.0,0.0,0.0,0.0,0.0,0.0,0.0,0.0,0.0,0.0,0.0,0.0,0.0,0.0,0.0,0.0,0.0,0.0,0.0,0.0,0.0,0.0,0.0,0.0,0.0,0.0,0.0,0.0,0.0,0.0,0.0,0.0,0.0,0.0,0.0,0.0,0.0,0.0,0.0,0.0,0.0,0.0,0.0,0.0,0.0,0.0,0.0,0.0,0.0,0.0,0.0,0.0,0.0,0.0,0.0,0.0,0.0,0.0,0.0,0.0,0.0,0.0,0.0,0.0,0.0,0.0,0.0,0.0,0.0,0.0,0.0,0.0,0.0,0.0,0.0,0.0,0.0,0.0,0.0,2.1479,2.2735,2.3695,2.4041,2.3723,2.1696,2.0219,0.0,0.0,0.0,0.0,0.0,0.0,0.0,0.0,0.0,0.0,0.0,0.0,0.0,0.0,0.0,0.0,0.0,0.0,0.0,0.0,0.0,0.0,0.0,0.0,0.0,0.0,0.0,0.0,0.0,0.0,0.0,0.0,0.0,0.0,0.0,0.0,0.0,0.0,0.0,0.0,0.0,0.0,0.0,0.0,0.0,0.0,0.0,0.0,0.0,0.0,0.0,0.0,0.0,0.0,0.0,0.0,0.0,0.0,0.0,0.0,0.0,0.0,0.0,0.0,0.0,0.0,0.0,0.0,0.0,0.0,0.0,0.0,0.0,0.0,0.0,0.0,0.0,0.0,0.0,0.0,0.0,0.0,0.0,0.0,0.0,0.0,0.0,0.0,0.0,0.0,0.0,0.0,0.0,0.0,0.0,0.0,0.0,0.0,0.0,0.0,0.0,0.0,0.0,0.0,0.0,0.0,0.0,0.0,2.1865,2.3916,2.4057,2.3974,2.3696,2.304,2.1827,0.0,0.0,0.0,0.0,0.0,0.0,0.0,0.0,0.0,0.0,0.0,0.0,0.0,0.0,0.0,0.0,0.0,0.0,0.0,0.0,0.0,0.0,0.0,0.0,0.0,0.0,0.0,0.0,0.0,0.0,0.0,0.0,0.0,0.0,0.0,0.0,0.0,0.0,0.0,0.0,0.0,0.0,0.0,0.0,0.0,0.0,0.0,0.0,0.0,0.0,0.0,0.0,0.0,0.0,0.0,0.0,0.0,0.0,0.0,0.0,0.0,0.0,0.0,0.0,0.0,0.0,0.0,0.0,0.0,0.0,0.0,0.0,0.0,0.0,0.0,0.0,0.0,0.0,0.0,0.0,0.0,0.0,0.0,0.0,0.0,0.0,0.0,0.0,0.0,0.0,0.0,0.0,0.0,0.0,0.0,0.0,0.0,0.0,0.0,0.0,0.0,0.0,0.0,0.0,0.0,0.0,0.0,0.0,2.2715,2.306,2.3759,2.3991,2.3769,2.2986,2.1737,0.0,0.0,0.0,0.0,0.0,0.0,0.0,0.0,0.0,0.0,0.0,0.0,0.0,0.0,0.0,0.0,0.0,0.0,0.0,0.0,0.0,0.0,0.0,0.0,0.0,0.0,0.0,0.0,0.0,0.0,0.0,0.0,0.0,0.0,0.0,0.0,0.0,0.0,0.0,0.0,0.0,0.0,0.0,0.0,0.0,0.0,0.0,0.0,1.7245,0.0,0.0,0.0,0.0,0.0,0.0,0.0,0.0,0.0,0.0,0.0,0.0,0.0,0.0,0.0,0.0,0.0,0.0,0.0,0.0,0.0,0.0,0.0,0.0,0.0,0.0,0.0,0.0,0.0,0.0,0.0,0.0,0.0,0.0,0.0,0.0,0.0,0.0,0.0,0.0,0.0,0.0,0.0,0.0,0.0,0.0,0.0,0.0,0.0,0.0,0.0,0.0,0.0,0.0,0.0,0.0,0.0,0.0,0.0,2.3107,2.3282,2.3793,2.4006,2.3788,2.3328,2.2268,0.0,0.0,0.0,0.0,0.0,0.0,0.0,0.0,0.0,0.0,0.0,0.0,0.0,0.0,0.0,0.0,0.0,0.0,0.0,0.0,0.0,0.0,0.0,0.0,0.0,0.0,0.0,0.0,0.0,0.0,0.0,0.0,0.0,0.0,0.0,0.0,0.0,0.0,0.0,0.0,0.0,0.0,0.0,0.0,0.0,0.0,0.0,0.0,0.0,0.0,0.0,0.0,0.0,0.0,0.0,0.0,0.0,0.0,0.0,0.0,0.0,0.0,0.0,0.0,0.0,0.0,0.0,0.0,0.0,0.0,0.0,0.0,0.0,0.0,0.0,0.0,0.0,0.0,0.0,0.0,0.0,0.0,0.0,0.0,0.0,0.0,0.0,0.0,0.0,0.0,0.0,0.0,0.0,0.0,0.0,0.0,0.0,0.0,0.0,0.0,0.0,0.0,0.0,0.0,0.0,0.0,0.0,2.1779,2.3185,2.378,2.3958,2.3971,2.3779,2.3725,2.2957,2.135,0.0,0.0,0.0,0.0,0.0,0.0,0.0,0.0,0.0,0.0,0.0,0.0,0.0,0.0,0.0,0.0,0.0,0.0,0.0,0.0,0.0,0.0,0.0,0.0,0.0,0.0,0.0,0.0,0.0,0.0,0.0,0.0,0.0,0.0,0.0,0.0,0.0,0.0,1.6403,1.8178,0.0,0.0,0.0,0.0,0.0,0.0,0.0,0.0,1.8651,0.0,0.0,0.0,0.0,0.0,0.0,0.0,0.0,0.0,0.0,0.0,0.0,0.0,0.0,0.0,0.0,0.0,0.0,0.0,0.0,0.0,0.0,0.0,0.0,0.0,0.0,0.0,0.0,0.0,0.0,0.0,0.0,0.0,0.0,0.0,0.0,0.0,0.0,0.0,0.0,0.0,0.0,0.0,0.0,0.0,0.0,0.0,0.0,0.0,0.0,0.0,0.0,0.0,0.0,0.0,0.0,2.1354,2.2332,2.3147,2.3788,2.3827,2.3808,2.3709,2.3711,2.2951,2.1339,0.0,0.0,0.0,0.0,0.0,0.0,0.0,0.0,0.0,0.0,0.0,0.0,0.0,0.0,0.0,0.0,0.0,0.0,0.0,0.0,0.0,0.0,0.0,0.0,0.0,0.0,0.0,0.0,0.0,0.0,0.0,0.0,0.0,0.0,0.0,0.0,0.0,0.0,0.0,1.9602,2.0211,0.0,0.0,0.0,0.0,0.0,0.0,0.0,0.0,1.8257,0.0,0.0,0.0,0.0,0.0,0.0,0.0,0.0,0.0,0.0,0.0,0.0,0.0,0.0,0.0,0.0,0.0,0.0,0.0,0.0,0.0,0.0,0.0,0.0,0.0,0.0,0.0,0.0,0.0,0.0,0.0,0.0,0.0,0.0,0.0,0.0,0.0,0.0,0.0,0.0,0.0,0.0,0.0,0.0,0.0,0.0,0.0,0.0,0.0,0.0,0.0,0.0,0.0,0.0,0.0,2.0472,2.2337,2.3487,2.3782,2.3795,2.3774,2.3732,2.3391,2.2602,0.0,0.0,0.0,0.0,0.0,0.0,0.0,0.0,0.0,0.0,0.0,0.0,0.0,0.0,0.0,0.0,0.0,0.0,0.0,0.0,0.0,0.0,0.0,0.0,0.0,0.0,0.0,0.0,0.0,0.0,0.0,0.0,0.0,0.0,0.0,0.0,0.0,0.0,0.0,0.0,2.017,2.0555,2.0952,0.0,0.0,0.0,0.0,0.0,0.0,1.899,1.8271,0.0,0.0,0.0,0.0,0.0,0.0,0.0,0.0,0.0,0.0,0.0,0.0,0.0,0.0,0.0,0.0,0.0,0.0,0.0,0.0,0.0,0.0,0.0,0.0,0.0,0.0,0.0,0.0,0.0,0.0,0.0,0.0,0.0,0.0,0.0,0.0,0.0,0.0,0.0,0.0,0.0,0.0,0.0,0.0,0.0,0.0,0.0,0.0,0.0,0.0,0.0,0.0,0.0,0.0,0.0,1.9527,2.2175,2.3669,2.3782,2.3795,2.3813,2.3756,2.3221,2.2326,0.0,0.0,0.0,0.0,0.0,0.0,0.0,0.0,0.0,0.0,0.0,0.0,0.0,0.0,0.0,0.0,0.0,0.0,0.0,0.0,0.0,0.0,0.0,0.0,0.0,0.0,0.0,0.0,0.0,0.0,0.0,0.0,0.0,0.0,0.0,0.0,0.0,0.0,0.0,0.0,0.0,2.109,2.1716,2.1688,0.0,0.0,0.0,0.0,2.0558,1.943,0.0,0.0,0.0,0.0,0.0,0.0,0.0,0.0,0.0,0.0,0.0,0.0,0.0,0.0,0.0,0.0,0.0,0.0,0.0,0.0,0.0,0.0,0.0,0.0,0.0,0.0,0.0,0.0,0.0,0.0,0.0,0.0,0.0,0.0,0.0,0.0,0.0,0.0,0.0,0.0,0.0,0.0,0.0,0.0,0.0,0.0,0.0,0.0,0.0,0.0,0.0,0.0,0.0,0.0,0.0,0.0,2.0252,2.2013,2.3201,2.3769,2.3795,2.3776,2.3703,2.3626,2.2509,0.0,0.0,0.0,0.0,0.0,0.0,0.0,0.0,0.0,0.0,0.0,0.0,0.0,0.0,0.0,0.0,0.0,0.0,0.0,0.0,0.0,0.0,0.0,0.0,0.0,0.0,0.0,0.0,0.0,0.0,0.0,0.0,0.0,0.0,0.0,0.0,0.0,0.0,0.0,0.0,0.0,2.2474,2.2567,2.1998,2.1567,0.0,0.0,2.0555,2.0598,2.0043,0.0,0.0,0.0,0.0,0.0,0.0,0.0,0.0,0.0,0.0,0.0,0.0,0.0,0.0,0.0,0.0,0.0,0.0,0.0,0.0,0.0,0.0,0.0,0.0,0.0,0.0,0.0,0.0,0.0,0.0,0.0,0.0,0.0,0.0,0.0,0.0,0.0,0.0,0.0,0.0,0.0,0.0,0.0,0.0,0.0,0.0,0.0,0.0,0.0,0.0,0.0,0.0,0.0,0.0,0.0,1.9224,2.0371,2.2325,2.3495,2.3782,2.3795,2.3779,2.3773,2.3347,2.2175,0.0,0.0,0.0,0.0,0.0,0.0,0.0,0.0,0.0,0.0,0.0,0.0,0.0,0.0,0.0,0.0,0.0,0.0,0.0,0.0,0.0,0.0,0.0,0.0,0.0,0.0,0.0,0.0,0.0,0.0,0.0,0.0,0.0,0.0,0.0,0.0,0.0,0.0,0.0,0.0,0.0,0.0,2.263,2.2423,0.0,0.0,0.0,2.195,2.135,0.0,0.0,0.0,0.0,0.0,0.0,0.0,0.0,0.0,0.0,0.0,0.0,0.0,0.0,0.0,0.0,0.0,0.0,0.0,0.0,0.0,0.0,0.0,0.0,0.0,0.0,0.0,0.0,0.0,0.0,0.0,0.0,0.0,0.0,0.0,0.0,0.0,0.0,0.0,0.0,0.0,0.0,0.0,0.0,0.0,0.0,0.0,0.0,0.0,0.0,0.0,0.0,0.0,0.0,0.0,0.0,0.0,2.0608,2.2714,2.3795,2.3795,2.3795,2.3795,2.3795,2.327,0.0,0.0,0.0,0.0,0.0,0.0,0.0,0.0,0.0,0.0,0.0,0.0,0.0,0.0,0.0,0.0,0.0,0.0,0.0,0.0,0.0,0.0,0.0,0.0,0.0,0.0,0.0,1.097,0.0,0.0,0.0,0.0,0.0,0.0,0.0,0.0,0.0,0.0,0.0,0.0,0.0,0.0,2.2354,2.2905,2.3147,2.3274,0.0,0.0,2.2934,2.2174,2.1555,2.0599,0.0,0.0,0.0,0.0,0.0,0.0,0.0,0.0,0.0,0.0,0.0,0.0,0.0,0.0,0.0,0.0,0.0,0.0,0.0,0.0,0.0,0.0,0.0,0.0,0.0,0.0,0.0,0.0,0.0,0.0,0.0,0.0,0.0,0.0,0.0,0.0,0.0,0.0,0.0,0.0,0.0,0.0,0.0,0.0,0.0,0.0,0.0,0.0,0.0,0.0,0.0,0.0,0.0,0.0,0.0,2.1418,2.2998,2.3795,2.3795,2.3795,2.3795,2.3795,2.3746,2.2233,0.0,0.0,0.0,0.0,0.0,0.0,0.0,0.0,0.0,0.0,0.0,0.0,0.0,0.0,0.0,0.0,0.0,0.0,0.0,0.0,0.0,0.0,0.0,0.0,0.0,0.0,0.0,0.0,0.0,0.0,0.0,0.0,0.0,0.0,0.0,0.0,0.0,0.0,0.0,0.0,0.0,2.3664,2.3715,2.4377,2.4843,0.0,0.0,2.2886,2.2838,2.165,2.0263,1.8833,0.0,0.0,0.0,0.0,0.0,0.0,0.0,0.0,0.0,0.0,0.0,0.0,0.0,0.0,0.0,0.0,0.0,0.0,0.0,0.0,0.0,0.0,0.0,0.0,0.0,0.0,0.0,0.0,0.0,0.0,0.0,0.0,0.0,0.0,0.0,0.0,0.0,0.0,0.0,0.0,0.0,0.0,0.0,0.0,0.0,0.0,0.0,0.0,0.0,0.0,0.0,0.0,0.0,1.9884,2.1491,2.3022,2.3795,2.3795,2.3795,2.3795,2.3795,2.3773,2.2427,0.0,0.0,0.0,0.0,0.0,0.0,0.0,0.0,0.0,0.0,0.0,0.0,0.0,0.0,0.0,0.0,0.0,0.0,0.0,0.0,0.0,0.0,0.0,0.0,0.0,0.0,0.0,0.0,1.3738,1.427,1.5188,0.0,0.0,0.0,0.0,0.0,0.0,0.0,0.0,0.0,0.0,2.3967,2.4474,2.4791,0.0,0.0,2.4374,2.3794,2.2695,2.2239,2.1345,1.9515,1.9139,0.0,0.0,0.0,0.0,0.0,0.0,0.0,0.0,0.0,0.0,0.0,0.0,0.0,0.0,0.0,0.0,0.0,0.0,0.0,0.0,0.0,0.0,0.0,0.0,0.0,0.0,0.0,0.0,0.0,0.0,0.0,0.0,0.0,0.0,0.0,0.0,0.0,0.0,0.0,0.0,0.0,0.0,0.0,0.0,0.0,0.0,0.0,0.0,0.0,0.0,0.0,0.0,1.9888,2.1473,2.3017,2.3795,2.3795,2.3795,2.3795,2.3795,2.3768,2.2669,0.0,0.0,0.0,0.0,0.0,0.0,0.0,0.0,0.0,0.0,0.0,0.0,0.0,0.0,0.0,0.0,0.0,0.0,0.0,0.0,0.0,0.0,0.0,0.0,0.0,0.0,0.0,0.0,1.5133,1.5629,1.6863,0.0,0.0,0.0,0.0,0.0,0.0,0.0,0.0,0.0,0.0,2.4404,2.5055,2.5366,2.538,2.4983,2.4697,2.4096,2.2857,2.255,2.1808,1.9876,0.0,0.0,0.0,0.0,0.0,0.0,0.0,0.0,0.0,0.0,0.0,0.0,0.0,0.0,0.0,0.0,0.0,0.0,0.0,0.0,0.0,0.0,0.0,0.0,0.0,0.0,0.0,1.2813,0.0,0.0,1.287,0.0,0.0,0.0,0.0,0.0,0.0,0.0,0.0,0.0,0.0,0.0,0.0,0.0,0.0,0.0,0.0,0.0,0.0,0.0,0.0,0.0,0.0,1.9884,2.1477,2.3022,2.3795,2.3795,2.3795,2.3795,2.3795,2.3795,2.2976,2.1164,0.0,0.0,0.0,0.0,0.0,0.0,0.0,0.0,0.0,0.0,0.0,0.0,0.0,0.0,0.0,0.0,0.0,0.0,0.0,0.0,0.0,0.0,0.0,0.0,0.0,0.0,1.5899,1.5877,1.6162,0.0,0.0,0.0,0.0,0.0,0.0,0.0,0.0,0.0,0.0,2.4008,2.5097,2.5454,2.615,2.6472,2.6075,2.4646,2.354,2.3465,2.2495,2.1231,0.0,0.0,0.0,0.0,0.0,0.0,0.0,0.0,0.0,0.0,0.0,0.0,0.0,0.0,0.0,0.0,0.0,0.0,0.0,0.0,0.0,0.0,0.0,0.0,0.0,0.0,0.0,1.5776,1.4441,0.0,0.0,0.0,0.0,0.0,0.0,0.0,0.0,0.0,0.0,0.0,2.1057,2.1478,0.0,0.0,0.0,0.0,0.0,0.0,0.0,0.0,0.0,0.0,0.0,0.0,1.9888,2.1473,2.3022,2.3795,2.3795,2.3795,2.3795,2.3795,2.3755,2.2414,1.9615,0.0,0.0,0.0,0.0,0.0,0.0,0.0,0.0,0.0,0.0,0.0,0.0,0.0,0.0,0.0,0.0,0.0,0.0,0.0,0.0,0.0,0.0,0.0,0.0,0.0,1.6841,0.0,0.0,0.0,0.0,0.0,0.0,0.0,0.0,0.0,0.0,0.0,2.2785,2.4067,2.5084,2.5859,2.6242,2.6522,2.647,0.0,0.0,0.0,0.0,0.0,0.0,0.0,0.0,0.0,0.0,0.0,0.0,0.0,0.0,2.3466,2.0789,2.0119,1.9965,1.9965,0.0,0.0,0.0,0.0,0.0,0.0,0.0,0.0,0.0,0.0,0.0,0.0,0.0,0.0,1.7824,0.0,1.7325,0.0,0.0,0.0,0.0,0.0,0.0,0.0,0.0,2.2004,2.3065,2.333,2.3775,2.3444,0.0,2.1763,2.04,0.0,0.0,0.0,0.0,0.0,0.0,0.0,0.0,2.0305,2.1889,2.3161,2.3795,2.3795,2.3795,2.3795,2.3795,2.3693,2.2355,1.9655,1.889,1.7289,0.0,0.0,0.0,0.0,0.0,0.0,0.0,0.0,0.0,0.0,0.0,0.0,0.0,0.0,0.0,0.0,0.0,0.0,0.0,0.0,0.0,0.0,0.0,1.7621,0.0,0.0,0.0,0.0,0.0,0.0,0.0,0.0,0.0,2.1262,2.2526,2.3964,2.5212,2.5808,2.6215,2.6455,0.0,0.0,0.0,0.0,0.0,0.0,0.0,2.353,2.319,2.3107,2.329,2.3897,2.4922,2.5599,2.5342,0.0,0.0,2.2573,2.1737,2.138,2.1145,2.1046,2.0739,1.9938,2.0025,2.0017,0.0,0.0,0.0,0.0,0.0,0.0,0.0,0.0,1.8806,1.9192,0.0,1.983,0.0,0.0,0.0,0.0,0.0,2.0436,0.0,0.0,2.3819,2.4946,2.5581,2.5592,2.5616,2.5588,2.4822,2.3678,2.2146,2.0122,0.0,0.0,0.0,0.0,0.0,0.0,2.1133,2.2649,2.3415,2.3795,2.3795,2.3795,2.3795,2.3795,2.361,2.2802,2.1322,2.0926,1.9325,1.6171,1.5374,0.0,0.0,0.0,0.0,0.0,0.0,0.0,0.0,0.0,0.0,0.0,0.0,0.0,0.0,0.0,0.0,0.0,0.0,0.0,0.0,1.7309,0.0,0.0,0.0,0.0,0.0,0.0,0.0,0.0,0.0,0.0,2.2888,2.4119,2.5298,2.5973,0.0,0.0,0.0,0.0,2.6101,2.6052,2.5386,2.5136,2.5733,2.567,2.5321,2.4663,0.0,0.0,2.5487,2.598,2.6252,2.5553,2.6057,2.6226,2.5413,2.4319,2.3441,2.2829,2.2275,2.1538,2.0767,2.1106,2.1092,2.5373,0.0,0.0,0.0,0.0,2.2646,2.2938,2.3418,2.3412,2.292,2.2101,2.1637,0.0,0.0,0.0,0.0,0.0,0.0,2.3481,2.3743,2.5279,2.6117,2.6328,2.6303,2.631,2.6293,2.5515,2.4962,2.4664,2.41,2.1749,1.7788,0.0,0.0,0.0,0.0,2.1672,2.2681,2.3433,2.3795,2.3795,2.3795,2.3795,2.3795,2.3732,2.3162,2.2027,2.1643,2.0585,1.8695,1.6988,0.0,0.0,0.0,0.0,0.0,0.0,0.0,0.0,0.0,0.0,0.0,0.0,0.0,0.0,0.0,0.0,0.0,0.0,0.0,1.6566,1.7609,1.8424,0.0,0.0,0.0,0.0,0.0,0.0,0.0,0.0,0.0,2.5833,2.585,2.5853,0.0,0.0,2.6632,2.6853,2.6646,2.6532,2.6746,2.6593,0.0,2.6576,2.6072,2.5721,2.5899,2.6615,2.7049,2.6842,2.7376,2.7765,2.7534,2.7688,2.7474,2.6369,2.5531,2.4909,2.4729,2.4306,2.4006,2.4132,2.4043,2.3658,2.8135,2.6323,2.5343,2.5191,2.5643,2.5668,2.59,2.6314,2.6314,2.5788,2.4903,2.4516,2.3474,2.1971,2.1196,0.0,0.0,0.0,2.4899,2.525,2.6167,2.6746,2.7027,2.7034,2.7027,2.7009,2.6237,2.5941,2.6036,2.5773,2.388,2.0489,0.0,0.0,2.0549,2.1491,2.2518,2.3573,2.4043,2.4271,2.4271,2.3964,2.3795,2.3795,2.371,2.3393,2.2808,2.2447,2.1668,2.0419,1.8696,1.6974,0.0,0.0,0.0,0.0,0.0,0.0,0.0,0.0,0.0,0.0,0.0,1.4593,1.4106,0.0,0.0,0.0,1.5689,1.6503,1.7402,1.8453,0.0,0.0,0.0,0.0,0.0,0.0,0.0,2.3922,2.5153,2.6368,2.7558,2.7412,2.7212,2.7212,2.7411,2.7528,2.7369,0.0,2.7118,2.7453,2.7406,2.7413,2.7612,2.7154,2.6891,2.7183,2.7531,2.7792,2.7811,2.815,2.8396,2.8399,2.821,2.7751,2.6755,2.6082,2.5458,2.5024,2.4731,2.4583,2.4707,2.4641,2.4462,3.0037,2.9808,2.8655,2.806,2.7894,2.7877,2.7894,2.7877,2.7894,2.7877,2.7877,2.7824,2.6964,2.5542,2.4934,0.0,2.57,2.5728,2.6202,2.6869,2.6809,2.7139,2.7771,2.7726,2.7708,2.7673,2.7009,2.67,2.668,2.5998,2.5284,2.464,2.4265,2.3681,2.2906,2.2947,2.3681,2.5063,2.5099,2.5081,2.499,2.4194,2.3795,2.3795,2.3621,2.351,2.3494,2.3247,2.2626,2.1588,2.0373,1.852,1.5888,0.0,0.0,0.0,0.0,0.0,0.0,0.0,0.0,0.0,0.0,0.0,0.0,0.0,0.0,0.0,1.7821,0.0,1.8378,1.9659,0.0,0.0,0.0,2.205,2.2802,2.3605,2.4629,2.605,0.0,0.0,2.8422,2.878,2.8949,2.8971,2.887,2.8515,2.7776,2.7649,2.7757,2.8118,2.7967,2.8042,2.8564,2.8445,2.8263,2.8282,2.8411,2.8365,2.8353,2.8369,2.8411,2.8411,2.7922,2.7335,2.6795,2.6252,2.5502,2.429,2.4214,2.415,2.3906,2.4191,2.4353,3.2691,3.2625,3.2324,3.1174,2.9544,2.9544,2.9527,2.9519,2.9536,2.9519,2.9501,2.8877,2.8077,2.7174,2.7613,2.7894,2.8087,2.8712,2.908,2.9221,2.8631,2.8438,2.8579,2.7982,2.7708,2.7691,2.7533,2.7521,2.7667,2.7573,2.7184,2.6568,2.6537,2.579,2.4389,2.5002,2.5522,2.5908,2.5914,2.5606,2.5003,2.4199,2.3795,2.3795,2.3766,2.3647,2.3493,2.3289,2.3032,2.2686,2.0926,1.9555,1.8704,1.5761,0.0,0.0,0.0,0.0,0.0,0.0,0.0,0.0,0.0,1.6912,1.5718,0.0,1.6863,0.0,1.8597,1.9269,1.9832,2.0751,0.0,0.0,2.283,2.3578,2.436,2.5636,2.6609,2.6979,2.7896,2.8803,2.9533,2.9372,2.9297,2.9534,2.8598,2.8033,2.8343,2.8174,2.82,2.8695,2.8688,2.8685,2.8807,2.8692,2.8505,2.8424,2.8411,2.8411,2.8411,2.8411,2.8411,2.8372,2.7922,2.7338,2.6797,2.627,2.5659,2.4957,2.513,2.5588,2.5858,2.602,2.5954,3.3292,3.3418,3.3435,3.273,3.1652,3.1472,3.1288,3.1124,3.1124,3.0923,3.0545,2.9772,2.9193,2.8807,2.9246,2.9414,2.9449,2.9905,3.009,3.008,2.965,2.9431,2.9421,2.8957,2.8579,2.8228,2.8228,2.8104,2.7882,2.7926,2.7825,2.7569,2.7707,2.7316,2.6434,2.6272,2.6385,2.6723,2.6379,2.5986,2.5516,2.4398,2.3795,2.3795,2.3718,2.361,2.3511,2.3271,2.2926,2.2435,2.1105,2.0015,1.9309,1.705,1.537,0.0,0.0,0.0,0.0,0.0,0.0,0.0,0.0,0.0,0.0,0.0,1.7988,1.9091,2.0165,2.1107,2.1848,2.263,2.3274,2.3698,2.4705,2.554,2.5996,2.7368,2.8336,2.8485,2.9014,2.9598,3.0114,2.9823,2.9591,2.9778,2.8919,2.8403,2.876,2.8672,2.8661,2.895,2.8924,2.8807,2.87,2.857,2.8481,2.842,2.8411,2.8411,2.8411,2.8174,2.8087,2.8286,2.7704,2.7072,2.6736,2.6259,2.5714,2.5241,2.5248,2.5587,2.5926,2.5994,2.5872,3.314,3.3403,3.3419,3.3535,3.3669,3.3375,3.2991,3.2625,3.2669,3.2248,3.1449,3.0703,3.0396,3.0396,3.0396,3.0379,3.0379,3.0396,3.0379,3.0396,3.0291,3.0238,3.0238,3.0159,2.9729,2.9063,2.9045,2.8709,2.8017,2.7934,2.7977,2.817,2.8204,2.8286,2.8383,2.7127,2.6832,2.7532,2.6759,2.6294,2.618,2.4724,2.3891,2.379,2.3621,2.3522,2.3499,2.3259,2.2713,2.1848,2.1214,2.0368,1.9258,1.8146,1.7364,0.0,1.6554,0.0,0.0,0.0,0.0,0.0,0.0,0.0,0.0,1.9487,1.9453,2.0722,2.2164,2.325,2.3898,2.461,2.5097,2.5234,2.6488,2.7374,2.7463,2.8749,2.9711,2.9899,3.0003,3.0167,3.0323,3.0,2.9694,2.965,2.9321,2.9034,2.9094,2.9067,2.9044,2.8928,2.8858,2.8723,2.8508,2.8501,2.8581,2.8565,2.8704,2.8621,2.8599,2.8178,2.794,2.8223,2.7587,2.6877,2.6834,2.6335,2.5739,2.5263,2.5127,2.5073,2.5086,2.5099,2.4991,3.4532,3.4579,3.4562,3.4408,3.4177,3.4378,3.4228,3.3884,3.4156,3.3801,3.3038,3.2274,3.1967,3.1949,3.1967,3.1967,3.1967,3.1967,3.1967,3.1949,3.129,3.0992,3.0949,3.0387,3.0028,2.987,2.987,2.98,2.9624,2.9087,2.8918,2.9052,2.8495,2.8327,2.8542,0.0,0.0,0.0,2.7568,2.685,2.6198,2.5262,2.4465,2.3831,2.3714,0.0,2.3505,2.3336,2.3128,2.2812,2.1827,0.0,0.0,0.0,0.0,0.0,0.0,0.0,0.0,0.0,0.0,0.0,1.9929,1.9929,2.0394,2.1837,2.2847,2.3157,2.4033,2.4619,2.4757,2.5157,2.5657,2.6251,2.7157,2.7781,2.8044,2.9487,3.022,2.9512,3.0008,3.027,2.9957,2.9522,2.9259,2.9243,2.9156,2.9114,2.9114,2.9114,2.9087,2.9052,2.8908,2.87,2.8448,2.8861,2.9153,2.9261,2.9707,2.9758,2.932,2.9096,2.8818,2.86,2.7897,2.7408,2.7393,2.661,2.5887,2.5738,2.5344,2.4991,2.4991,2.4991,2.4991,3.4911,0.0,3.4911,3.479,0.0,3.5129,3.5141,3.4763,3.4555,3.4115,3.3548,3.3534,3.3238,3.2719,3.2871,3.273,3.2406,3.2406,3.2406,3.2371,3.1984,3.18,3.18,3.1405,3.1028,3.065,3.065,3.0457,3.0088,2.9755,2.9473,2.9204,2.8827,2.8566,2.8406,2.8411,2.8476,2.8593,2.7803,2.7206,2.6777,2.5619,2.4815,2.4416,2.3952,0.0,0.0,0.0,0.0,0.0,0.0,0.0,0.0,0.0,0.0,2.0283,2.0235,2.0082,1.9895,2.0294,2.0834,2.1484,2.1876,2.191,2.1555,2.3302,2.455,2.4905,2.5308,2.562,2.5844,2.6487,2.6919,2.6971,2.8078,2.8874,2.8915,3.0138,3.065,2.9839,3.0184,3.038,2.9558,2.9255,2.9126,2.9114,2.9114,2.9114,2.9114,2.9114,2.9087,2.9001,2.8834,2.8772,2.898,2.9175,2.9553,2.9845,3.0184,3.0238,2.9947,2.9395,2.8961,2.8886,2.8274,2.7674,2.7589,2.6922,2.6267,2.5914,2.5412,2.5018,2.4991,2.4991,2.4991,3.4911,3.4911,3.4911,3.4911,3.4942,3.5532,3.5661,3.5346,0.0,0.0,0.0,3.4498,3.4171,3.3234,3.3504,3.3229,3.252,3.2503,3.2468,3.2406,3.2406,3.2406,3.2406,3.2406,3.2055,3.144,3.1413,3.1097,3.0519,3.0361,3.0045,2.9539,2.9263,2.8809,2.8293,2.8367,2.8484,2.8575,2.7966,2.755,2.7351,2.5963,2.513,2.5009,2.4129,2.3624,2.3505,2.3342,2.2941,2.2236,2.2153,2.1956,2.1593,2.1727,2.1941,2.22,2.2254,2.2368,2.2626,2.2224,2.2204,2.2757,2.3559,2.3785,2.3241,2.4353,2.5409,2.6138,2.6257,2.6439,2.6775,2.7657,2.8052,2.7543,2.896,2.9806,2.9587,3.0659,3.1051,3.015,3.0293,3.0248,2.9285,2.9126,2.9114,2.9114,2.9114,2.9177,2.9256,2.9351,2.9316,2.9199,2.9193,2.9242,2.9627,2.9842,2.9968,3.0492,3.0694,3.0674,3.034,2.9602,2.9131,2.9183,2.848,2.7995,2.7813,2.7271,2.6659,2.6145,2.5493,2.4991,2.4991,2.4991,2.4991,3.4911,3.4911,3.4911,3.4911,3.4918,3.5321,3.543,3.5374,3.5225,3.5278,3.544,3.4931,3.4458,3.4048,3.4087,3.3673,3.2935,3.2918,3.2744,3.2415,3.2406,3.2406,3.2406,3.2406,3.2335,3.223,3.2213,3.2177,3.2002,3.137,3.1048,3.0894,2.9758,2.8859,2.8425,2.8504,2.8581,2.86,2.8473,2.8093,2.7387,2.6512,2.5697,2.5003,2.4052,2.3522,2.3499,2.3265,2.3073,2.2949,2.2788,2.2643,2.2609,2.2593,2.265,2.269,2.2753,2.2812,2.2831,2.2685,2.2764,2.3221,2.4208,2.492,2.5101,2.531,2.5759,2.6521,2.6856,2.7057,2.7159,2.753,2.7983,2.8415,2.9274,2.9874,3.0,3.0869,3.1116,3.0198,3.0,2.9777,2.9238,2.9114,2.9114,2.9114,2.9114,2.9304,2.9817,3.005,2.999,2.9949,3.0226,3.0447,3.0507,3.0858,3.1041,3.1255,3.1663,3.1565,3.0687,3.0294,2.9787,2.8921,2.8632,2.8483,2.8426,2.754,2.6916,2.6577,2.5805,2.51,2.5018,2.4991,2.4991,3.4911,3.4911,3.4911,3.4911,3.4923,3.506,3.5356,3.5638,3.5436,3.5315,3.532,3.5335,3.4943,3.429,3.4439,3.4071,3.3306,3.2904,3.264,3.2436,3.2083,3.1911,3.1902,3.1902,3.1911,3.1911,3.1911,3.1911,3.1867,3.1521,3.1158,3.0751,2.9521,2.8921,2.9015,2.8675,2.8541,2.8593,2.86,2.8419,2.8038,2.7193,2.661,2.6301,2.4948,2.4199,2.4135,2.362,2.3253,2.3113,2.302,2.2857,2.2652,2.2632,2.2531,2.2271,2.2123,2.2106,2.2275,2.2579,2.2995,2.3585,2.4477,2.5141,2.5487,2.5695,2.6157,2.6875,2.712,2.7255,2.7414,2.8085,2.8504,2.8361,2.9525,3.0103,2.9831,3.0667,3.0848,2.9863,2.9857,2.9776,2.9169,2.9114,2.9114,2.9114,2.9114,2.9394,3.0109,3.0528,3.0716,3.06,3.0707,3.0883,3.1099,3.1259,3.1534,3.1857,3.1905,3.1693,3.1073,3.0772,3.0075,2.9315,2.9082,2.8948,2.8711,2.7893,2.7269,2.6767,2.6145,2.548,2.5141,2.4991,2.4991,3.4911,3.4911,3.4911,3.4911,3.4911,3.4911,3.5195,3.5638,3.5396,3.5142,3.5013,3.5599,3.5393,3.4611,3.4836,3.4508,3.3756,3.3148,3.2757,3.2468,3.1978,3.1646,3.1511,3.1494,3.1494,3.1494,3.1494,3.1494,3.1494,3.1494,3.1137,3.0378,2.9556,2.9384,2.9764,2.8951,2.8638,2.884,2.8665,2.8562,2.8575,2.769,2.7257,2.7229,2.5829,2.495,2.4854,2.4112,2.3584,2.3371,2.3195,2.2938,2.2609,2.2576,2.2388,2.1996,2.1654,2.1645,2.2017,2.2724,2.3403,2.3965,2.4619,2.5109,2.5382,2.5822,2.6337,2.6951,2.7112,2.7309,2.7752,2.8614,2.9059,2.8697,2.9777,3.0339,2.9828,3.0421,3.061,2.9599,2.9722,2.9702,2.9272,2.9114,2.9114,2.9114,2.9114,2.9442,3.0287,3.1018,3.1413,3.1617,3.1474,3.1579,3.1991,3.1998,3.2064,3.2428,3.2079,3.1647,3.1264,3.0628,3.0199,2.9694,2.9407,2.9182,2.8807,2.818,2.7581,2.7106,2.6537,2.5941,2.5398,2.5113,2.5004,3.4911,3.4911,3.4911,3.4911,3.4911,3.4911,3.4958,3.5013,3.4954,3.4935,3.4965,3.5599,3.5654,3.5335,3.5301,3.4914,3.4257,3.4162,3.3531,3.2565,3.2444,3.2088,3.1507,3.1466,3.1485,3.1466,3.1456,3.1428,3.1437,3.1456,3.1211,3.0732,3.0551,3.0422,3.0317,2.9433,2.9176,2.9638,2.8845,2.8471,2.8526,2.769,2.7201,2.7195,2.6148,2.5521,2.5514,2.468,2.4235,2.4139,2.3499,2.3025,2.2814,2.2799,2.2665,2.2466,2.2199,2.2222,2.2737,2.3674,2.4234,2.4372,2.4761,2.5021,2.509,2.5645,2.6182,2.6631,2.6953,2.7418,2.8014,2.8724,2.935,2.9701,3.0125,3.0418,3.0701,3.0559,3.0224,3.0141,2.958,2.9177,2.9146,2.9114,2.9114,2.9114,2.9304,2.9777,3.0926,3.182,3.2666,3.3325,3.3208,3.3035,3.3421,3.3398,3.301,3.264,3.2451,3.1899,3.1042,3.0251,2.9668,2.9915,2.952,2.9094,2.8969,2.8546,2.7743,2.7486,2.7025,2.651,2.5928,2.548,2.5194,3.4911,3.4911,3.4911,3.4911,3.4911,3.4911,3.4911,3.4911,3.4911,3.4911,3.4918,3.5195,3.5224,3.5107,3.509,3.4912,3.4645,3.4206,3.3506,3.2615,3.2179,3.1593,3.0959,3.0918,3.0908,3.0908,3.0908,3.0902,3.0902,3.1005,3.1065,3.1057,3.0726,3.0621,3.072,2.9532,2.9105,2.9456,2.8658,2.8344,2.8537,2.8159,2.7901,2.7779,2.6792,2.6237,2.6218,2.5369,2.4867,2.4914,2.4497,2.414,2.3931,2.3774,2.3584,2.3393,2.3056,2.3088,2.3578,2.395,2.4298,2.47,2.49,2.4995,2.5027,2.5608,2.6249,2.6845,2.737,2.7968,2.8636,2.9327,2.9722,2.9722,3.0259,3.0607,2.9982,3.0117,3.0066,2.9627,2.9304,2.9114,2.9114,2.9114,2.9114,2.924,2.973,3.0737,3.1741,3.2769,3.3814,3.4567,3.4492,3.4337,3.4441,3.4014,3.3601,3.3215,3.2838,3.2159,3.1237,3.0812,3.0507,3.0045,2.973,2.935,2.8942,2.8698,2.8153,2.7854,2.7255,2.6713,2.6484,2.6238,2.6089,3.4911,3.4911,3.4911,3.4911,3.4911,3.4911,3.4911,3.4911,3.4911,3.4911,3.4911,3.4911,3.4911,3.4911,3.4911,3.4911,3.4828,3.4336,3.3585,3.2724,3.215,3.141,3.0572,3.0489,3.0489,3.0489,3.0499,3.0499,3.051,3.064,3.0888,3.1106,3.078,3.0794,3.1063,2.9853,2.9288,2.9429,2.8721,2.84,2.8445,2.8458,2.8419,2.8266,2.7405,2.6915,2.6922,2.6065,2.5583,2.56,2.5236,2.4934,2.4783,2.4489,2.4176,2.3943,2.3813,2.3844,2.4186,2.4195,2.4422,2.4916,2.4995,2.509,2.5349,2.5908,2.6704,2.7604,2.8257,2.8916,2.9347,2.988,2.999,2.9761,3.0516,3.0437,2.9631,2.9797,2.9674,2.9209,2.9146,2.9114,2.9146,2.9288,2.9521,2.984,3.0753,3.1871,3.275,3.3844,3.4855,3.5551,3.5564,3.5436,3.5186,3.4806,3.4289,3.3592,3.3132,3.2558,3.1545,3.1243,3.1349,3.0748,3.0568,3.0242,2.9686,2.9224,2.8845,2.8261,2.7649,2.7228,2.7337,2.7093,2.6916,3.4911,3.4911,3.4911,3.4911,3.4911,3.4911,3.4911,3.4911,3.4911,3.4911,3.4911,3.4911,3.4911,3.4911,3.4911,3.4911,3.4883,3.4828,3.4049,3.284,3.2641,3.1879,3.0539,3.0489,3.0489,3.0489,3.0489,3.0489,3.0516,3.063,3.0702,3.0747,3.0871,3.115,3.1331,3.0565,3.011,2.9891,2.9198,2.8684,2.8254,2.8458,2.8432,2.8208,2.7837,2.7522,2.7314,2.683,2.6439,2.6177,2.5483,2.507,2.4978,2.4601,2.4229,2.3917,2.4223,2.4392,2.4349,2.4678,2.4932,2.4995,2.4995,2.5254,2.5845,2.653,2.7451,2.883,2.9406,2.9907,3.005,3.0208,3.0429,3.0709,3.0492,3.0251,3.0109,2.9501,2.9209,2.9114,2.9114,2.9161,2.9146,2.9722,3.037,3.0989,3.1773,3.2766,3.3907,3.4855,3.5647,3.6153,3.6316,3.6244,3.5935,3.5477,3.4805,3.4148,3.3602,3.2946,3.1797,3.1002,3.13,3.1355,3.0893,3.0568,3.0374,3.012,2.9767,2.9184,2.8383,2.8044,2.8234,2.7459,2.7445,3.4911,3.4911,3.4911,3.4911,3.4911,3.4911,3.4911,3.4911,3.4911,3.4911,3.4911,3.4911,3.4911,3.4911,3.4911,3.4911,3.4911,3.4911,3.4348,3.342,3.2923,3.215,3.125,3.0737,3.0489,3.0489,3.0489,3.0489,3.0499,3.063,3.0702,3.0722,3.0871,3.1025,3.0982,3.0335,3.002,3.0101,2.9021,2.8495,2.8731,2.828,2.8024,2.818,2.7918,2.7659,2.7411,2.722,2.698,2.6722,2.6424,2.62,2.6027,2.5707,2.5443,2.5329,2.5357,2.5313,2.5146,2.5138,2.5133,2.5031,2.4995,2.5318,2.5961,2.6677,2.7483,2.8379,2.911,2.9627,3.0164,3.0559,3.0559,3.001,3.0081,3.0018,2.9584,2.9256,2.9114,2.9114,2.913,2.9256,2.9805,3.0417,3.1097,3.1899,3.3259,3.4349,3.4997,3.5962,3.6768,3.7005,3.7101,3.7012,3.6787,3.6082,3.5401,3.4829,3.4244,3.3394,3.2378,3.1768,3.1906,3.1562,3.111,3.092,3.0758,3.0161,2.9944,2.9743,2.8969,2.8899,2.9119,2.8695,2.8896,3.4911,3.4911,3.4911,3.4911,3.4911,3.4911,3.4911,3.4911,3.4911,3.4911,3.4911,3.4911,3.4911,3.4911,3.4911,3.4911,3.4911,3.4911,3.4513,3.3784,3.3271,3.2663,3.194,3.1184,3.0853,3.0803,3.0588,3.0489,3.0499,3.063,3.0671,3.064,3.081,3.0881,3.0751,3.0316,3.0167,2.9974,2.9173,2.8851,2.8839,2.824,2.7914,2.7964,2.7752,2.7489,2.7287,2.7271,2.7135,2.6908,2.6858,2.675,2.6477,2.6301,2.6194,2.6168,2.5952,2.5735,2.5602,2.5355,2.5149,2.5047,2.5238,2.5624,2.6298,2.7209,2.8015,2.8711,2.9378,2.9979,3.016,3.0603,3.0452,2.9678,2.9907,2.988,2.9236,2.913,2.9114,2.9161,2.9363,2.9785,3.0464,3.1334,3.2266,3.3161,3.4776,3.5695,3.6183,3.6799,3.7353,3.7195,3.7052,3.6819,3.6375,3.5611,3.5233,3.4744,3.4024,3.337,3.2799,3.2371,3.2042,3.1698,3.1508,3.1327,3.0924,3.0286,3.0028,2.996,2.9879,2.974,2.9957,3.0174,3.0161,3.4911,3.4911,3.4911,3.4911,3.4911,3.4911,3.4911,3.4911,3.4911,3.4911,3.4911,3.4911,3.4911,3.4911,3.4911,3.4911,3.4911,3.4911,3.4563,3.3933,3.3784,3.3353,3.2674,3.1956,3.1548,3.1449,3.0837,3.0506,3.0499,3.0609,3.063,3.0562,3.0743,3.0784,3.0692,3.071,3.0443,2.9988,2.988,2.9422,2.8263,2.8375,2.8203,2.7724,2.7448,2.7218,2.7023,2.7014,2.6908,2.664,2.6615,2.6468,2.6266,2.6194,2.6194,2.615,2.5844,2.5642,2.5567,2.5262,2.5084,2.5074,2.5576,2.623,2.7099,2.821,2.9205,2.9876,3.0492,3.0828,3.0208,3.0145,3.0145,3.0157,3.005,2.9753,2.9288,2.9114,2.913,2.9272,2.9769,3.0449,3.1274,3.2471,3.3735,3.492,3.5884,3.6518,3.6894,3.7179,3.7084,3.6627,3.6406,3.625,3.5636,3.4987,3.4744,3.4395,3.3614,3.29,3.2361,3.1898,3.1815,3.1589,3.1875,3.1725,3.1341,3.0761,3.0408,3.0327,3.0364,3.0215,3.0242,3.0327,3.0703,3.4911,3.4911,3.4911,3.4911,3.4911,3.4911,3.4911,3.4911,3.4911,3.4911,3.4911,3.4911,3.4911,3.4911,3.4911,3.4911,3.4911,3.4911,3.4778,3.4513,3.4049,3.3718,3.337,3.2696,3.2089,3.1548,3.0853,3.0506,3.0532,3.0547,3.0531,3.052,3.0572,3.0609,3.0568,3.0582,3.0511,3.0376,2.9872,2.9539,2.941,2.8941,2.8459,2.8124,2.7916,2.7503,2.6801,2.6908,2.6758,2.6354,2.6502,2.6485,2.6257,2.6194,2.6194,2.6176,2.6096,2.5862,2.563,2.5473,2.5269,2.5217,2.5639,2.6577,2.7652,2.862,2.9442,3.0097,3.0398,3.0239,2.9643,2.9457,2.9489,2.9442,2.9442,2.9426,2.9193,2.9161,2.9335,2.9848,3.0464,3.1337,3.2537,3.3862,3.5015,3.5902,3.6658,3.71,3.6817,3.6785,3.647,3.5884,3.5758,3.557,3.5049,3.446,3.4014,3.3651,3.299,3.241,3.1882,3.1535,3.1469,3.1522,3.1834,3.1847,3.1522,3.1137,3.0663,3.0228,2.9944,2.9947,3.0055,3.0341,3.0676,3.5065,3.5263,3.5015,3.4911,3.4911,3.4911,3.4911,3.4911,3.4911,3.4911,3.4911,3.4911,3.4911,3.4911,3.4911,3.4911,3.4911,3.4911,3.4911,3.4861,3.4452,3.4203,3.4116,3.3453,3.2713,3.199,3.125,3.0903,3.0886,3.0638,3.0489,3.0489,3.0489,3.0489,3.0489,3.0489,3.0558,3.0526,3.0077,2.9826,2.9756,2.9278,2.8794,2.8458,2.8039,2.756,2.7018,2.6843,2.6555,2.6283,2.6363,2.6354,2.6203,2.6194,2.6194,2.6176,2.6114,2.5961,2.5724,2.5565,2.5538,2.5594,2.6282,2.7241,2.8395,2.9256,3.0058,3.0145,3.0224,2.9892,2.9272,2.913,2.9114,2.913,2.9146,2.9114,2.9161,2.9588,3.0042,3.0701,3.1618,3.2787,3.3972,3.497,3.6042,3.6706,3.6959,3.7006,3.647,3.6172,3.568,3.5236,3.5029,3.4812,3.4565,3.3983,3.3309,3.281,3.2285,3.1825,3.1351,3.1127,3.1007,3.0963,3.1151,3.1165,3.088,3.0744,3.0405,2.9984,2.9659,2.9998,3.0256,3.0296,3.0537,3.5346,3.5827,3.5197,3.4911,3.4911,3.4911,3.4911,3.4911,3.4911,3.4911,3.4911,3.4911,3.4911,3.4911,3.4911,3.4911,3.4911,3.4911,3.4911,3.4911,3.4812,3.4795,3.4679,3.4016,3.3337,3.274,3.1923,3.1538,3.1432,3.0831,3.0489,3.0489,3.0489,3.0489,3.0489,3.0489,3.0489,3.0499,3.0466,3.0133,2.9616,2.9493,2.9237,2.8755,2.7996,2.7551,2.7416,2.6739,2.6248,2.6211,2.6221,2.6221,2.6194,2.6194,2.6194,2.6185,2.6016,2.5936,2.5816,2.571,2.5766,2.6354,2.7396,2.8489,2.9288,3.0267,3.0768,3.0413,3.0283,2.9892,2.9304,2.9114,2.9114,2.9114,2.9114,2.9114,2.9209,3.0251,3.0974,3.1539,3.3008,3.4604,3.5266,3.6012,3.6674,3.6959,3.6801,3.6486,3.5996,3.5507,3.5015,3.462,3.4302,3.4162,3.3932,3.3572,3.293,3.2419,3.1881,3.1414,3.0949,3.0721,3.0486,3.0446,3.0486,3.0446,3.0351,3.0215,3.0052,2.9726,2.9794,3.0228,3.0215,2.9998,3.0076,3.5495,3.5181,3.4982,3.4911,3.4911,3.4911,3.4911,3.4911,3.4911,3.4911,3.4911,3.4911,3.4911,3.4911,3.4911,3.4911,3.4911,3.4911,3.4911,3.4911,3.4911,3.4911,3.475,3.4154,3.3735,3.337,3.2288,3.1587,3.1548,3.0886,3.0506,3.0489,3.0489,3.0489,3.0489,3.0489,3.0489,3.0489,3.0489,3.0423,3.0241,3.0174,2.9884,2.9224,2.8636,2.8018,2.7463,2.6629,2.6194,2.6194,2.6194,2.6194,2.6194,2.6194,2.6211,2.6243,2.6166,2.6067,2.6003,2.6143,2.6527,2.7114,2.8275,2.9363,3.0535,3.0946,3.11,3.0831,3.0528,2.9892,2.9272,2.9114,2.9114,2.9114,2.9177,2.9193,2.943,3.0314,3.1368,3.2089,3.3907,3.5252,3.5981,3.6581,3.6959,3.6738,3.6391,3.5996,3.5347,3.4857,3.4352,3.3893,3.3577,3.3482,3.3324,3.3023,3.2599,3.2102,3.1588,3.1082,3.063,3.0252,3.0014,2.9813,3.0015,3.0066,2.9862,2.9689,2.9526,2.936,2.9292,2.9374,2.9184,2.9021,2.935,3.5462,3.533,3.5015,3.4911,3.4911,3.4911,3.4911,3.4911,3.4911,3.4911,3.4911,3.4911,3.4911,3.4911,3.4911,3.4911,3.4911,3.4911,3.4911,3.4911,3.4911,3.4911,3.4795,3.4402,3.4253,3.4087,3.2762,3.2166,3.1885,3.1046,3.0539,3.0489,3.0489,3.0489,3.0489,3.0489,3.0489,3.0489,3.0489,3.0489,3.0489,3.0489,3.0307,2.9808,2.9309,2.8593,2.7815,2.7355,2.6998,2.6709,2.6402,2.6194,2.6194,2.6194,2.6352,2.6584,2.6402,2.6372,2.6907,2.7166,2.7606,2.8426,2.9476,3.0363,3.101,3.1182,3.1147,3.0717,3.0133,2.9584,2.924,2.9114,2.9256,2.9536,2.9568,2.9678,2.9935,3.129,3.2471,3.367,3.5092,3.6246,3.644,3.6817,3.6627,3.6123,3.5616,3.511,3.4541,3.4146,3.383,3.3482,3.3293,3.3324,3.3324,3.3107,3.2588,3.2048,3.1321,3.0807,3.0425,2.9984,2.9637,2.9501,2.9596,2.9604,2.9374,2.9187,2.9037,2.8858,2.8627,2.8587,2.8587,2.86,2.8874,3.5346,3.5827,3.5152,3.4911,3.4911,3.4911,3.4911,3.4911,3.4911,3.4911,3.4911,3.4911,3.4911,3.4911,3.4911,3.4911,3.4911,3.4911,3.4911,3.4911,3.4911,3.4911,3.4894,3.4828,3.4778,3.4551,3.337,3.274,3.2243,3.1195,3.0555,3.0489,3.0489,3.0489,3.0489,3.0489,3.0489,3.0489,3.0489,3.0489,3.0489,3.0506,3.0532,3.0582,3.0139,2.9573,2.9039,2.8674,2.8409,2.7829,2.6916,2.6617,2.6526,2.6492,2.6899,2.7381,2.7214,2.7353,2.8278,2.8481,2.8831,2.9895,3.0936,3.1537,3.138,3.1207,3.0796,3.0366,2.9552,2.9225,2.9161,2.9161,2.9536,2.9959,3.0176,3.065,3.1511,3.2632,3.3909,3.5235,3.6594,3.6975,3.6676,3.6344,3.6139,3.5394,3.4936,3.4557,3.4115,3.3767,3.3561,3.3388,3.3293,3.3293,3.3309,3.3266,3.2685,3.2076,3.119,3.0613,3.0341,2.9902,2.9423,2.9215,2.9258,2.9124,2.8872,2.8695,2.8641,2.8627,2.86,2.8587,2.8587,2.8587,2.8766,3.5512,3.5114,3.4965,3.4911,3.4911,3.4911,3.4928,3.4928,3.4928,3.4977,3.4928,3.4928,3.4911,3.4911,3.4911,3.4911,3.4911,3.4911,3.4911,3.4911,3.4911,3.4911,3.4911,3.4911,3.4911,3.4563,3.3403,3.2724,3.2326,3.1327,3.0489,3.0489,3.0489,3.0489,3.0489,3.0489,3.0489,3.0489,3.0489,3.0489,3.0489,3.0506,3.0748,3.1151,3.1068,3.1019,3.0831,3.035,3.0251,3.0108,2.9052,2.8094,2.8035,2.8314,2.8661,2.881,2.8837,2.9059,2.9817,2.9959,3.0223,3.1197,3.1549,3.1725,3.1981,3.0979,3.0473,3.0066,2.9536,2.9146,2.9134,2.9643,2.9987,3.0287,3.0733,3.1697,3.3198,3.3862,3.4444,3.5472,3.6594,3.7226,3.6502,3.6281,3.5744,3.481,3.432,3.4036,3.3751,3.3435,3.3372,3.3293,3.3293,3.328,3.3253,3.3174,3.2656,3.2075,3.1277,3.0613,3.0326,2.9974,2.9556,2.9162,2.8867,2.87,2.8635,2.8587,2.8614,2.86,2.8587,2.8587,2.8587,2.8587,2.8587,3.5748,3.5429,3.5413,3.5214,3.4982,3.5263,3.5425,3.5413,3.5425,3.5413,3.533,3.5081,3.4911,3.4911,3.4911,3.4911,3.4911,3.4911,3.4911,3.4911,3.4911,3.4911,3.4911,3.4911,3.4894,3.4667,3.3403,3.2768,3.231,3.1327,3.0489,3.0489,3.0489,3.0489,3.0489,3.0489,3.0489,3.0489,3.0489,3.0489,3.0489,3.0506,3.0605,3.1002,3.1074,3.1085,3.0952,3.1068,3.1002,3.0952,3.0626,3.0023,2.94,2.9417,2.9711,3.0307,3.0059,3.0516,3.113,3.1462,3.1577,3.2057,3.2274,3.1959,3.1625,3.0708,3.016,2.9741,2.9363,2.913,2.9161,2.9769,3.0224,3.0761,3.1299,3.2566,3.4194,3.4539,3.4918,3.5916,3.6752,3.6548,3.6186,3.5838,3.5096,3.4036,3.3878,3.3625,3.3593,3.334,3.334,3.3293,3.3293,3.3266,3.3227,3.3011,3.2588,3.2047,3.1466,3.0911,3.0538,3.0158,2.9741,2.9368,2.902,2.878,2.87,2.8651,2.8587,2.8587,2.8587,2.8587,2.8587,2.8587,2.8587,3.6174,3.6174,3.6158,3.5794,3.5396,3.5909,3.6174,3.6158,3.6042,3.5909,3.5843,3.5226,3.4911,3.4911,3.4911,3.4911,3.4911,3.4911,3.4911,3.4911,3.4911,3.4911,3.4911,3.4911,3.4894,3.4729,3.3387,3.274,3.231,3.1311,3.0522,3.0489,3.0489,3.0489,3.0489,3.0489,3.0489,3.0489,3.0489,3.0489,3.0489,3.0506,3.0588,3.0843,3.1101,3.1135,3.1294,3.1466,3.1532,3.0946,3.1918,3.1868,3.1228,3.0555,3.0506,3.189,3.146,3.1868,3.2707,3.2872,3.2705,3.2526,3.2819,3.2275,3.1028,3.0388,2.9901,2.9464,2.913,2.9193,2.9299,3.0006,3.0698,3.1318,3.2038,3.3351,3.4697,3.4762,3.5252,3.6548,3.6485,3.5947,3.5394,3.4905,3.4115,3.3482,3.3372,3.3293,3.3293,3.3293,3.3293,3.3293,3.3293,3.3293,3.3253,3.2998,3.2561,3.2187,3.1637,3.1204,3.0792,3.0432,3.0051,2.9602,2.9273,2.8988,2.8732,2.8635,2.8587,2.8587,2.8587,2.8587,2.8587,2.8587,2.8587,3.692,3.692,3.6907,3.6841,3.6754,3.6887,3.692,3.682,3.6307,3.6009,3.5926,3.5247,3.4911,3.4911,3.4911,3.4911,3.4911,3.4911,3.4911,3.4911,3.4911,3.4911,3.4911,3.4911,3.4911,3.4513,3.3503,3.279,3.2359,3.1294,3.0638,3.0522,3.0489,3.0489,3.0489,3.0489,3.0489,3.0489,3.0489,3.0489,3.0489,3.0522,3.0721,3.1168,3.1576,3.1857,3.2083,3.2315,3.2448,3.2315,3.199,3.2348,3.2646,3.2713,3.2911,3.3176,3.316,3.3387,3.3967,3.3834,3.3514,3.3207,3.2828,3.198,3.0785,3.0035,2.9667,2.9396,2.924,2.9363,2.9987,3.0622,3.1302,3.201,3.2784,3.3719,3.481,3.4918,3.4889,3.6263,3.5916,3.5363,3.4841,3.4367,3.3862,3.3467,3.3356,3.3293,3.3293,3.3293,3.3293,3.3293,3.3293,3.3293,3.328,3.2958,3.2602,3.2396,3.195,3.148,3.1102,3.0777,3.0386,2.9789,2.9352,2.9051,2.8828,2.8635,2.8587,2.8587,2.8587,2.8587,2.8587,2.8587,2.8587,3.7652,3.7669,3.7669,3.7437,3.7205,3.752,3.7669,3.7566,3.6891,3.6589,3.6228,3.5446,3.4911,3.4911,3.4911,3.4911,3.4911,3.4911,3.4911,3.4911,3.4911,3.4911,3.4911,3.4911,3.4958,3.4672,3.3835,3.3022,3.2641,3.1642,3.0886,3.0539,3.0489,3.0489,3.0489,3.0489,3.0489,3.0489,3.0489,3.0489,3.0489,3.0489,3.0737,3.1035,3.1344,3.1526,3.162,3.2017,3.1901,3.1686,3.1951,3.2315,3.268,3.3077,3.3557,3.4132,3.4298,3.4248,3.4331,3.3917,3.3417,3.2506,3.2143,3.1405,3.0483,2.9847,2.9674,2.9669,2.969,2.9959,3.0654,3.1334,3.1883,3.2355,3.318,3.4225,3.4889,3.4636,3.5078,3.568,3.5173,3.4747,3.4492,3.4051,3.3688,3.3453,3.3324,3.3293,3.3293,3.3293,3.3293,3.3293,3.3293,3.3293,3.3293,3.3078,3.2807,3.2574,3.2256,3.1809,3.1394,3.1058,3.0432,2.9744,2.9399,2.9162,2.8812,2.8587,2.8587,2.8587,2.8587,2.8587,2.8587,2.8587,2.8587,3.8427,3.8427,3.8414,3.8066,3.7698,3.8149,3.8315,3.8066,3.7404,3.6953,3.6704,3.5562,3.4982,3.5098,3.5143,3.5081,3.4944,3.4911,3.4911,3.4911,3.4911,3.4911,3.4911,3.4923,3.4947,3.4866,3.4427,3.3564,3.2752,3.1901,3.1201,3.0688,3.0489,3.0489,3.0489,3.0489,3.0489,3.0489,3.0489,3.0489,3.0489,3.0489,3.0489,3.0489,3.0489,3.0572,3.0721,3.1101,3.1101,3.1079,3.1454,3.2017,3.1763,3.2155,3.3077,3.4182,3.4435,3.4116,3.3784,3.3552,3.295,3.1918,3.1659,3.0975,3.0315,3.0007,3.003,3.0172,3.0382,3.0682,3.1349,3.1915,3.2418,3.2956,3.3717,3.4557,3.5063,3.5078,3.4792,3.4903,3.446,3.4175,3.3954,3.3814,3.3467,3.3419,3.3293,3.3293,3.3293,3.3293,3.3293,3.3293,3.3293,3.3293,3.3293,3.3293,3.3065,3.2888,3.2561,3.216,3.1738,3.1321,3.0598,2.9837,2.9618,2.9352,2.894,2.8587,2.8587,2.8587,2.8587,2.8587,2.8587,2.8587,2.8587,3.9169,3.9169,3.9153,3.9116,3.9004,3.9086,3.8772,3.8133,3.7404,3.6725,3.6191,3.5413,3.5297,3.5727,3.581,3.5479,3.5114,3.4911,3.4911,3.4911,3.4982,3.4994,3.4928,3.4911,3.4973,3.4958,3.4774,3.4019,3.3056,3.2116,3.1283,3.0737,3.0555,3.0489,3.0489,3.0489,3.0489,3.0489,3.0489,3.0489,3.0489,3.0489,3.0489,3.0489,3.0489,3.0489,3.0489,3.0704,3.0605,3.0605,3.0654,3.1068,3.1482,3.1631,3.2139,3.268,3.2939,3.2923,3.284,3.2823,3.2481,3.1648,3.1499,3.1056,3.0468,3.0259,3.0304,3.0204,3.0729,3.1397,3.1994,3.2291,3.2924,3.3591,3.4286,3.5142,3.5696,3.5252,3.4982,3.4636,3.4397,3.3862,3.3467,3.3403,3.3309,3.3309,3.3293,3.3293,3.3293,3.3293,3.3293,3.3293,3.3293,3.3293,3.3293,3.3293,3.324,3.3118,3.2778,3.2408,3.1936,3.1408,3.0687,3.0082,2.982,2.9383,2.886,2.8587,2.8587,2.8587,2.8587,2.8587,2.8587,2.8587,2.8587,3.9315,3.9315,3.9315,3.9315,3.9315,3.9315,3.8888,3.8149,3.7404,3.6675,3.6059,3.5694,3.5926,3.6423,3.6241,3.5827,3.5462,3.5131,3.4911,3.511,3.528,3.5297,3.5081,3.5275,3.5391,3.5058,3.4875,3.4451,3.3455,3.2641,3.1841,3.1184,3.0737,3.0489,3.0572,3.0506,3.0489,3.0489,3.0489,3.0489,3.0489,3.0489,3.0489,3.0489,3.0489,3.0489,3.0489,3.0489,3.0489,3.0489,3.0489,3.0605,3.0886,3.0986,3.1151,3.1333,3.1443,3.1642,3.199,3.2067,3.1692,3.1217,3.0975,3.0708,3.0337,3.0422,3.0747,3.0999,3.1499,3.2146,3.2826,3.3211,3.367,3.427,3.498,3.5521,3.5965,3.541,3.5015,3.4668,3.4273,3.3719,3.3293,3.3293,3.3293,3.3293,3.3293,3.3293,3.3293,3.3293,3.3293,3.3293,3.3293,3.3293,3.3293,3.3293,3.3293,3.3145,3.2846,3.2449,3.1992,3.1422,3.0777,3.0159,2.9727,2.9257,2.8732,2.8587,2.8587,2.8587,2.8587,2.8587,2.8587,2.8587,2.8554,3.9315,3.9315,3.9315,3.9315,3.9315,3.9315,3.8888,3.8166,3.7652,3.6973,3.6489,3.646,3.6791,3.7003,3.6754,3.6555,3.6241,3.5694,3.5483,3.5661,3.5876,3.5943,3.5794,3.5938,3.5731,3.5307,3.5013,3.466,3.4135,3.3394,3.2608,3.189,3.1504,3.1052,3.082,3.0803,3.0787,3.0489,3.0489,3.0489,3.0489,3.0489,3.0489,3.0489,3.0489,3.0489,3.0489,3.0489,3.0489,3.0489,3.0489,3.0539,3.0588,3.0621,3.0621,3.0704,3.0721,3.088,3.1201,3.1267,3.1002,3.0704,3.0468,3.0504,3.0347,3.0548,3.1032,3.1602,3.2437,3.3055,3.3662,3.4189,3.4612,3.514,3.5783,3.6151,3.6265,3.5584,3.4936,3.4494,3.4083,3.3609,3.3293,3.3293,3.3293,3.3293,3.3293,3.3293,3.3293,3.3293,3.3293,3.3293,3.3293,3.3293,3.3293,3.3293,3.3293,3.3214,3.2902,3.2477,3.202,3.158,3.1058,3.0433,2.9758,2.9336,2.8924,2.8748,2.8587,2.8587,2.8587,2.8587,2.8587,2.8587,2.8571,3.9315,3.9315,3.9315,3.9315,3.9315,3.9315,3.8888,3.8215,3.8133,3.7669,3.7168,3.7603,3.7553,3.7417,3.7619,3.7503,3.7036,3.697,3.6758,3.6775,3.6973,3.6837,3.6555,3.6191,3.5959,3.5669,3.5209,3.489,3.4674,3.4073,3.3337,3.2674,3.2343,3.2039,3.1692,3.1383,3.1085,3.0754,3.0572,3.0489,3.0489,3.0489,3.0489,3.0489,3.0489,3.0489,3.0489,3.0489,3.0489,3.0489,3.0489,3.0489,3.0489,3.0489,3.0489,3.0489,3.0489,3.0605,3.0721,3.0743,3.0605,3.0522,3.0534,3.0581,3.051,3.1565,3.2036,3.2215,3.3172,3.4091,3.4604,3.4978,3.5277,3.5673,3.5992,3.5993,3.5965,3.5537,3.4918,3.4397,3.3893,3.3451,3.3293,3.3293,3.3293,3.3293,3.3293,3.3293,3.3293,3.3293,3.3293,3.3293,3.3293,3.3293,3.3293,3.3293,3.3293,3.3227,3.3025,3.2533,3.2034,3.1609,3.119,3.0493,2.9819,2.9462,2.9147,2.8924,2.8748,2.8635,2.8587,2.8587,2.8587,2.8587,2.8587,3.9315,3.9315,3.9315,3.9315,3.9315,3.9315,3.8888,3.8265,3.8199,3.8066,3.7785,3.8066,3.8298,3.8377,3.8112,3.8066,3.7719,3.7238,3.7218,3.7301,3.7437,3.7218,3.682,3.6522,3.6257,3.5512,3.5032,3.4911,3.4828,3.453,3.4447,3.395,3.3238,3.2641,3.2249,3.189,3.1449,3.1151,3.0737,3.0506,3.0489,3.0489,3.0489,3.0489,3.0489,3.0489,3.0489,3.0489,3.0489,3.0489,3.0489,3.0489,3.0489,3.0489,3.0489,3.0489,3.0489,3.0489,3.0489,3.0489,3.0489,3.0605,3.087,3.1125,3.1084,3.2229,3.2831,3.3294,3.3998,3.4935,3.5059,3.5321,3.5632,3.5977,3.6071,3.5966,3.564,3.5255,3.4799,3.4225,3.3775,3.334,3.3293,3.3293,3.3293,3.3293,3.3293,3.3293,3.3293,3.3293,3.3293,3.3293,3.3293,3.3293,3.3293,3.3293,3.3324,3.3277,3.3228,3.2891,3.2481,3.161,3.1131,3.0477,2.9988,2.968,2.9383,2.9083,2.886,2.8667,2.8603,2.8587,2.8587,2.8587,2.8587,3.9315,3.9315,3.9315,3.9315,3.9315,3.9315,3.9004,3.8593,3.856,3.8526,3.8526,3.856,3.8805,3.9037,3.8808,3.856,3.8427,3.8096,3.788,3.8013,3.8162,3.7715,3.7168,3.6709,3.6444,3.54,3.4949,3.4911,3.4911,3.4911,3.4812,3.448,3.395,3.3436,3.2862,3.2321,3.1841,3.1482,3.1168,3.0648,3.0588,3.0489,3.0489,3.0489,3.0489,3.0489,3.0489,3.0489,3.0489,3.0489,3.0489,3.0489,3.0489,3.0489,3.0489,3.0489,3.0489,3.0489,3.0506,3.0489,3.0605,3.0936,3.125,3.1615,3.2117,3.2874,3.3376,3.3571,3.4595,3.5478,3.5583,3.5977,3.6298,3.6656,3.6137,3.5911,3.5411,3.4967,3.4534,3.4064,3.3654,3.3293,3.3293,3.3293,3.3293,3.3293,3.3293,3.3293,3.3293,3.3293,3.3293,3.3293,3.3293,3.3293,3.3293,3.3561,3.383,3.3927,3.3826,3.3665,3.3157,3.2322,3.1662,3.1292,3.078,3.009,2.9587,2.9226,2.8924,2.8635,2.8603,2.8587,2.8587,2.8587,2.8587,3.9315,3.9315,3.9315,3.9315,3.9315,3.9315,3.9265,3.9166,3.9183,3.9169,3.9166,3.9183,3.9199,3.9282,3.912,3.9086,3.9103,3.9053,3.9017,3.8987,3.8937,3.8672,3.8063,3.7421,3.6787,3.5976,3.5441,3.5093,3.4923,3.4911,3.4911,3.4977,3.4696,3.4381,3.3773,3.3055,3.2348,3.173,3.1598,3.1118,3.0665,3.0572,3.0654,3.0506,3.0654,3.0704,3.0522,3.0489,3.0489,3.0489,3.0489,3.0489,3.0489,3.0489,3.0489,3.0489,3.0489,3.0506,3.0539,3.0522,3.087,3.1416,3.1747,3.2188,3.2696,3.3336,3.3892,3.4065,3.5077,3.6096,3.6508,3.6693,3.682,3.6632,3.6068,3.5511,3.4981,3.4641,3.4194,3.3911,3.3588,3.3293,3.3293,3.3293,3.3293,3.3293,3.3293,3.3309,3.3324,3.3309,3.3309,3.3403,3.3419,3.3593,3.3704,3.4067,3.432,3.4446,3.4433,3.4279,3.4113,3.3598,3.2969,3.2288,3.1674,3.1101,3.0196,2.9334,2.9001,2.8683,2.8619,2.8587,2.8587,2.8587,2.8587,3.9315,3.9315,3.9315,3.9315,3.9315,3.9315,3.9315,3.9315,3.9315,3.9315,3.9315,3.9315,3.9315,3.9315,3.9315,3.9315,3.9315,3.9315,3.9315,3.9315,3.9315,3.8821,3.8261,3.7798,3.7173,3.6315,3.5722,3.5378,3.5029,3.5096,3.4977,3.4977,3.5425,3.5197,3.4546,3.3801,3.3072,3.2381,3.1874,3.1283,3.0715,3.0952,3.1035,3.0648,3.1029,3.1019,3.0638,3.0605,3.0572,3.0506,3.0489,3.0489,3.0489,3.0489,3.0495,3.0522,3.0539,3.077,3.1052,3.1256,3.1317,3.1813,3.2453,3.2994,3.3486,3.4104,3.4419,3.4662,3.5379,3.6112,3.6228,3.6049,3.6027,3.5816,3.5327,3.4784,3.4301,3.4121,3.3834,3.3737,3.3492,3.3361,3.3322,3.334,3.334,3.3451,3.3482,3.3419,3.3403,3.334,3.3324,3.3514,3.3625,3.3862,3.413,3.4636,3.4966,3.5094,3.504,3.4888,3.4718,3.4681,3.3977,3.3186,3.2658,3.2101,3.0831,2.9708,2.9088,2.8732,2.8651,2.8587,2.8587,2.8587,2.8587,3.9315,3.9315,3.9315,3.9315,3.9315,3.9315,3.9315,3.9315,3.9315,3.9315,3.9315,3.9315,3.9315,3.9315,3.9315,3.9315,3.9315,3.9315,3.9315,3.9315,3.9315,3.8656,3.8129,3.7996,3.7276,3.6543,3.6286,3.6091,3.5585,3.5655,3.5756,3.5926,3.6121,3.6092,3.5644,3.5197,3.4684,3.4038,3.3414,3.2619,3.2089,3.1874,3.1758,3.1586,3.1625,3.1675,3.1118,3.0853,3.077,3.0638,3.0522,3.0506,3.0506,3.0506,3.0611,3.077,3.1211,3.1504,3.1857,3.2354,3.2453,3.2564,3.3375,3.3856,3.4137,3.4584,3.4762,3.506,3.5595,3.5843,3.5939,3.5712,3.5621,3.5444,3.5083,3.4554,3.4349,3.4203,3.4039,3.3889,3.362,3.3477,3.3351,3.3372,3.3403,3.3546,3.3672,3.3656,3.3672,3.3656,3.3764,3.4017,3.4225,3.4525,3.4905,3.5347,3.56,3.5726,3.5748,3.5742,3.5791,3.5803,3.4923,3.4091,3.3501,3.2655,3.1164,3.0111,2.9454,2.8928,2.8619,2.8587,2.8587,2.8587,2.8587,3.9315,3.9315,3.9315,3.9315,3.9315,3.9315,3.9315,3.9315,3.9315,3.9315,3.9315,3.9315,3.9315,3.9315,3.9315,3.9315,3.9315,3.9315,3.9216,3.9183,3.9067,3.8261,3.7914,3.7864,3.7488,3.6912,3.6651,3.6837,3.6322,3.6257,3.6555,3.6742,3.6593,3.6659,3.6638,3.6555,3.6108,3.5346,3.48,3.4071,3.3508,3.321,3.2945,3.2774,3.2757,3.2415,3.199,3.173,3.13,3.0986,3.0688,3.0588,3.0522,3.0489,3.0942,3.1515,3.215,3.2459,3.2774,3.3243,3.3574,3.3574,3.3817,3.4298,3.4613,3.4845,3.4894,3.5048,3.5413,3.5678,3.5852,3.5794,3.5749,3.5472,3.5187,3.4924,3.4784,3.4618,3.4448,3.4226,3.386,3.3645,3.3485,3.3454,3.3688,3.3941,3.4194,3.4557,3.4525,3.4397,3.4539,3.4918,3.5124,3.5331,3.5695,3.6058,3.6327,3.6483,3.6799,3.6867,3.6916,3.6701,3.5977,3.5155,3.4349,3.3317,3.2069,3.0854,2.9801,2.9323,2.8988,2.8655,2.8682,2.8614,2.8587,3.9315,3.9315,3.9315,3.9315,3.9315,3.9315,3.9315,3.9315,3.9315,3.9315,3.9315,3.9315,3.9315,3.9315,3.9315,3.9315,3.9282,3.9232,3.8904,3.8755,3.8606,3.8261,3.8099,3.8046,3.7882,3.7825,3.7696,3.7517,3.6925,3.6767,3.6373,3.6245,3.6526,3.6721,3.6986,3.7119,3.6638,3.6191,3.576,3.523,3.4894,3.4618,3.417,3.3784,3.39,3.3408,3.2713,3.2845,3.2398,3.1515,3.1807,3.1735,3.0506,3.0522,3.082,3.1565,3.2266,3.2884,3.3387,3.3685,3.4,3.4402,3.453,3.4629,3.4861,3.4911,3.4911,3.5048,3.5148,3.5346,3.5441,3.5413,3.5413,3.5247,3.5044,3.4982,3.4847,3.4739,3.4582,3.4386,3.4038,3.3858,3.3669,3.3818,3.4067,3.4365,3.4731,3.5189,3.5365,3.5221,3.5345,3.5709,3.593,3.6105,3.6342,3.6674,3.6959,3.7242,3.7416,3.751,3.7322,3.7062,3.6777,3.609,3.5034,3.4141,3.3217,3.198,3.0706,2.9929,2.9517,2.9097,2.875,2.8682,2.86,3.9315,3.9315,3.9315,3.9315,3.9315,3.9315,3.9315,3.9315,3.9315,3.9315,3.9315,3.9315,3.9315,3.9315,3.9299,3.9149,3.8821,3.8758,3.8444,3.7947,3.805,3.7901,3.7934,3.8295,3.8417,3.8472,3.8373,3.8144,3.7311,3.6596,3.6165,3.651,3.6439,3.6671,3.6986,3.7085,3.6903,3.6506,3.6125,3.576,3.5661,3.5545,3.4849,3.4568,3.4812,3.4149,3.3387,3.3735,3.311,3.2221,3.2591,3.2359,3.1526,3.1658,3.1923,3.2685,3.3276,3.3817,3.4182,3.4237,3.453,3.4762,3.4911,3.4894,3.4894,3.4911,3.4911,3.4961,3.4944,3.4944,3.4928,3.4928,3.4928,3.4928,3.4928,3.4928,3.4839,3.4751,3.4618,3.446,3.4282,3.4111,3.4077,3.4276,3.462,3.5191,3.5663,3.6042,3.617,3.6044,3.62,3.6531,3.6705,3.6848,3.7054,3.7131,3.7258,3.7384,3.7447,3.751,3.751,3.7389,3.7054,3.6384,3.5548,3.4771,3.4077,3.2926,3.1744,3.1014,3.0209,2.9561,2.9116,2.875,2.8682,3.9315,3.9315,3.9315,3.9315,3.9315,3.9315,3.9315,3.9315,3.9315,3.9315,3.9315,3.9315,3.9315,3.9282,3.9149,3.8788,3.8427,3.8199,3.7851,3.7122,3.7669,3.7735,3.7934,3.8394,3.8486,3.8556,3.8457,3.8148,3.724,3.6513,3.6319,3.6924,3.6688,3.6572,3.6522,3.6572,3.6406,3.6257,3.6009,3.5744,3.5909,3.5562,3.5032,3.4998,3.4949,3.4679,3.4132,3.3834,3.3602,3.3088,3.289,3.2956,3.2757,3.3094,3.3458,3.3806,3.4187,3.4497,3.4679,3.4712,3.4762,3.4878,3.4911,3.4911,3.4911,3.4911,3.4911,3.4911,3.4911,3.4911,3.4911,3.4911,3.4911,3.4911,3.4911,3.4911,3.4875,3.4861,3.4888,3.4791,3.4795,3.4671,3.4917,3.5133,3.5366,3.6055,3.6502,3.6832,3.6848,3.6723,3.6848,3.7131,3.7163,3.7226,3.7305,3.7353,3.7431,3.7494,3.751,3.751,3.751,3.7436,3.7331,3.6707,3.609,3.558,3.4868,3.3796,3.2926,3.2199,3.1305,3.0207,2.9613,2.9343,2.8807,3.9315,3.9315,3.9315,3.9315,3.9315,3.9315,3.9299,3.9315,3.9315,3.9282,3.9315,3.9315,3.9315,3.9265,3.8755,3.8361,3.8133,3.7553,3.7288,3.7089,3.7305,3.7553,3.7801,3.8182,3.8315,3.8328,3.8179,3.7728,3.6667,3.6136,3.5776,3.5524,3.5574,3.5661,3.5661,3.5644,3.5644,3.5694,3.5528,3.5794,3.6324,3.6555,3.6406,3.5926,3.5562,3.5214,3.4911,3.506,3.4485,3.3872,3.4187,3.374,3.2823,3.3469,3.3751,3.395,3.4518,3.4812,3.4911,3.4911,3.4911,3.4911,3.4911,3.4911,3.4911,3.4911,3.4911,3.4911,3.4911,3.4911,3.4911,3.4911,3.4911,3.4911,3.4911,3.4911,3.4911,3.5003,3.5095,3.5226,3.5284,3.5489,3.5738,3.5986,3.6264,3.6616,3.7034,3.7305,3.729,3.721,3.7163,3.7352,3.7399,3.7447,3.751,3.751,3.751,3.751,3.751,3.751,3.751,3.7465,3.7391,3.7119,3.6676,3.623,3.5718,3.4965,3.4121,3.3433,3.2456,3.1396,3.0923,3.064,2.9649,3.9315,3.9315,3.9315,3.9315,3.9249,3.8954,3.8987,3.9216,3.897,3.9004,3.9282,3.9315,3.9299,3.9199,3.8543,3.7917,3.7652,3.6953,3.6373,3.6245,3.6874,3.7023,3.7404,3.7868,3.7834,3.7801,3.7321,3.6704,3.5992,3.5574,3.5209,3.4944,3.4911,3.4911,3.4911,3.4911,3.4911,3.4944,3.4911,3.5425,3.6208,3.6125,3.5992,3.5562,3.5429,3.5214,3.5242,3.5342,3.4965,3.4518,3.4667,3.4551,3.3983,3.4182,3.4298,3.4414,3.4679,3.4911,3.4911,3.4911,3.4911,3.4911,3.4911,3.4911,3.4911,3.4911,3.4911,3.4911,3.4911,3.4911,3.4911,3.4911,3.4911,3.4911,3.4911,3.4911,3.4911,3.4949,3.5268,3.5666,3.579,3.6002,3.6256,3.6559,3.6819,3.717,3.7577,3.7462,3.7494,3.751,3.751,3.751,3.751,3.751,3.751,3.751,3.751,3.751,3.751,3.751,3.751,3.751,3.742,3.7255,3.7134,3.7027,3.6461,3.5769,3.5403,3.4842,3.3747,3.259,3.2243,3.1798,3.0779,3.9315,3.9315,3.9315,3.9232,3.9083,3.8493,3.8493,3.8838,3.846,3.856,3.9037,3.9086,3.9183,3.9037,3.8261,3.7665,3.7085,3.6522,3.576,3.5794,3.6605,3.6854,3.7073,3.7354,3.7305,3.6891,3.6324,3.6075,3.5727,3.5313,3.5044,3.4928,3.4911,3.4911,3.4911,3.4911,3.4911,3.4911,3.4911,3.4911,3.4961,3.4911,3.501,3.4994,3.4911,3.4911,3.4911,3.4911,3.4911,3.4894,3.4849,3.4778,3.4712,3.4679,3.4729,3.4812,3.4795,3.4911,3.4911,3.4911,3.4911,3.4911,3.4911,3.4911,3.4911,3.4911,3.4911,3.4911,3.4911,3.4911,3.4911,3.4911,3.4911,3.4911,3.4911,3.4911,3.4911,3.5027,3.5557,3.6075,3.6434,3.6625,3.6968,3.7243,3.7416,3.7754,3.7756,3.7611,3.7509,3.751,3.751,3.751,3.751,3.751,3.751,3.751,3.751,3.751,3.751,3.751,3.751,3.751,3.751,3.7495,3.739,3.73,3.7089,3.6523,3.6228,3.5931,3.4909,3.3773,3.3309,3.2766,3.1842,3.9315,3.9315,3.9315,3.897,3.8477,3.8232,3.795,3.7649,3.8033,3.8298,3.8348,3.846,3.8676,3.9166,3.7168,3.6506,3.687,3.6224,3.6042,3.6059,3.6539,3.6787,3.682,3.6738,3.6738,3.6224,3.5578,3.5226,3.5313,3.5077,3.4911,3.4911,3.4911,3.4911,3.4911,3.4911,3.4911,3.4911,3.4911,3.4911,3.4911,3.4911,3.4911,3.4911,3.4911,3.4911,3.4911,3.4911,3.4911,3.4911,3.4911,3.4911,3.4911,3.4911,3.4911,3.4911,3.4911,3.4911,3.4911,3.4911,3.4911,3.4911,3.4911,3.4911,3.4911,3.4911,3.4911,3.4911,3.4911,3.4911,3.4911,3.4911,3.4911,3.4911,3.4911,3.4911,3.4911,3.5413,3.6009,3.6675,3.7299,3.7679,3.8177,3.8214,3.8005,3.8159,3.79,3.7727,3.7509,3.751,3.751,3.751,3.751,3.751,3.751,3.751,3.751,3.751,3.751,3.751,3.751,3.751,3.751,3.751,3.751,3.7435,3.721,3.6968,3.6831,3.6446,3.5738,3.4944,3.44,3.3672,3.2676]},{"header":{"parameterUnit":"m.s-1","parameterCategory":1,"la1":31.0,"la2":29.5877,"lo1":-88.7671,"lo2":-86.6584,"dy":0.0162,"dx":0.0185,"nx":115,"ny":88,"refTime":"2024-06-11T18:00:00:Z","depth":0,"parameterNumber":3,"parameterNumberName":"V-component_of_WINDS"},"data":[0.0,0.0,0.0,0.0,0.0,0.0,0.0,0.0,0.0,0.0,0.0,0.0,0.0,0.0,0.0,0.0,0.0,0.0,0.0,0.0,0.0,0.0,0.0,0.0,0.0,0.0,0.0,0.0,0.0,0.0,0.0,0.0,0.0,0.0,0.0,0.0,0.0,0.0,0.0,0.0,0.0,0.0,0.0,0.0,0.0,0.0,0.0,0.0,0.0,0.0,0.0,0.0,0.0,0.0,0.0,0.0,0.0,0.0,0.0,0.0,0.0,0.0,0.0,0.0,0.0,0.0,0.0,0.0,0.0,0.0,0.0,0.0,0.0,0.0,0.0,0.0,0.0,0.0,0.0,0.0,0.0,0.0,0.0,0.0,0.0,0.0,0.0,0.0,0.0,0.0,0.0,0.0,0.0,0.0,0.0,0.0,0.0,0.0,0.0,0.0,0.0,0.0,0.0,0.0,0.0,0.0,0.0,0.0,0.0,0.0,0.0,0.0,0.0,0.0,0.0,0.0,0.0,0.0,0.0,0.0,0.0,0.0,0.0,0.0,0.0,0.0,0.0,0.0,0.0,0.0,0.0,0.0,0.0,0.0,0.0,0.0,0.0,0.0,0.0,0.0,0.0,0.0,0.0,0.0,0.0,0.0,0.0,0.0,0.0,0.0,0.0,0.0,0.0,0.0,0.0,0.0,0.0,0.0,0.0,0.0,0.0,0.0,0.0,0.0,0.0,0.0,0.0,0.0,0.0,0.0,0.0,0.0,0.0,0.0,0.0,0.0,0.0,0.0,0.0,0.0,0.0,0.0,0.0,0.0,0.0,0.0,0.0,0.0,0.0,0.0,0.0,0.0,0.0,0.0,0.0,0.0,0.0,0.0,0.0,0.0,0.0,0.0,0.0,0.0,0.0,0.0,0.0,0.0,0.0,0.0,0.0,0.0,0.0,0.0,0.0,0.0,0.0,0.0,0.0,0.0,0.0,0.0,0.0,0.0,0.0,0.0,0.0,0.0,0.0,0.0,0.0,0.0,0.0,0.0,0.0,0.0,0.0,0.0,0.0,0.0,0.0,0.0,0.0,0.0,0.0,0.0,0.0,0.0,0.0,0.0,0.0,0.0,0.0,0.0,0.0,0.0,0.0,0.0,0.0,0.0,0.0,0.0,0.0,0.0,0.0,0.0,0.0,0.0,0.0,0.0,0.0,0.0,0.0,0.0,0.0,0.0,0.0,0.0,0.0,0.0,0.0,0.0,0.0,0.0,0.0,0.0,0.0,0.0,0.0,0.0,0.0,0.0,0.0,0.0,0.0,0.0,0.0,0.0,0.0,0.0,0.0,0.0,0.0,0.0,0.0,0.0,0.0,0.0,0.0,0.0,0.0,0.0,0.0,0.0,0.0,0.0,0.0,0.0,0.0,0.0,0.0,0.0,0.0,0.0,0.0,0.0,0.0,0.0,0.0,0.0,0.0,0.0,0.0,0.0,0.0,0.0,0.0,0.0,0.0,0.0,0.0,0.0,0.0,0.0,0.0,0.0,0.0,0.0,0.0,0.0,0.0,0.0,0.0,0.0,0.0,0.0,0.0,0.0,0.0,0.0,0.0,0.0,0.0,0.0,0.0,0.0,0.0,0.0,0.0,0.0,0.0,0.0,0.0,0.0,0.0,0.0,0.0,0.0,0.0,0.0,0.0,0.0,0.0,0.0,0.0,0.0,0.0,0.0,0.0,0.0,0.0,0.0,0.0,0.0,0.0,0.0,0.0,0.0,0.0,0.0,0.0,0.0,0.0,0.0,0.0,0.0,0.0,0.0,0.0,0.0,0.0,0.0,0.0,0.0,0.0,0.0,0.0,0.0,0.0,0.0,0.0,0.0,0.0,0.0,0.0,0.0,0.0,0.0,0.0,0.0,0.0,0.0,0.0,0.0,0.0,0.0,0.0,0.0,0.0,0.0,0.0,0.0,0.0,0.0,0.0,0.0,0.0,0.0,0.0,0.0,0.0,0.0,0.0,0.0,0.0,0.0,0.0,0.0,0.0,0.0,0.0,0.0,0.0,0.0,0.0,0.0,0.0,0.0,0.0,0.0,0.0,0.0,0.0,0.0,0.0,0.0,0.0,0.0,0.0,0.0,0.0,0.0,0.0,0.0,0.0,0.0,0.0,0.0,0.0,0.0,0.0,0.0,0.0,0.0,0.0,0.0,0.0,0.0,0.0,0.0,0.0,0.0,0.0,0.0,0.0,0.0,0.0,0.0,0.0,0.0,0.0,0.0,0.0,0.0,0.0,0.0,0.0,0.0,0.0,0.0,0.0,0.0,0.0,0.0,0.0,0.0,0.0,0.0,0.0,0.0,0.0,0.0,0.0,0.0,0.0,0.0,0.0,0.0,0.0,0.0,0.0,0.0,0.0,0.0,0.0,0.0,0.0,0.0,0.0,0.0,0.0,0.0,0.0,0.0,0.0,0.0,0.0,0.0,0.0,0.0,0.0,0.0,0.0,0.0,0.0,0.0,0.0,0.0,0.0,0.0,0.0,0.0,0.0,0.0,0.0,0.0,0.0,0.0,0.0,0.0,0.0,0.0,0.0,0.0,0.0,0.0,0.0,0.0,0.0,0.0,0.0,0.0,0.0,0.0,0.0,0.0,0.0,0.0,0.0,0.0,0.0,0.0,0.0,0.0,0.0,0.0,0.0,0.0,0.0,0.0,0.0,0.0,0.0,0.0,0.0,0.0,0.0,0.0,0.0,0.0,0.0,0.0,0.0,0.0,0.0,0.0,0.0,0.0,0.0,0.0,0.0,0.0,0.0,0.0,0.0,0.0,0.0,0.0,0.0,0.0,0.0,0.0,0.0,0.0,0.0,0.0,0.0,0.0,0.0,0.0,0.0,0.0,0.0,0.0,0.0,0.0,0.0,0.0,0.0,0.0,0.0,0.0,0.0,0.0,0.0,0.0,0.0,0.0,0.0,0.0,0.0,0.0,0.0,0.0,0.0,0.0,0.0,0.0,0.0,0.0,0.0,0.0,0.0,0.0,0.0,0.0,0.0,0.0,0.0,0.0,0.0,0.0,0.0,0.0,0.0,0.0,0.0,0.0,0.0,0.0,0.0,0.0,0.0,0.0,0.0,0.0,0.0,0.0,0.0,0.0,0.0,0.0,0.0,0.0,0.0,0.0,0.0,0.0,0.0,0.0,0.0,0.0,0.0,0.0,0.0,0.0,0.0,0.0,0.0,0.0,0.0,0.0,0.0,0.0,0.0,0.0,0.0,0.0,0.0,0.0,0.0,0.0,0.0,0.0,0.0,0.0,0.0,0.0,0.0,0.0,0.0,0.0,0.0,0.0,0.0,0.0,0.0,0.0,0.0,0.0,0.0,0.0,0.0,0.0,0.0,0.0,0.0,0.0,0.0,0.0,0.0,0.0,0.0,0.0,0.0,0.0,0.0,0.0,0.0,0.0,0.0,0.0,0.0,0.0,0.0,0.0,0.0,0.0,0.0,0.0,0.0,0.0,0.0,0.0,0.0,0.0,0.0,0.0,0.0,0.0,0.0,0.0,0.0,0.0,0.0,0.0,0.0,0.0,0.0,0.0,0.0,0.0,0.0,0.0,0.0,0.0,0.0,0.0,0.0,0.0,0.0,0.0,0.0,0.0,0.0,0.0,0.0,0.0,0.0,0.0,0.0,0.0,0.0,0.0,0.0,0.0,0.0,0.0,0.0,0.0,0.0,0.0,0.0,0.0,0.0,0.0,0.0,0.0,0.0,0.0,0.0,0.0,0.0,0.0,0.0,0.0,0.0,0.0,0.0,0.0,0.0,0.0,0.0,0.0,0.0,0.0,0.0,0.0,0.0,0.0,0.0,0.0,0.0,0.0,0.0,0.0,0.0,0.0,0.0,0.0,0.0,0.0,0.0,0.0,0.0,0.0,0.0,0.0,0.0,0.0,0.0,0.0,0.0,0.0,0.0,0.0,0.0,0.0,0.0,0.0,0.0,0.0,0.0,0.0,0.0,0.0,0.0,0.0,0.0,0.0,0.0,0.0,0.0,0.0,0.0,0.0,0.0,0.0,0.0,0.0,0.0,0.0,0.0,0.0,0.0,0.0,0.0,0.0,0.0,0.0,0.0,0.0,0.0,0.0,0.0,0.0,0.0,0.0,0.0,0.0,0.0,0.0,0.0,0.0,0.0,0.0,0.0,0.0,0.0,0.0,0.0,0.0,0.0,0.0,0.0,0.0,0.0,0.0,0.0,0.0,0.0,0.0,0.0,0.0,0.0,0.0,0.4976,0.0,0.0,0.0,0.0,0.0,0.0,0.0,0.0,0.0,0.0,0.0,0.0,0.0,0.0,0.0,0.0,0.0,0.0,0.0,0.0,0.0,0.0,0.0,0.0,0.0,0.0,0.0,0.0,0.0,0.0,0.0,0.0,0.0,0.0,0.0,0.0,0.0,0.0,0.0,0.0,0.0,0.0,0.0,0.0,0.0,0.0,0.0,0.0,0.0,0.0,0.0,0.0,0.0,0.0,0.0,0.0,0.0,0.0,0.0,0.0,0.0,0.0,0.0,0.0,0.0,0.0,0.0,0.0,0.0,0.0,0.0,0.0,0.0,0.0,0.0,0.0,0.0,0.0,0.0,0.0,0.0,0.0,0.0,0.0,0.0,0.0,0.0,0.0,0.0,0.0,0.0,0.0,0.0,0.0,0.0,0.0,0.0,0.0,0.0,0.0,0.0,0.0,0.0,0.0,0.0,0.0,0.0,0.0,0.0,0.0,0.4304,0.4304,0.4401,0.457,0.4786,0.0,0.0,0.0,0.0,0.0,0.0,0.0,0.0,0.0,0.0,0.0,0.0,0.0,0.0,0.0,0.0,0.0,0.0,0.0,0.0,0.0,0.0,0.0,0.0,0.0,0.0,0.0,0.0,0.0,0.0,0.0,0.0,0.0,0.0,0.0,0.0,0.0,0.0,0.0,0.0,0.0,0.0,0.0,0.0,0.0,0.0,0.0,0.0,0.0,0.0,0.0,0.0,0.0,0.0,0.0,0.0,0.0,0.0,0.0,0.0,0.0,0.0,0.0,0.0,0.0,0.0,0.0,0.0,0.0,0.0,0.0,0.0,0.0,0.0,0.0,0.0,0.0,0.0,0.0,0.0,0.0,0.0,0.0,0.0,0.0,0.0,0.0,0.0,0.0,0.0,0.0,0.0,0.0,0.0,0.0,0.0,0.0,0.0,0.0,0.0,0.0,0.0,0.0,0.0,0.0,0.0,0.0,0.0,0.0,0.0,0.0,0.0,0.4618,0.4768,0.4937,0.0,0.0,0.0,0.0,0.0,0.0,0.0,0.0,0.0,0.0,0.0,0.0,0.0,0.0,0.0,0.0,0.0,0.0,0.0,0.0,0.0,0.0,0.0,0.0,0.0,0.0,0.0,0.0,0.0,0.0,0.0,0.0,0.0,0.0,0.0,0.0,0.0,0.0,0.0,0.0,0.0,0.0,0.0,0.0,0.0,0.0,0.0,0.0,0.0,0.0,0.0,0.0,0.0,0.0,0.0,0.0,0.0,0.0,0.0,0.0,0.0,0.0,0.0,0.0,0.0,0.0,0.0,0.0,0.0,0.0,0.0,0.0,0.0,0.0,0.0,0.0,0.0,0.0,0.0,0.0,0.0,0.0,0.0,0.0,0.0,0.0,0.0,0.0,0.0,0.0,0.0,0.0,0.0,0.0,0.0,0.0,0.0,0.0,0.0,0.0,0.0,0.0,0.0,0.0,0.0,0.0,0.0,0.0,0.0,0.0,0.4495,0.492,0.4959,0.0,0.589,0.0,0.0,0.0,0.0,0.0,0.0,0.0,0.0,0.0,0.0,0.0,0.0,0.0,0.0,0.0,0.0,0.0,0.0,0.0,0.0,0.0,0.0,0.0,0.0,0.0,0.0,0.0,0.0,0.0,0.0,0.0,0.0,0.0,0.0,0.0,0.0,0.0,0.0,0.0,0.0,0.0,0.0,0.0,0.0,0.0,0.0,0.0,0.0,0.0,0.0,0.0,0.0,0.0,0.0,0.0,0.0,0.0,0.0,0.0,0.0,0.0,0.0,0.0,0.0,0.0,0.0,0.0,0.0,0.0,0.0,0.0,0.0,0.0,0.0,0.0,0.0,0.0,0.0,0.0,0.0,0.0,0.0,0.0,0.0,0.0,0.0,0.0,0.0,0.0,0.0,0.0,0.0,0.0,0.0,0.0,0.0,0.0,0.0,0.0,0.0,0.0,0.0,0.0,0.0,0.0,0.0,0.0,0.0,0.0,0.0,0.0,0.5165,0.518,0.5525,0.0,0.0,0.0,0.0,0.0,0.0,0.0,0.0,0.0,0.0,0.0,0.0,0.0,0.0,0.0,0.0,0.0,0.0,0.0,0.0,0.0,0.0,0.0,0.0,0.0,0.0,0.0,0.0,0.0,0.0,0.0,0.0,0.0,0.0,0.0,0.0,0.0,0.0,0.0,0.0,0.0,0.0,0.0,0.0,0.0,0.0,0.0,0.0,0.0,0.0,0.0,0.0,0.0,0.0,0.0,0.0,0.0,0.0,0.0,0.0,0.0,0.0,0.0,0.0,0.0,0.0,0.0,0.0,0.0,0.0,0.0,0.0,0.0,0.0,0.0,0.0,0.0,0.0,0.0,0.0,0.0,0.0,0.0,0.0,0.0,0.0,0.0,0.0,0.0,0.0,0.0,0.0,0.0,0.0,0.0,0.0,0.0,0.0,0.0,0.0,0.0,0.0,0.0,0.0,0.0,0.0,0.0,0.0,0.0,0.0,0.52,0.0,0.5667,0.5786,0.5968,0.6183,0.0,0.0,0.0,0.0,0.0,0.0,0.0,0.0,0.0,0.0,0.0,0.0,0.0,0.0,0.0,0.0,0.0,0.0,0.0,0.0,0.0,0.0,0.0,0.0,0.0,0.0,0.0,0.0,0.0,0.0,0.0,0.0,0.0,0.0,0.0,0.0,0.0,0.0,0.0,0.0,0.0,0.0,0.0,0.0,0.0,0.0,0.0,0.0,0.0,0.0,0.0,0.0,0.0,0.0,0.0,0.0,0.0,0.0,0.0,0.0,0.0,0.0,0.0,0.0,0.0,0.0,0.0,0.0,0.0,0.0,0.0,0.0,0.0,0.0,0.0,0.0,0.0,0.0,0.0,0.0,0.0,0.0,0.0,0.0,0.0,0.0,0.0,0.0,0.0,0.0,0.0,0.0,0.0,0.0,0.0,0.0,0.0,0.0,0.0,0.0,0.0,0.0,0.0,0.0,0.0,0.0,0.0,0.0,0.0,0.603,0.6166,0.6605,0.7012,0.6731,0.0,0.0,0.0,0.0,0.0,0.0,0.0,0.0,0.0,0.0,0.0,0.0,0.0,0.0,0.0,0.0,0.0,0.0,0.0,0.0,0.0,0.0,0.0,0.0,0.0,0.0,0.0,0.0,0.0,0.0,0.0,0.0,0.0,0.0,0.0,0.0,0.0,0.0,0.0,0.0,0.0,0.0,0.0,0.0,0.0,0.0,0.0,0.0,0.0,0.0,0.0,0.0,0.0,0.0,0.0,0.0,0.0,0.0,0.0,0.0,0.0,0.0,0.0,0.0,0.0,0.0,0.0,0.0,0.0,0.0,0.0,0.0,0.0,0.0,0.0,0.0,0.0,0.0,0.0,0.0,0.0,0.0,0.0,0.0,0.0,0.0,0.0,0.0,0.0,0.0,0.0,0.0,0.0,0.0,0.0,0.0,0.0,0.0,0.0,0.0,0.0,0.0,0.0,0.0,0.0,0.0,0.0,0.0,0.0,0.543,0.5508,0.6125,0.7255,0.6648,0.6431,0.0,0.0,0.0,0.0,0.0,0.0,0.0,0.0,0.0,0.0,0.0,0.0,0.0,0.0,0.0,0.0,0.0,0.0,0.0,0.0,0.0,0.0,0.0,0.0,0.0,0.0,0.0,0.0,0.0,0.0,0.0,0.0,0.0,0.0,0.0,0.0,0.0,0.0,0.0,0.0,0.0,0.0,0.0,0.0,0.0,0.0,0.0,0.0,0.0,0.0,0.0,0.0,0.0,0.0,0.0,0.0,0.0,0.0,0.0,0.0,0.0,0.0,0.0,0.0,0.0,0.0,0.0,0.0,0.0,0.0,0.0,0.0,0.0,0.0,0.0,0.0,0.0,0.0,0.0,0.0,0.0,0.0,0.0,0.0,0.0,0.0,0.0,0.0,0.0,0.0,0.0,0.0,0.0,0.0,0.0,0.0,0.0,0.0,0.0,0.0,0.0,0.0,0.0,0.0,0.0,0.0,0.0,0.0,0.0,0.5716,0.0,0.6677,0.0,0.6823,0.6469,0.0,0.0,0.0,0.0,0.0,0.0,0.0,0.0,0.0,0.0,0.0,0.0,0.0,0.0,0.0,0.0,0.0,0.0,0.0,0.0,0.0,0.0,0.0,0.0,0.0,0.0,0.0,0.0,0.0,0.0,0.0,0.0,0.0,0.0,0.0,0.0,0.0,0.0,0.0,0.0,0.0,0.0,0.0,0.0,0.0,0.0,0.0,0.0,0.0,0.0,0.0,0.0,0.0,0.0,0.0,0.0,0.0,0.0,0.0,0.0,0.0,0.0,0.0,0.0,0.0,0.0,0.0,0.0,0.0,0.0,0.0,0.0,0.0,0.0,0.0,0.0,0.0,0.0,0.0,0.0,0.0,0.0,0.0,0.0,0.0,0.0,0.0,0.0,0.0,0.0,0.0,0.0,0.0,0.0,0.0,0.0,0.0,0.0,0.0,0.0,0.0,0.0,0.0,0.0,0.0,0.0,0.0,0.0,0.5476,0.7172,0.767,0.7788,0.771,0.7613,0.6917,0.0,0.0,0.0,0.0,0.0,0.0,0.0,0.0,0.0,0.0,0.0,0.0,0.0,0.0,0.0,0.0,0.0,0.0,0.0,0.0,0.0,0.0,0.0,0.0,0.0,0.0,0.0,0.0,0.0,0.0,0.0,0.0,0.0,0.0,0.0,0.0,0.0,0.0,0.0,0.0,0.0,0.0,0.0,0.0,0.0,0.0,0.0,0.0,0.0,0.0,0.0,0.0,0.0,0.0,0.0,0.0,0.0,0.0,0.0,0.0,0.0,0.0,0.0,0.0,0.0,0.0,0.0,0.0,0.0,0.0,0.0,0.0,0.0,0.0,0.0,0.0,0.0,0.0,0.0,0.0,0.0,0.0,0.0,0.0,0.0,0.0,0.0,0.0,0.0,0.0,0.0,0.0,0.0,0.0,0.0,0.0,0.0,0.0,0.0,0.0,0.0,0.0,0.0,0.0,0.0,0.0,0.0,0.0,0.0,0.6117,0.6682,0.7341,0.8042,0.7024,0.6554,0.0,0.0,0.0,0.0,0.0,0.0,0.0,0.0,0.0,0.0,0.0,0.0,0.0,0.0,0.0,0.0,0.0,0.0,0.0,0.0,0.0,0.0,0.0,0.0,0.0,0.0,0.0,0.0,0.0,0.0,0.0,0.0,0.0,0.0,0.0,0.0,0.0,0.0,0.0,0.0,0.0,0.0,0.0,0.0,0.0,0.0,0.0,0.0,0.0,0.0,0.0,0.0,0.0,0.0,0.0,0.0,0.0,0.0,0.0,0.0,0.0,0.0,0.0,0.0,0.0,0.0,0.0,0.0,0.0,0.0,0.0,0.0,0.0,0.0,0.0,0.0,0.0,0.0,0.0,0.0,0.0,0.0,0.0,0.0,0.0,0.0,0.0,0.0,0.0,0.0,0.0,0.0,0.0,0.0,0.0,0.0,0.0,0.0,0.0,0.0,0.0,0.0,0.0,0.0,0.0,0.0,0.0,0.0,0.0,0.6396,0.6924,0.7596,0.844,0.7357,0.691,0.7224,0.0,0.0,0.0,0.0,0.0,0.0,0.0,0.0,0.0,0.0,0.0,0.0,0.0,0.0,0.0,0.0,0.0,0.0,0.0,0.0,0.0,0.0,0.0,0.0,0.0,0.0,0.0,0.0,0.0,0.0,0.0,0.0,0.0,0.0,0.0,0.0,0.0,0.0,0.0,0.0,0.0,0.0,0.0,0.0,0.0,0.0,0.0,0.0,0.0,0.0,0.0,0.0,0.0,0.0,0.0,0.0,0.0,0.0,0.0,0.0,0.0,0.0,0.0,0.0,0.0,0.0,0.0,0.0,0.0,0.0,0.0,0.0,0.0,0.0,0.0,0.0,0.0,0.0,0.0,0.0,0.0,0.0,0.0,0.0,0.0,0.0,0.0,0.0,0.0,0.0,0.0,0.0,0.0,0.0,0.0,0.0,0.0,0.0,0.0,0.0,0.0,0.0,0.0,0.0,0.0,0.0,0.0,0.0,0.7682,0.814,0.8504,0.8753,0.8374,0.7814,0.0,0.0,0.0,0.0,0.0,0.0,0.0,0.0,0.0,0.0,0.0,0.0,0.0,0.0,0.0,0.0,0.0,0.0,0.0,0.0,0.0,0.0,0.0,0.0,0.0,0.0,0.0,0.0,0.0,0.0,0.0,0.0,0.0,0.0,0.0,0.0,0.0,0.0,0.0,0.0,0.0,0.0,0.0,0.0,0.0,0.0,0.0,0.0,0.0,0.0,0.0,0.0,0.0,0.0,0.0,0.0,0.0,0.0,0.0,0.0,0.0,0.0,0.0,0.0,0.0,0.0,0.0,0.0,0.0,0.0,0.0,0.0,0.0,0.0,0.0,0.0,0.0,0.0,0.0,0.0,0.0,0.0,0.0,0.0,0.0,0.0,0.0,0.0,0.0,0.0,0.0,0.0,0.0,0.0,0.0,0.0,0.0,0.0,0.0,0.0,0.0,0.0,0.0,0.0,0.0,0.0,0.0,0.0,0.0,0.766,0.8159,0.8783,0.96,0.8464,0.7813,0.0,0.0,0.0,0.0,0.0,0.0,0.0,0.0,0.0,0.0,0.0,0.0,0.0,0.0,0.0,0.0,0.0,0.0,0.0,0.0,0.0,0.0,0.0,0.0,0.0,0.0,0.0,0.0,0.0,0.0,0.0,0.0,0.0,0.0,0.0,0.0,0.0,0.0,0.0,0.0,0.0,0.0,0.0,0.0,0.0,0.0,0.0,0.0,0.0,0.0,0.0,0.0,0.0,0.0,0.0,0.0,0.0,0.0,0.0,0.0,0.0,0.0,0.0,0.0,0.0,0.0,0.0,0.0,0.0,0.0,0.0,0.0,0.0,0.0,0.0,0.0,0.0,0.0,0.0,0.0,0.0,0.0,0.0,0.0,0.0,0.0,0.0,0.0,0.0,0.0,0.0,0.0,0.0,0.0,0.0,0.0,0.0,0.0,0.0,0.0,0.0,0.0,0.0,0.0,0.0,0.0,0.0,0.0,0.7083,0.8233,0.8507,0.9093,0.9994,0.8917,0.8349,0.0,0.0,0.0,0.0,0.0,0.0,0.0,0.0,0.0,0.0,0.0,0.0,0.0,0.0,0.0,0.0,0.0,0.0,0.0,0.0,0.0,0.0,0.0,0.0,0.0,0.0,0.0,0.0,0.0,0.0,0.0,0.0,0.0,0.0,0.0,0.0,0.0,0.0,0.0,0.0,0.0,0.0,0.0,0.0,0.0,0.0,0.0,0.0,0.0,0.0,0.0,0.0,0.0,0.0,0.0,0.0,0.0,0.0,0.0,0.0,0.0,0.0,0.0,0.0,0.0,0.0,0.0,0.0,0.0,0.0,0.0,0.0,0.0,0.0,0.0,0.0,0.0,0.0,0.0,0.0,0.0,0.0,0.0,0.0,0.0,0.0,0.0,0.0,0.0,0.0,0.0,0.0,0.0,0.0,0.0,0.0,0.0,0.0,0.0,0.0,0.0,0.0,0.0,0.0,0.0,0.0,0.0,0.0,0.7823,0.8927,0.8995,0.9323,0.9906,0.9499,0.9111,0.0,0.0,0.0,0.0,0.0,0.0,0.0,0.0,0.0,0.0,0.0,0.0,0.0,0.0,0.0,0.0,0.0,0.0,0.0,0.0,0.0,0.0,0.0,0.0,0.0,0.0,0.0,0.0,0.0,0.0,0.0,0.0,0.0,0.0,0.0,0.0,0.0,0.0,0.0,0.0,0.0,0.0,0.0,0.0,0.0,0.0,0.0,0.0,0.0,0.0,0.0,0.0,0.0,0.0,0.0,0.0,0.0,0.0,0.0,0.0,0.0,0.0,0.0,0.0,0.0,0.0,0.0,0.0,0.0,0.0,0.0,0.0,0.0,0.0,0.0,0.0,0.0,0.0,0.0,0.0,0.0,0.0,0.0,0.0,0.0,0.0,0.0,0.0,0.0,0.0,0.0,0.0,0.0,0.0,0.0,0.0,0.0,0.0,0.0,0.0,0.0,0.0,0.0,0.0,0.0,0.0,0.0,0.0,0.8114,0.865,0.8898,0.9224,0.9679,0.958,0.9325,0.0,0.0,0.0,0.0,0.0,0.0,0.0,0.0,0.0,0.0,0.0,0.0,0.0,0.0,0.0,0.0,0.0,0.0,0.0,0.0,0.0,0.0,0.0,0.0,0.0,0.0,0.0,0.0,0.0,0.0,0.0,0.0,0.0,0.0,0.0,0.0,0.0,0.0,0.0,0.0,0.0,0.0,0.0,0.0,0.0,0.0,0.0,0.0,1.0659,0.0,0.0,0.0,0.0,0.0,0.0,0.0,0.0,0.0,0.0,0.0,0.0,0.0,0.0,0.0,0.0,0.0,0.0,0.0,0.0,0.0,0.0,0.0,0.0,0.0,0.0,0.0,0.0,0.0,0.0,0.0,0.0,0.0,0.0,0.0,0.0,0.0,0.0,0.0,0.0,0.0,0.0,0.0,0.0,0.0,0.0,0.0,0.0,0.0,0.0,0.0,0.0,0.0,0.0,0.0,0.0,0.0,0.0,0.0,0.8524,0.9054,0.9029,0.9185,0.9581,0.9723,0.9524,0.0,0.0,0.0,0.0,0.0,0.0,0.0,0.0,0.0,0.0,0.0,0.0,0.0,0.0,0.0,0.0,0.0,0.0,0.0,0.0,0.0,0.0,0.0,0.0,0.0,0.0,0.0,0.0,0.0,0.0,0.0,0.0,0.0,0.0,0.0,0.0,0.0,0.0,0.0,0.0,0.0,0.0,0.0,0.0,0.0,0.0,0.0,0.0,0.0,0.0,0.0,0.0,0.0,0.0,0.0,0.0,0.0,0.0,0.0,0.0,0.0,0.0,0.0,0.0,0.0,0.0,0.0,0.0,0.0,0.0,0.0,0.0,0.0,0.0,0.0,0.0,0.0,0.0,0.0,0.0,0.0,0.0,0.0,0.0,0.0,0.0,0.0,0.0,0.0,0.0,0.0,0.0,0.0,0.0,0.0,0.0,0.0,0.0,0.0,0.0,0.0,0.0,0.0,0.0,0.0,0.0,0.0,0.8116,0.8871,0.9547,0.9256,0.9277,0.9653,0.9888,0.97,0.9035,0.0,0.0,0.0,0.0,0.0,0.0,0.0,0.0,0.0,0.0,0.0,0.0,0.0,0.0,0.0,0.0,0.0,0.0,0.0,0.0,0.0,0.0,0.0,0.0,0.0,0.0,0.0,0.0,0.0,0.0,0.0,0.0,0.0,0.0,0.0,0.0,0.0,0.0,0.8756,0.9703,0.0,0.0,0.0,0.0,0.0,0.0,0.0,0.0,1.143,0.0,0.0,0.0,0.0,0.0,0.0,0.0,0.0,0.0,0.0,0.0,0.0,0.0,0.0,0.0,0.0,0.0,0.0,0.0,0.0,0.0,0.0,0.0,0.0,0.0,0.0,0.0,0.0,0.0,0.0,0.0,0.0,0.0,0.0,0.0,0.0,0.0,0.0,0.0,0.0,0.0,0.0,0.0,0.0,0.0,0.0,0.0,0.0,0.0,0.0,0.0,0.0,0.0,0.0,0.0,0.0,0.7628,0.8253,0.8914,0.9581,0.9536,0.9634,0.9927,0.9973,0.9713,0.9113,0.0,0.0,0.0,0.0,0.0,0.0,0.0,0.0,0.0,0.0,0.0,0.0,0.0,0.0,0.0,0.0,0.0,0.0,0.0,0.0,0.0,0.0,0.0,0.0,0.0,0.0,0.0,0.0,0.0,0.0,0.0,0.0,0.0,0.0,0.0,0.0,0.0,0.0,0.0,1.0478,1.0789,0.0,0.0,0.0,0.0,0.0,0.0,0.0,0.0,1.2401,0.0,0.0,0.0,0.0,0.0,0.0,0.0,0.0,0.0,0.0,0.0,0.0,0.0,0.0,0.0,0.0,0.0,0.0,0.0,0.0,0.0,0.0,0.0,0.0,0.0,0.0,0.0,0.0,0.0,0.0,0.0,0.0,0.0,0.0,0.0,0.0,0.0,0.0,0.0,0.0,0.0,0.0,0.0,0.0,0.0,0.0,0.0,0.0,0.0,0.0,0.0,0.0,0.0,0.0,0.0,0.754,0.8574,0.9281,0.9594,0.9614,0.9666,0.9769,0.9674,0.9434,0.0,0.0,0.0,0.0,0.0,0.0,0.0,0.0,0.0,0.0,0.0,0.0,0.0,0.0,0.0,0.0,0.0,0.0,0.0,0.0,0.0,0.0,0.0,0.0,0.0,0.0,0.0,0.0,0.0,0.0,0.0,0.0,0.0,0.0,0.0,0.0,0.0,0.0,0.0,0.0,1.0781,1.0973,1.1184,0.0,0.0,0.0,0.0,0.0,0.0,1.2392,1.2484,0.0,0.0,0.0,0.0,0.0,0.0,0.0,0.0,0.0,0.0,0.0,0.0,0.0,0.0,0.0,0.0,0.0,0.0,0.0,0.0,0.0,0.0,0.0,0.0,0.0,0.0,0.0,0.0,0.0,0.0,0.0,0.0,0.0,0.0,0.0,0.0,0.0,0.0,0.0,0.0,0.0,0.0,0.0,0.0,0.0,0.0,0.0,0.0,0.0,0.0,0.0,0.0,0.0,0.0,0.0,0.7447,0.8721,0.9458,0.9594,0.9614,0.9621,0.9658,0.947,0.9233,0.0,0.0,0.0,0.0,0.0,0.0,0.0,0.0,0.0,0.0,0.0,0.0,0.0,0.0,0.0,0.0,0.0,0.0,0.0,0.0,0.0,0.0,0.0,0.0,0.0,0.0,0.0,0.0,0.0,0.0,0.0,0.0,0.0,0.0,0.0,0.0,0.0,0.0,0.0,0.0,0.0,1.1258,1.1577,1.1547,0.0,0.0,0.0,0.0,1.2877,1.2754,0.0,0.0,0.0,0.0,0.0,0.0,0.0,0.0,0.0,0.0,0.0,0.0,0.0,0.0,0.0,0.0,0.0,0.0,0.0,0.0,0.0,0.0,0.0,0.0,0.0,0.0,0.0,0.0,0.0,0.0,0.0,0.0,0.0,0.0,0.0,0.0,0.0,0.0,0.0,0.0,0.0,0.0,0.0,0.0,0.0,0.0,0.0,0.0,0.0,0.0,0.0,0.0,0.0,0.0,0.0,0.0,0.7736,0.8381,0.8993,0.9573,0.9614,0.9712,0.994,0.9922,0.9555,0.0,0.0,0.0,0.0,0.0,0.0,0.0,0.0,0.0,0.0,0.0,0.0,0.0,0.0,0.0,0.0,0.0,0.0,0.0,0.0,0.0,0.0,0.0,0.0,0.0,0.0,0.0,0.0,0.0,0.0,0.0,0.0,0.0,0.0,0.0,0.0,0.0,0.0,0.0,0.0,0.0,1.1981,1.2015,1.1712,1.1483,0.0,0.0,1.2844,1.2996,1.363,0.0,0.0,0.0,0.0,0.0,0.0,0.0,0.0,0.0,0.0,0.0,0.0,0.0,0.0,0.0,0.0,0.0,0.0,0.0,0.0,0.0,0.0,0.0,0.0,0.0,0.0,0.0,0.0,0.0,0.0,0.0,0.0,0.0,0.0,0.0,0.0,0.0,0.0,0.0,0.0,0.0,0.0,0.0,0.0,0.0,0.0,0.0,0.0,0.0,0.0,0.0,0.0,0.0,0.0,0.0,0.7524,0.8024,0.8766,0.9314,0.9594,0.9614,0.9653,0.9771,0.9626,0.9242,0.0,0.0,0.0,0.0,0.0,0.0,0.0,0.0,0.0,0.0,0.0,0.0,0.0,0.0,0.0,0.0,0.0,0.0,0.0,0.0,0.0,0.0,0.0,0.0,0.0,0.0,0.0,0.0,0.0,0.0,0.0,0.0,0.0,0.0,0.0,0.0,0.0,0.0,0.0,0.0,0.0,0.0,1.2064,1.1954,0.0,0.0,0.0,1.3336,1.3341,0.0,0.0,0.0,0.0,0.0,0.0,0.0,0.0,0.0,0.0,0.0,0.0,0.0,0.0,0.0,0.0,0.0,0.0,0.0,0.0,0.0,0.0,0.0,0.0,0.0,0.0,0.0,0.0,0.0,0.0,0.0,0.0,0.0,0.0,0.0,0.0,0.0,0.0,0.0,0.0,0.0,0.0,0.0,0.0,0.0,0.0,0.0,0.0,0.0,0.0,0.0,0.0,0.0,0.0,0.0,0.0,0.0,0.8326,0.9163,0.9614,0.9614,0.9614,0.9614,0.9614,0.9402,0.0,0.0,0.0,0.0,0.0,0.0,0.0,0.0,0.0,0.0,0.0,0.0,0.0,0.0,0.0,0.0,0.0,0.0,0.0,0.0,0.0,0.0,0.0,0.0,0.0,0.0,0.0,0.5787,0.0,0.0,0.0,0.0,0.0,0.0,0.0,0.0,0.0,0.0,0.0,0.0,0.0,0.0,1.1917,1.2211,1.234,1.2391,0.0,0.0,1.3746,1.3755,1.425,1.4407,0.0,0.0,0.0,0.0,0.0,0.0,0.0,0.0,0.0,0.0,0.0,0.0,0.0,0.0,0.0,0.0,0.0,0.0,0.0,0.0,0.0,0.0,0.0,0.0,0.0,0.0,0.0,0.0,0.0,0.0,0.0,0.0,0.0,0.0,0.0,0.0,0.0,0.0,0.0,0.0,0.0,0.0,0.0,0.0,0.0,0.0,0.0,0.0,0.0,0.0,0.0,0.0,0.0,0.0,0.0,0.8667,0.9292,0.9614,0.9614,0.9614,0.9614,0.9614,0.9579,0.9152,0.0,0.0,0.0,0.0,0.0,0.0,0.0,0.0,0.0,0.0,0.0,0.0,0.0,0.0,0.0,0.0,0.0,0.0,0.0,0.0,0.0,0.0,0.0,0.0,0.0,0.0,0.0,0.0,0.0,0.0,0.0,0.0,0.0,0.0,0.0,0.0,0.0,0.0,0.0,0.0,0.0,1.2615,1.2643,1.2979,1.3227,0.0,0.0,1.4163,1.4167,1.4775,1.4908,1.3951,0.0,0.0,0.0,0.0,0.0,0.0,0.0,0.0,0.0,0.0,0.0,0.0,0.0,0.0,0.0,0.0,0.0,0.0,0.0,0.0,0.0,0.0,0.0,0.0,0.0,0.0,0.0,0.0,0.0,0.0,0.0,0.0,0.0,0.0,0.0,0.0,0.0,0.0,0.0,0.0,0.0,0.0,0.0,0.0,0.0,0.0,0.0,0.0,0.0,0.0,0.0,0.0,0.0,0.8034,0.8696,0.9287,0.9614,0.9614,0.9614,0.9614,0.9614,0.9771,0.9448,0.0,0.0,0.0,0.0,0.0,0.0,0.0,0.0,0.0,0.0,0.0,0.0,0.0,0.0,0.0,0.0,0.0,0.0,0.0,0.0,0.0,0.0,0.0,0.0,0.0,0.0,0.0,0.0,0.7237,0.7567,0.8086,0.0,0.0,0.0,0.0,0.0,0.0,0.0,0.0,0.0,0.0,1.2794,1.3047,1.3199,0.0,0.0,1.4573,1.5031,1.4791,1.5572,1.5777,1.4441,1.4357,0.0,0.0,0.0,0.0,0.0,0.0,0.0,0.0,0.0,0.0,0.0,0.0,0.0,0.0,0.0,0.0,0.0,0.0,0.0,0.0,0.0,0.0,0.0,0.0,0.0,0.0,0.0,0.0,0.0,0.0,0.0,0.0,0.0,0.0,0.0,0.0,0.0,0.0,0.0,0.0,0.0,0.0,0.0,0.0,0.0,0.0,0.0,0.0,0.0,0.0,0.0,0.0,0.8023,0.8689,0.9299,0.9614,0.9614,0.9614,0.9614,0.9614,0.9784,0.9579,0.0,0.0,0.0,0.0,0.0,0.0,0.0,0.0,0.0,0.0,0.0,0.0,0.0,0.0,0.0,0.0,0.0,0.0,0.0,0.0,0.0,0.0,0.0,0.0,0.0,0.0,0.0,0.0,0.8025,0.8299,0.9014,0.0,0.0,0.0,0.0,0.0,0.0,0.0,0.0,0.0,0.0,1.3095,1.3657,1.3862,1.4159,1.4734,1.532,1.5611,1.5326,1.6011,1.6137,1.4775,0.0,0.0,0.0,0.0,0.0,0.0,0.0,0.0,0.0,0.0,0.0,0.0,0.0,0.0,0.0,0.0,0.0,0.0,0.0,0.0,0.0,0.0,0.0,0.0,0.0,0.0,0.0,0.5747,0.0,0.0,0.5421,0.0,0.0,0.0,0.0,0.0,0.0,0.0,0.0,0.0,0.0,0.0,0.0,0.0,0.0,0.0,0.0,0.0,0.0,0.0,0.0,0.0,0.0,0.8034,0.8677,0.9287,0.9614,0.9614,0.9614,0.9614,0.9614,0.9614,0.9502,0.9271,0.0,0.0,0.0,0.0,0.0,0.0,0.0,0.0,0.0,0.0,0.0,0.0,0.0,0.0,0.0,0.0,0.0,0.0,0.0,0.0,0.0,0.0,0.0,0.0,0.0,0.0,0.8498,0.8497,0.8627,0.0,0.0,0.0,0.0,0.0,0.0,0.0,0.0,0.0,0.0,1.2799,1.3662,1.4622,1.5098,1.5515,1.6136,1.5948,1.571,1.5716,1.5953,1.58,0.0,0.0,0.0,0.0,0.0,0.0,0.0,0.0,0.0,0.0,0.0,0.0,0.0,0.0,0.0,0.0,0.0,0.0,0.0,0.0,0.0,0.0,0.0,0.0,0.0,0.0,0.0,0.7483,0.6743,0.0,0.0,0.0,0.0,0.0,0.0,0.0,0.0,0.0,0.0,0.0,0.9652,1.0044,0.0,0.0,0.0,0.0,0.0,0.0,0.0,0.0,0.0,0.0,0.0,0.0,0.8023,0.8689,0.9287,0.9614,0.9614,0.9614,0.9614,0.9614,0.9764,0.9529,0.8861,0.0,0.0,0.0,0.0,0.0,0.0,0.0,0.0,0.0,0.0,0.0,0.0,0.0,0.0,0.0,0.0,0.0,0.0,0.0,0.0,0.0,0.0,0.0,0.0,0.0,0.9014,0.0,0.0,0.0,0.0,0.0,0.0,0.0,0.0,0.0,0.0,0.0,1.2147,1.2814,1.3355,1.4059,1.5055,1.5312,1.5748,0.0,0.0,0.0,0.0,0.0,0.0,0.0,0.0,0.0,0.0,0.0,0.0,0.0,0.0,1.8313,1.6187,1.5648,1.5528,1.5528,0.0,0.0,0.0,0.0,0.0,0.0,0.0,0.0,0.0,0.0,0.0,0.0,0.0,0.0,0.8633,0.0,0.8044,0.0,0.0,0.0,0.0,0.0,0.0,0.0,0.0,1.0304,1.0847,1.0972,1.1356,1.1277,0.0,1.0264,0.9445,0.0,0.0,0.0,0.0,0.0,0.0,0.0,0.0,0.8191,0.8858,0.9358,0.9614,0.9614,0.9614,0.9614,0.9614,0.9966,0.9764,0.8867,0.8985,0.8526,0.0,0.0,0.0,0.0,0.0,0.0,0.0,0.0,0.0,0.0,0.0,0.0,0.0,0.0,0.0,0.0,0.0,0.0,0.0,0.0,0.0,0.0,0.0,0.9419,0.0,0.0,0.0,0.0,0.0,0.0,0.0,0.0,0.0,1.135,1.2009,1.2758,1.3406,1.3741,1.4345,1.5544,0.0,0.0,0.0,0.0,0.0,0.0,0.0,1.7812,1.7775,1.7851,1.8094,1.8649,1.9493,2.0023,1.9844,0.0,0.0,1.7616,1.7194,1.714,1.6933,1.764,1.8148,1.7757,1.8389,1.8913,0.0,0.0,0.0,0.0,0.0,0.0,0.0,0.0,0.916,0.9348,0.0,0.9419,0.0,0.0,0.0,0.0,0.0,0.9273,0.0,0.0,1.117,1.1666,1.2014,1.2036,1.203,1.2,1.1608,1.1104,1.046,0.8972,0.0,0.0,0.0,0.0,0.0,0.0,0.8538,0.9165,0.946,0.9614,0.9614,0.9614,0.9614,0.9614,1.0159,1.0107,0.9396,0.9842,0.9609,0.8485,0.777,0.0,0.0,0.0,0.0,0.0,0.0,0.0,0.0,0.0,0.0,0.0,0.0,0.0,0.0,0.0,0.0,0.0,0.0,0.0,0.0,0.9215,0.0,0.0,0.0,0.0,0.0,0.0,0.0,0.0,0.0,0.0,1.2202,1.2841,1.3451,1.3847,0.0,0.0,0.0,0.0,1.697,1.8669,1.8656,1.86,1.9041,1.9256,1.9233,1.8903,0.0,0.0,1.9913,2.0298,2.0488,1.9987,2.0358,2.049,1.9944,1.9781,1.9647,1.9283,1.9685,1.9975,1.9967,2.0515,2.0864,1.2358,0.0,0.0,0.0,0.0,1.0999,1.1157,1.1422,1.1434,1.1194,1.0779,1.0349,0.0,0.0,0.0,0.0,0.0,0.0,1.1247,1.1468,1.2193,1.2615,1.2717,1.2723,1.2708,1.27,1.229,1.1906,1.1485,1.084,0.9541,0.7631,0.0,0.0,0.0,0.0,0.877,0.9192,0.9468,0.9614,0.9614,0.9614,0.9614,0.9614,0.9769,0.9817,0.9735,1.0381,1.0277,0.9296,0.9236,0.0,0.0,0.0,0.0,0.0,0.0,0.0,0.0,0.0,0.0,0.0,0.0,0.0,0.0,0.0,0.0,0.0,0.0,0.0,0.8866,0.94,0.9822,0.0,0.0,0.0,0.0,0.0,0.0,0.0,0.0,0.0,1.3736,1.3745,1.3782,0.0,0.0,1.5434,1.6698,1.7242,1.798,1.9277,1.9388,0.0,1.9642,1.9469,1.9448,1.9828,2.0562,2.1086,2.0971,2.1365,2.1692,2.1512,2.1632,2.1683,2.1593,2.1258,2.1298,2.1951,2.2591,2.3107,2.3483,2.3991,2.4206,1.4646,1.3214,1.2464,1.2286,1.2472,1.2467,1.2615,1.2834,1.2834,1.2577,1.2163,1.1842,1.126,1.0509,1.0138,0.0,0.0,0.0,1.2127,1.2298,1.278,1.3063,1.32,1.3185,1.32,1.3192,1.2814,1.253,1.2331,1.2018,1.0946,0.9203,0.0,0.0,0.8315,0.8696,0.9126,0.9539,0.9729,0.9791,0.9791,0.9667,0.9614,0.9614,0.9821,1.002,1.014,1.0782,1.0907,1.0474,1.0059,0.93,0.0,0.0,0.0,0.0,0.0,0.0,0.0,0.0,0.0,0.0,0.0,0.7708,0.7461,0.0,0.0,0.0,0.8309,0.8775,0.929,0.9851,0.0,0.0,0.0,0.0,0.0,0.0,0.0,1.2753,1.3392,1.402,1.4653,1.4922,1.5045,1.5045,1.5568,1.6377,1.7562,0.0,1.8681,1.9832,2.0095,2.0284,2.0572,2.0532,2.0588,2.0977,2.1389,2.1689,2.1728,2.1993,2.2185,2.2213,2.2389,2.2649,2.2927,2.2898,2.2923,2.331,2.3987,2.4556,2.4707,2.5157,2.5359,1.6994,1.5662,1.4444,1.38,1.3605,1.3596,1.3605,1.3596,1.3605,1.3596,1.3596,1.3571,1.3151,1.2458,1.2144,0.0,1.2535,1.2566,1.2797,1.3123,1.3112,1.3237,1.3545,1.3504,1.3496,1.3478,1.3192,1.3023,1.2976,1.2592,1.2094,1.149,1.0316,0.9583,0.9313,0.9315,0.9583,1.0126,1.0141,1.0133,1.0097,0.9775,0.9614,0.9614,1.0133,1.0437,1.0522,1.1011,1.1435,1.1691,1.0479,0.9641,0.9277,0.0,0.0,0.0,0.0,0.0,0.0,0.0,0.0,0.0,0.0,0.0,0.0,0.0,0.0,0.0,0.9501,0.0,0.9785,1.0494,0.0,0.0,0.0,1.174,1.2156,1.2601,1.313,1.3869,0.0,0.0,1.5232,1.6242,1.6967,1.7044,1.6985,1.7388,1.8581,1.8804,1.9233,2.0312,2.0718,2.1107,2.1452,2.1802,2.2007,2.2046,2.2197,2.2161,2.2177,2.2189,2.2197,2.2197,2.2686,2.3269,2.3889,2.4427,2.4708,2.374,2.4426,2.5008,2.4755,2.5078,2.5274,1.8332,1.7968,1.7665,1.6336,1.441,1.441,1.4401,1.4417,1.4426,1.4417,1.4409,1.4084,1.3675,1.3254,1.3468,1.3605,1.3699,1.4023,1.4203,1.4272,1.3964,1.387,1.3939,1.3648,1.3496,1.3487,1.341,1.3256,1.2993,1.2639,1.2174,1.1586,1.1009,1.0567,1.0274,1.0276,1.0344,1.0484,1.047,1.0346,1.0118,0.9762,0.9614,0.9614,0.9738,1.0022,1.0475,1.0875,1.1187,1.1404,1.1273,1.0687,0.9582,0.8424,0.0,0.0,0.0,0.0,0.0,0.0,0.0,0.0,0.0,0.9004,0.838,0.0,0.9014,0.0,0.9914,1.0272,1.0586,1.1063,0.0,0.0,1.2187,1.2569,1.297,1.3649,1.4148,1.4326,1.5463,1.64,1.6815,1.7518,1.8351,1.9179,1.8683,1.8511,1.9208,1.9728,2.0231,2.0848,2.1155,2.1323,2.1487,2.1769,2.2046,2.2182,2.2197,2.2197,2.2197,2.2197,2.2197,2.2216,2.2686,2.3297,2.3917,2.4524,2.5078,2.5258,2.5881,2.6497,2.6835,2.7004,2.6905,1.9367,1.9149,1.9158,1.8142,1.6477,1.6058,1.5599,1.518,1.518,1.5103,1.4898,1.4521,1.4238,1.405,1.4264,1.4366,1.4383,1.4606,1.4717,1.4692,1.4461,1.4374,1.435,1.4143,1.3939,1.3768,1.3768,1.3575,1.3224,1.304,1.2699,1.2221,1.1904,1.1577,1.1255,1.0832,1.066,1.0814,1.0675,1.0499,1.0309,0.9842,0.9614,0.9614,0.9855,1.0159,1.0483,1.0913,1.1182,1.1293,1.1104,1.0782,1.028,0.9078,0.8162,0.0,0.0,0.0,0.0,0.0,0.0,0.0,0.0,0.0,0.0,0.0,0.9602,1.0191,1.075,1.1267,1.1662,1.2064,1.2391,1.2634,1.3153,1.358,1.3804,1.4552,1.5226,1.5729,1.6541,1.7326,1.8027,1.8726,1.9378,2.0014,1.9922,1.9911,2.0185,2.0546,2.0895,2.1227,2.1427,2.1584,2.1726,2.1897,2.2077,2.2154,2.2197,2.2197,2.2197,2.2436,2.2669,2.2982,2.374,2.4429,2.4796,2.5358,2.5855,2.5882,2.6174,2.6526,2.6877,2.6947,2.6821,2.0308,1.9872,1.9882,1.9532,1.8904,1.798,1.6991,1.6067,1.5978,1.5728,1.5317,1.4975,1.4846,1.4846,1.4846,1.4837,1.4837,1.4846,1.4837,1.4846,1.4794,1.4769,1.4769,1.4709,1.452,1.4194,1.4186,1.3983,1.3665,1.3568,1.3344,1.3024,1.2668,1.2336,1.2011,1.1219,1.0909,1.1158,1.0828,1.0624,1.0594,0.9974,0.9637,0.9627,1.0133,1.0457,1.0509,1.0985,1.1262,1.1283,1.0678,1.0532,1.0979,0.9597,0.8943,0.0,0.8721,0.0,0.0,0.0,0.0,0.0,0.0,0.0,0.0,1.0402,1.0384,1.1076,1.1816,1.2395,1.2757,1.3206,1.3538,1.3612,1.4251,1.4747,1.4911,1.5448,1.6216,1.7393,1.7563,1.8015,1.8994,1.9786,2.0242,2.0307,2.0746,2.1046,2.1162,2.1167,2.1198,2.1356,2.1549,2.1792,2.2073,2.2242,2.233,2.2318,2.2426,2.2437,2.2622,2.3022,2.3523,2.4185,2.5141,2.5926,2.6027,2.6421,2.6596,2.616,2.602,2.5964,2.6005,2.6019,2.5907,2.1473,2.1398,2.1388,2.0854,1.9982,1.9277,1.8415,1.7475,1.6937,1.6463,1.6069,1.5719,1.5591,1.5583,1.5591,1.5591,1.5591,1.5591,1.5591,1.5583,1.524,1.5095,1.5095,1.4821,1.4666,1.4589,1.4589,1.4554,1.4469,1.3874,1.3408,1.3068,1.2687,1.2243,1.1732,0.0,0.0,0.0,1.1173,1.0865,1.0601,1.0207,0.9885,0.9629,0.9914,0.0,1.0496,1.082,1.1078,1.1281,1.1408,0.0,0.0,0.0,0.0,0.0,0.0,0.0,0.0,0.0,0.0,0.0,1.0652,1.0652,1.0901,1.1641,1.2196,1.2362,1.2795,1.3107,1.3181,1.3998,1.4701,1.5118,1.5502,1.61,1.6997,1.6619,1.6708,1.8041,1.8502,1.9007,1.9781,2.0528,2.0967,2.0955,2.111,2.1201,2.1201,2.1201,2.1206,2.1253,2.1513,2.1824,2.2151,2.2574,2.2803,2.2887,2.3236,2.3644,2.4062,2.4333,2.4722,2.5387,2.6129,2.6641,2.6656,2.6726,2.6807,2.6652,2.6245,2.5907,2.5907,2.5907,2.5907,2.1788,0.0,2.1788,2.1502,0.0,2.0052,1.9554,1.9269,1.7964,1.7453,1.7487,1.6697,1.6414,1.6536,1.6232,1.5986,1.5805,1.5805,1.5805,1.5788,1.56,1.5488,1.5488,1.5317,1.5154,1.4949,1.4949,1.4855,1.4675,1.4332,1.3881,1.3347,1.3137,1.2718,1.2058,1.2096,1.1941,1.1607,1.1269,1.1026,1.0836,1.0367,1.001,0.9849,0.9952,0.0,0.0,0.0,0.0,0.0,0.0,0.0,0.0,0.0,0.0,1.0984,1.1073,1.0946,1.0592,1.1409,1.1803,1.1514,1.1693,1.1711,1.1506,1.2422,1.3071,1.3277,1.3474,1.3802,1.4289,1.4701,1.5327,1.6206,1.656,1.7093,1.7893,1.8064,1.8348,1.9101,1.9648,2.0132,2.0577,2.094,2.1185,2.1201,2.1201,2.1201,2.1201,2.1201,2.1206,2.1289,2.158,2.1953,2.2388,2.2743,2.3115,2.3344,2.3609,2.3918,2.4251,2.4857,2.551,2.6209,2.7066,2.7734,2.7709,2.7516,2.72,2.6835,2.6315,2.5935,2.5907,2.5907,2.5907,2.1788,2.1788,2.1788,2.1788,2.1702,2.0566,2.0382,2.0768,0.0,0.0,0.0,1.7389,1.7083,1.737,1.6887,1.6432,1.6059,1.6051,1.5989,1.5805,1.5805,1.5805,1.5805,1.5805,1.5634,1.5334,1.53,1.5146,1.4906,1.4829,1.4452,1.3833,1.3684,1.3224,1.2468,1.2151,1.1872,1.16,1.1335,1.1166,1.1085,1.0506,1.0169,1.0104,1.0087,1.0226,1.0496,1.0807,1.0927,1.0815,1.0895,1.1202,1.1846,1.1598,1.182,1.272,1.2783,1.2623,1.2237,1.2912,1.3063,1.2404,1.2891,1.3049,1.2619,1.3188,1.3742,1.4118,1.4349,1.4826,1.5615,1.5767,1.6216,1.7399,1.7747,1.8198,1.8917,1.9415,1.9853,2.0336,2.0577,2.0886,2.1131,2.1185,2.1201,2.1201,2.1201,2.1247,2.1305,2.1374,2.1422,2.1581,2.1948,2.2337,2.2733,2.3158,2.344,2.3849,2.4035,2.4154,2.4542,2.5367,2.6316,2.7213,2.8171,2.8707,2.8802,2.824,2.7636,2.7074,2.6399,2.5907,2.5907,2.5907,2.5907,2.1788,2.1788,2.1788,2.1788,2.174,2.104,2.0818,2.0759,1.9076,1.8096,1.7646,1.7132,1.7251,1.7795,1.7721,1.7459,1.7099,1.709,1.6616,1.5832,1.5805,1.5805,1.5805,1.5805,1.5771,1.572,1.5711,1.5694,1.5608,1.53,1.4934,1.453,1.3916,1.3114,1.2212,1.1825,1.1638,1.1591,1.154,1.1386,1.11,1.0711,1.0382,1.0118,1.0318,1.0457,1.0509,1.0972,1.1238,1.1224,1.1548,1.1787,1.1895,1.184,1.1901,1.2033,1.1955,1.1843,1.1806,1.2126,1.2634,1.3373,1.4546,1.5029,1.4492,1.4521,1.476,1.5158,1.6017,1.6702,1.6909,1.7602,1.8303,1.9031,1.9468,2.0151,2.1104,2.0456,2.0328,2.1366,2.0763,2.0537,2.1097,2.1201,2.1201,2.1201,2.1201,2.1339,2.1663,2.1807,2.1889,2.211,2.2622,2.3074,2.3383,2.392,2.4225,2.4364,2.4793,2.5419,2.6412,2.6979,2.7625,2.889,2.9232,2.9431,2.9404,2.855,2.7903,2.7552,2.6722,2.5992,2.5935,2.5907,2.5907,2.1788,2.1788,2.1788,2.1788,2.1769,2.1511,2.0982,2.0343,1.9947,1.9803,1.9755,1.8912,1.8776,1.9154,1.8845,1.8499,1.8107,1.7865,1.7492,1.7043,1.679,1.6656,1.6673,1.6673,1.6656,1.6656,1.6656,1.6656,1.6655,1.6474,1.6241,1.5838,1.4678,1.3448,1.2372,1.2024,1.1786,1.1607,1.1591,1.1518,1.1364,1.1212,1.0988,1.066,1.0606,1.0616,1.0714,1.0811,1.0998,1.1289,1.1477,1.1756,1.2187,1.2224,1.2409,1.2793,1.3047,1.3038,1.2747,1.3118,1.4023,1.55,1.5669,1.5825,1.6081,1.5785,1.5814,1.6288,1.6823,1.7342,1.7888,1.8326,1.8933,1.9904,2.0316,2.0786,2.1376,2.1548,2.1425,2.1499,2.1272,2.1117,2.1192,2.1201,2.1201,2.1201,2.1201,2.1381,2.1825,2.218,2.2419,2.2643,2.2956,2.3405,2.3863,2.4231,2.4609,2.4862,2.5463,2.6097,2.6952,2.7646,2.8602,2.8965,2.9529,2.9878,2.9699,2.8915,2.8269,2.7748,2.7074,2.6385,2.6034,2.5907,2.5907,2.1788,2.1788,2.1788,2.1788,2.1788,2.1788,2.1252,2.0421,2.0876,2.1377,2.1587,2.045,2.0101,2.0362,1.9935,1.9524,1.9147,1.8754,1.8415,1.809,1.7726,1.7519,1.74,1.739,1.739,1.739,1.739,1.739,1.739,1.739,1.7149,1.6623,1.5427,1.4114,1.2807,1.257,1.2211,1.1725,1.1691,1.1685,1.16,1.1594,1.1465,1.1227,1.103,1.0995,1.1115,1.0909,1.0982,1.1383,1.1344,1.164,1.2308,1.2369,1.2666,1.3298,1.3812,1.4006,1.3858,1.4494,1.5564,1.7055,1.6625,1.656,1.7241,1.7111,1.7001,1.7273,1.7565,1.8119,1.8896,1.9119,1.9508,2.0611,2.0947,2.1268,2.1547,2.2127,2.2265,2.153,2.1594,2.1555,2.1316,2.1201,2.1201,2.1201,2.1201,2.1415,2.1979,2.2536,2.2954,2.3369,2.3529,2.3877,2.4465,2.4776,2.5136,2.5621,2.618,2.6761,2.7297,2.8499,2.929,2.9276,2.9729,3.0087,2.9797,2.9181,2.8592,2.81,2.7509,2.6863,2.6301,2.6006,2.5921,2.1788,2.1788,2.1788,2.1788,2.1788,2.1788,2.1712,2.1587,2.1683,2.175,2.1664,2.045,2.0275,2.0788,2.0768,2.054,2.0154,2.0123,1.9383,1.8237,1.8054,1.781,1.7487,1.7442,1.7407,1.7442,1.7459,1.751,1.7493,1.7459,1.7013,1.6254,1.601,1.5147,1.3777,1.3549,1.3028,1.1993,1.2022,1.1903,1.1616,1.1594,1.1599,1.1561,1.1762,1.1867,1.188,1.1772,1.1706,1.1725,1.1477,1.1511,1.1924,1.1995,1.2163,1.2646,1.2995,1.3452,1.4328,1.5614,1.6462,1.6711,1.7418,1.7827,1.8,1.8398,1.8418,1.8217,1.8851,1.958,2.019,2.0607,2.1008,2.1456,2.1737,2.1999,2.2306,2.2203,2.1934,2.1848,2.1491,2.1247,2.1224,2.1201,2.1201,2.1201,2.1339,2.1684,2.2495,2.3092,2.3788,2.4575,2.4798,2.4866,2.5327,2.5743,2.6081,2.6728,2.7049,2.7668,2.8569,2.8927,2.8996,3.0243,3.0303,3.0062,2.9966,2.956,2.8761,2.8493,2.8016,2.7481,2.6849,2.6385,2.6118,2.1788,2.1788,2.1788,2.1788,2.1788,2.1788,2.1788,2.1788,2.1788,2.1788,2.174,2.1252,2.1165,2.1434,2.1424,2.1341,2.1178,2.0885,2.0307,1.9476,1.9216,1.8866,1.8441,1.8395,1.8411,1.8411,1.8411,1.8385,1.8385,1.8286,1.7755,1.6928,1.6596,1.5834,1.4715,1.4165,1.3514,1.2732,1.2461,1.2104,1.1693,1.179,1.1897,1.1935,1.2281,1.2409,1.2313,1.2322,1.228,1.2185,1.228,1.255,1.2943,1.3229,1.3565,1.3969,1.4407,1.5011,1.5829,1.6634,1.7192,1.7436,1.7863,1.8098,1.8121,1.8584,1.8897,1.9104,1.9681,2.032,2.0829,2.1307,2.1594,2.1594,2.1984,2.2237,2.1834,2.1881,2.1819,2.1525,2.1339,2.1201,2.1201,2.1201,2.1201,2.1293,2.165,2.2357,2.3035,2.378,2.4568,2.5259,2.5493,2.567,2.5953,2.5806,2.6341,2.7259,2.7954,2.8703,2.9675,3.0645,3.0976,3.1045,3.0752,3.0359,2.9938,2.9685,2.9153,2.8844,2.8255,2.7692,2.7425,2.72,2.7046,2.1788,2.1788,2.1788,2.1788,2.1788,2.1788,2.1788,2.1788,2.1788,2.1788,2.1788,2.1788,2.1788,2.1788,2.1788,2.1788,2.1737,2.1455,2.0961,2.0423,2.0089,1.9651,1.915,1.9098,1.9098,1.9098,1.9081,1.9081,1.9065,1.8891,1.8445,1.7801,1.7348,1.6676,1.5828,1.5149,1.4443,1.3606,1.3089,1.2515,1.1965,1.1934,1.2027,1.2236,1.2724,1.2982,1.2968,1.2854,1.2772,1.2781,1.298,1.3223,1.3544,1.4068,1.4599,1.5089,1.5687,1.6273,1.6876,1.7338,1.7724,1.804,1.8098,1.8166,1.8375,1.8802,1.9401,2.0056,2.0553,2.1009,2.1346,2.1709,2.1789,2.1673,2.2196,2.2139,2.1553,2.1624,2.156,2.127,2.1224,2.1201,2.1224,2.1328,2.1473,2.173,2.2369,2.3155,2.374,2.4561,2.5295,2.5799,2.6047,2.6221,2.6425,2.6377,2.6729,2.7907,2.8929,2.9574,3.0596,3.1759,3.2392,3.1806,3.1654,3.1316,3.074,3.0263,2.9869,2.9265,2.8662,2.8226,2.8339,2.8086,2.7903,2.1788,2.1788,2.1788,2.1788,2.1788,2.1788,2.1788,2.1788,2.1788,2.1788,2.1788,2.1788,2.1788,2.1788,2.1788,2.1788,2.1797,2.1737,2.1251,2.0496,2.0372,1.9896,1.9129,1.9098,1.9098,1.9098,1.9098,1.9098,1.9092,1.8908,1.8791,1.868,1.8321,1.7804,1.7078,1.6769,1.601,1.468,1.4005,1.3262,1.2506,1.1934,1.1996,1.2467,1.3092,1.361,1.3936,1.3377,1.32,1.3627,1.3354,1.3173,1.3264,1.399,1.4775,1.5384,1.6128,1.6647,1.695,1.7603,1.8052,1.8098,1.8098,1.8306,1.8756,1.9275,1.9967,2.0994,2.1365,2.1704,2.1807,2.1922,2.2083,2.2362,2.2129,2.1929,2.1825,2.1433,2.127,2.1201,2.1201,2.1236,2.1224,2.1594,2.2065,2.2541,2.3058,2.3751,2.4606,2.5295,2.5899,2.6267,2.6507,2.6606,2.6956,2.6947,2.7872,2.9037,2.9696,3.0422,3.1315,3.2103,3.2412,3.2469,3.1991,3.1654,3.1488,3.119,3.0825,3.0221,2.9392,2.904,2.9237,2.8465,2.8451,2.1788,2.1788,2.1788,2.1788,2.1788,2.1788,2.1788,2.1788,2.1788,2.1788,2.1788,2.1788,2.1788,2.1788,2.1788,2.1788,2.1788,2.1788,2.1437,2.0858,2.0547,2.0089,1.9575,1.9253,1.9098,1.9098,1.9098,1.9098,1.9081,1.8908,1.8791,1.8758,1.8549,1.8252,1.7978,1.7691,1.6985,1.5984,1.5269,1.4285,1.3112,1.2925,1.2827,1.2528,1.3056,1.364,1.4175,1.3907,1.3989,1.4434,1.4328,1.4411,1.4763,1.5351,1.5783,1.6039,1.6467,1.6854,1.7101,1.7561,1.7906,1.8082,1.8098,1.8352,1.8862,1.9405,1.999,2.0618,2.1174,2.1525,2.1916,2.2203,2.2203,2.1829,2.183,2.1784,2.1518,2.1305,2.1201,2.1201,2.1213,2.1305,2.1679,2.2099,2.2593,2.315,2.4136,2.4928,2.5398,2.6098,2.6683,2.6855,2.6955,2.7045,2.7283,2.7345,2.7908,2.929,3.0297,3.1174,3.2062,3.2611,3.2968,3.2648,3.2216,3.2019,3.185,3.1232,3.1007,3.0766,2.9966,2.9926,3.012,2.9715,2.9955,2.1788,2.1788,2.1788,2.1788,2.1788,2.1788,2.1788,2.1788,2.1788,2.1788,2.1788,2.1788,2.1788,2.1788,2.1788,2.1788,2.1788,2.1788,2.154,2.1085,2.0765,2.041,1.9983,1.9533,1.9326,1.9295,1.916,1.9098,1.9081,1.8908,1.8841,1.8891,1.865,1.8533,1.8523,1.8261,1.7747,1.7067,1.638,1.534,1.4163,1.3965,1.3652,1.3096,1.3405,1.3893,1.4413,1.4443,1.4656,1.5069,1.5157,1.5386,1.5889,1.6216,1.6388,1.6431,1.6733,1.6994,1.7228,1.759,1.7918,1.8093,1.8295,1.8595,1.9129,1.9769,2.0354,2.0859,2.1369,2.1806,2.1888,2.2209,2.215,2.1587,2.1704,2.1709,2.1266,2.1213,2.1201,2.1236,2.1358,2.164,2.2134,2.2765,2.3442,2.4038,2.5237,2.5934,2.6258,2.6706,2.7107,2.6993,2.6889,2.6812,2.6855,2.6835,2.8088,2.9511,3.0602,3.1598,3.2302,3.2869,3.3108,3.2788,3.2592,3.244,3.1988,3.1328,3.1061,3.0991,3.0907,3.0797,3.1021,3.1246,3.1232,2.1788,2.1788,2.1788,2.1788,2.1788,2.1788,2.1788,2.1788,2.1788,2.1788,2.1788,2.1788,2.1788,2.1788,2.1788,2.1788,2.1788,2.1788,2.1571,2.1178,2.1085,2.0816,2.0392,1.9993,1.9761,1.9699,1.9316,1.9108,1.9081,1.8942,1.8908,1.8981,1.8724,1.8657,1.8808,1.859,1.8314,1.7819,1.723,1.6456,1.5646,1.5028,1.4428,1.3861,1.4231,1.4625,1.4902,1.4878,1.5108,1.5614,1.5658,1.5904,1.6273,1.6388,1.6388,1.6459,1.6864,1.7134,1.7245,1.7689,1.7975,1.8155,1.8561,1.9057,1.9688,2.0519,2.1243,2.1681,2.2129,2.2398,2.1922,2.1876,2.1876,2.186,2.1807,2.1617,2.1328,2.1201,2.1213,2.1316,2.1629,2.2122,2.2748,2.3592,2.451,2.5371,2.6071,2.6562,2.6775,2.6981,2.6912,2.6611,2.645,2.6398,2.6279,2.6365,2.8135,2.9768,3.0734,3.1667,3.2079,3.2566,3.2838,3.2676,3.2971,3.2817,3.2455,3.182,3.1454,3.137,3.1443,3.1288,3.1316,3.137,3.1794,2.1788,2.1788,2.1788,2.1788,2.1788,2.1788,2.1788,2.1788,2.1788,2.1788,2.1788,2.1788,2.1788,2.1788,2.1788,2.1788,2.1788,2.1788,2.1706,2.154,2.1251,2.1044,2.0827,2.0431,2.0076,1.9761,1.9326,1.9108,1.9102,1.9042,1.9031,1.9048,1.8965,1.8942,1.9008,1.8948,1.8766,1.8501,1.8127,1.7465,1.6597,1.6353,1.5735,1.4836,1.5059,1.5324,1.5415,1.5108,1.5332,1.613,1.5885,1.5914,1.6288,1.6388,1.6388,1.6416,1.6545,1.6835,1.7186,1.7385,1.7714,1.8091,1.8607,1.931,2.009,2.0818,2.1415,2.1842,2.206,2.1945,2.1537,2.1427,2.145,2.1415,2.1415,2.1404,2.1259,2.1236,2.1362,2.1686,2.2134,2.2794,2.3667,2.4602,2.544,2.6114,2.6634,2.6924,2.6749,2.6726,2.6528,2.6071,2.598,2.5873,2.5758,2.6026,2.7329,2.8836,2.9999,3.1162,3.1674,3.202,3.2303,3.2606,3.2929,3.2943,3.2606,3.2244,3.1752,3.1302,3.1007,3.0977,3.1089,3.1384,3.1766,2.1911,2.2035,2.188,2.1788,2.1788,2.1788,2.1788,2.1788,2.1788,2.1788,2.1788,2.1788,2.1788,2.1788,2.1788,2.1788,2.1788,2.1788,2.1788,2.1757,2.1528,2.1373,2.1292,2.0878,2.0441,2.0014,1.9575,1.9357,1.9347,1.9191,1.9098,1.9098,1.9098,1.9098,1.9098,1.9098,1.9025,1.889,1.8726,1.8277,1.7637,1.7484,1.6961,1.6019,1.6005,1.6053,1.5935,1.5615,1.5759,1.6245,1.6116,1.613,1.6374,1.6388,1.6388,1.6416,1.6516,1.6719,1.7046,1.7284,1.7634,1.8235,1.8985,1.9792,2.063,2.1305,2.1863,2.1876,2.1934,2.1693,2.1316,2.1213,2.1201,2.1213,2.1224,2.1201,2.1236,2.1546,2.1852,2.2306,2.2972,2.3821,2.4682,2.5436,2.6186,2.6668,2.6852,2.6887,2.6528,2.6341,2.5953,2.5601,2.5421,2.5321,2.5228,2.5782,2.6584,2.7776,2.8943,3.0135,3.1045,3.1297,3.1553,3.1923,3.2258,3.2272,3.1977,3.1836,3.1485,3.105,3.0712,3.1064,3.1331,3.1373,3.1656,2.2087,2.2387,2.1994,2.1788,2.1788,2.1788,2.1788,2.1788,2.1788,2.1788,2.1788,2.1788,2.1788,2.1788,2.1788,2.1788,2.1788,2.1788,2.1788,2.1788,2.1726,2.1716,2.1644,2.123,2.0806,2.0434,1.9972,1.9779,1.9689,1.9288,1.9098,1.9098,1.9098,1.9098,1.9098,1.9098,1.9098,1.9081,1.9061,1.8783,1.8394,1.8407,1.8004,1.7065,1.6926,1.6718,1.6412,1.6286,1.6302,1.6398,1.6345,1.6345,1.6388,1.6388,1.6388,1.6402,1.6634,1.6722,1.6906,1.7383,1.7958,1.8582,1.9677,2.0699,2.1328,2.204,2.238,2.2071,2.1951,2.1693,2.1339,2.1201,2.1201,2.1201,2.1201,2.1201,2.127,2.2029,2.2529,2.2914,2.3982,2.5142,2.5593,2.6194,2.6645,2.6852,2.6737,2.6539,2.6183,2.5827,2.544,2.5153,2.4893,2.482,2.4738,2.5126,2.5931,2.6813,2.7897,2.8943,3.0116,3.0487,3.0887,3.1254,3.1569,3.1527,3.1429,3.1288,3.112,3.0783,3.0853,3.1302,3.1288,3.1064,3.1178,2.218,2.1983,2.1859,2.1788,2.1788,2.1788,2.1788,2.1788,2.1788,2.1788,2.1788,2.1788,2.1788,2.1788,2.1788,2.1788,2.1788,2.1788,2.1788,2.1788,2.1788,2.1788,2.1714,2.1342,2.1054,2.0827,2.02,1.981,1.9761,1.9347,1.9108,1.9098,1.9098,1.9098,1.9098,1.9098,1.9098,1.9098,1.9098,1.9056,1.8942,1.8901,1.8628,1.8062,1.7377,1.7002,1.6788,1.6539,1.6388,1.6388,1.6388,1.6388,1.6388,1.6388,1.6398,1.6458,1.647,1.6626,1.6906,1.7509,1.8231,1.9029,2.0262,2.1358,2.2236,2.2535,2.2621,2.2426,2.218,2.1693,2.1316,2.1201,2.1201,2.1201,2.1247,2.1259,2.1431,2.2075,2.2817,2.3287,2.4606,2.5612,2.6171,2.6608,2.6852,2.6691,2.647,2.6183,2.5681,2.5325,2.4958,2.4625,2.4395,2.4326,2.4378,2.4687,2.5212,2.5966,2.683,2.7651,2.8782,2.9599,3.0145,3.0671,3.1047,3.1134,3.0923,3.071,3.0542,3.0403,3.0333,3.0417,3.0221,3.0052,3.0359,2.2159,2.2076,2.188,2.1788,2.1788,2.1788,2.1788,2.1788,2.1788,2.1788,2.1788,2.1788,2.1788,2.1788,2.1788,2.1788,2.1788,2.1788,2.1788,2.1788,2.1788,2.1788,2.1716,2.1497,2.1404,2.13,2.0472,2.01,1.9924,1.9423,1.9129,1.9098,1.9098,1.9098,1.9098,1.9098,1.9098,1.9098,1.9098,1.9098,1.9098,1.9098,1.8984,1.8603,1.7961,1.7522,1.7296,1.7073,1.687,1.667,1.6498,1.6388,1.6388,1.6388,1.6467,1.6612,1.6498,1.6619,1.7162,1.7768,1.8555,1.9605,2.0831,2.1808,2.2479,2.2707,2.2656,2.2317,2.1893,2.1518,2.1293,2.1201,2.1305,2.1484,2.1507,2.1587,2.1799,2.2759,2.3592,2.4434,2.5467,2.6304,2.6536,2.6749,2.6611,2.6275,2.5876,2.5509,2.5096,2.4809,2.4579,2.4326,2.4189,2.4212,2.4212,2.4442,2.5034,2.5721,2.6633,2.7255,2.7941,2.8923,2.9444,3.0021,3.0447,3.0656,3.0417,3.0191,3.0036,2.9883,2.9645,2.9602,2.9602,2.9617,2.9868,2.2087,2.2387,2.1992,2.1788,2.1788,2.1788,2.1788,2.1788,2.1788,2.1788,2.1788,2.1788,2.1788,2.1788,2.1788,2.1788,2.1788,2.1788,2.1788,2.1788,2.1788,2.1788,2.1778,2.1737,2.1706,2.159,2.0827,2.0434,2.0123,1.9516,1.9139,1.9098,1.9098,1.9098,1.9098,1.9098,1.9098,1.9098,1.9098,1.9098,1.9098,1.9108,1.9102,1.9133,1.881,1.839,1.8101,1.7874,1.7709,1.7347,1.6819,1.6632,1.6595,1.6574,1.6808,1.7068,1.7005,1.7113,1.7734,1.8254,1.897,2.026,2.1436,2.2314,2.2668,2.2673,2.2375,2.2037,2.1495,2.1282,2.1236,2.1236,2.1484,2.1766,2.1899,2.2243,2.292,2.3736,2.4636,2.557,2.6557,2.6864,2.6677,2.6436,2.6286,2.5716,2.5383,2.5107,2.4786,2.4533,2.4384,2.4258,2.4189,2.4189,2.42,2.4225,2.4939,2.5687,2.6756,2.7473,2.7802,2.85,2.8883,2.9342,2.9903,3.0061,2.9897,2.9715,2.9659,2.9645,2.9617,2.9602,2.9602,2.9602,2.9755,2.219,2.1942,2.1849,2.1788,2.1788,2.1788,2.1799,2.1799,2.1799,2.183,2.1799,2.1799,2.1788,2.1788,2.1788,2.1788,2.1788,2.1788,2.1788,2.1788,2.1788,2.1788,2.1788,2.1788,2.1788,2.1571,2.0847,2.0423,2.0175,1.9599,1.9098,1.9098,1.9098,1.9098,1.9098,1.9098,1.9098,1.9098,1.9098,1.9098,1.9098,1.9108,1.9237,1.9513,1.9461,1.943,1.9288,1.8988,1.8926,1.8859,1.8154,1.7513,1.7497,1.7714,1.7931,1.8025,1.8019,1.818,1.8699,1.9132,1.9839,2.1018,2.1683,2.2421,2.3103,2.2456,2.2089,2.1819,2.1484,2.1224,2.124,2.1537,2.1762,2.1979,2.2329,2.3029,2.412,2.4602,2.4996,2.5742,2.6557,2.7015,2.6551,2.639,2.5999,2.5291,2.4935,2.4728,2.4522,2.4292,2.4246,2.4189,2.4189,2.4207,2.4243,2.4352,2.4945,2.5657,2.6654,2.7473,2.7789,2.8197,2.8635,2.9035,2.9439,2.9493,2.9556,2.9602,2.9631,2.9617,2.9602,2.9602,2.9602,2.9602,2.9602,2.2365,2.2139,2.2128,2.2004,2.1859,2.2035,2.2109,2.2128,2.2109,2.2128,2.2076,2.1921,2.1788,2.1788,2.1788,2.1788,2.1788,2.1788,2.1788,2.1788,2.1788,2.1788,2.1788,2.1788,2.1778,2.1662,2.0847,2.0426,2.0165,1.9599,1.9098,1.9098,1.9098,1.9098,1.9098,1.9098,1.9098,1.9098,1.9098,1.9098,1.9098,1.9108,1.917,1.9419,1.9488,1.9471,1.9388,1.9461,1.9419,1.9388,1.9137,1.8738,1.8371,1.8382,1.8611,1.8984,1.8828,1.9092,1.9547,1.9899,2.0335,2.1243,2.1692,2.2016,2.2325,2.1929,2.1687,2.1534,2.1358,2.1213,2.1236,2.1629,2.1934,2.2324,2.2714,2.3661,2.4843,2.5065,2.5341,2.6094,2.6671,2.6554,2.6321,2.6068,2.5528,2.4728,2.4613,2.443,2.4407,2.4223,2.4223,2.4189,2.4189,2.4225,2.4279,2.4539,2.5034,2.5692,2.6461,2.7108,2.7556,2.8,2.8471,2.8828,2.9178,2.9415,2.9493,2.954,2.9602,2.9602,2.9602,2.9602,2.9602,2.9602,2.9602,2.2604,2.2604,2.2594,2.2366,2.2118,2.2439,2.2604,2.2594,2.2522,2.2439,2.2397,2.1985,2.1788,2.1788,2.1788,2.1788,2.1788,2.1788,2.1788,2.1788,2.1788,2.1788,2.1788,2.1788,2.1778,2.1675,2.0837,2.0434,2.0165,1.9589,1.9119,1.9098,1.9098,1.9098,1.9098,1.9098,1.9098,1.9098,1.9098,1.9098,1.9098,1.9108,1.916,1.9343,1.9482,1.9502,1.9578,1.971,1.9751,1.9361,1.9944,1.9913,1.9537,1.9139,1.9108,1.9951,1.9682,1.9913,2.0413,2.0591,2.071,2.1098,2.1364,2.1515,2.1475,2.1402,2.1279,2.1284,2.1213,2.1259,2.1312,2.1801,2.2278,2.2754,2.3224,2.4175,2.518,2.5256,2.5612,2.6554,2.6508,2.6117,2.5716,2.536,2.4786,2.4326,2.4246,2.4189,2.4189,2.4189,2.4189,2.4189,2.4189,2.4189,2.4243,2.4557,2.507,2.5517,2.6225,2.6769,2.7272,2.7673,2.8115,2.8587,2.8924,2.921,2.9462,2.9556,2.9602,2.9602,2.9602,2.9602,2.9602,2.9602,2.9602,2.307,2.307,2.309,2.3049,2.2967,2.3049,2.307,2.3008,2.2687,2.2501,2.2449,2.2025,2.1788,2.1788,2.1788,2.1788,2.1788,2.1788,2.1788,2.1788,2.1788,2.1788,2.1788,2.1788,2.1788,2.154,2.0909,2.0465,2.0196,1.9578,1.9191,1.9119,1.9098,1.9098,1.9098,1.9098,1.9098,1.9098,1.9098,1.9098,1.9098,1.9119,1.9243,1.9523,1.9755,1.9931,2.0048,2.0193,2.0276,2.0193,2.0014,2.0213,2.04,2.0441,2.0565,2.0731,2.0721,2.0837,2.1199,2.1116,2.1222,2.1411,2.1243,2.1218,2.1207,2.1055,2.0967,2.1211,2.1293,2.1358,2.1762,2.2249,2.2742,2.323,2.3792,2.4499,2.5291,2.5341,2.5348,2.6347,2.6094,2.5693,2.5314,2.4969,2.4602,2.4315,2.4235,2.4189,2.4189,2.4189,2.4189,2.4189,2.4189,2.4189,2.4207,2.4611,2.5016,2.5282,2.5844,2.6444,2.6918,2.7319,2.7752,2.8392,2.8844,2.9147,2.9368,2.9556,2.9602,2.9602,2.9602,2.9602,2.9602,2.9602,2.9602,2.3556,2.3567,2.3567,2.3422,2.3277,2.3473,2.3567,2.3474,2.308,2.2863,2.2665,2.2149,2.1788,2.1788,2.1788,2.1788,2.1788,2.1788,2.1788,2.1788,2.1788,2.1788,2.1788,2.1788,2.1712,2.1508,2.104,2.0609,2.0372,1.9796,1.9347,1.9129,1.9098,1.9098,1.9098,1.9098,1.9098,1.9098,1.9098,1.9098,1.9098,1.9098,1.9253,1.944,1.961,1.9724,1.9758,2.0006,1.9934,1.9799,1.9965,2.0193,2.042,2.0669,2.0969,2.1302,2.1406,2.1375,2.1426,2.1168,2.1008,2.0659,2.0502,2.0492,2.061,2.0537,2.0754,2.1334,2.1571,2.1766,2.2271,2.2765,2.3138,2.3453,2.4079,2.4866,2.5348,2.5164,2.5486,2.5953,2.5555,2.5245,2.5031,2.474,2.4476,2.4333,2.4212,2.4189,2.4189,2.4189,2.4189,2.4189,2.4189,2.4189,2.4189,2.4449,2.4778,2.5052,2.5429,2.6047,2.6577,2.6969,2.7673,2.8411,2.8796,2.9035,2.9383,2.9602,2.9602,2.9602,2.9602,2.9602,2.9602,2.9602,2.9602,2.4012,2.4012,2.4033,2.3815,2.3557,2.3867,2.3971,2.3815,2.3401,2.3091,2.2936,2.2221,2.1859,2.1932,2.1933,2.1921,2.1809,2.1788,2.1788,2.1788,2.1788,2.1788,2.1788,2.1769,2.1731,2.1602,2.1382,2.0922,2.0342,1.9934,1.9544,1.9222,1.9098,1.9098,1.9098,1.9098,1.9098,1.9098,1.9098,1.9098,1.9098,1.9098,1.9098,1.9098,1.9098,1.915,1.9243,1.9482,1.9482,1.9444,1.9655,2.0006,1.9896,2.0117,2.0669,2.1333,2.1518,2.1292,2.1085,2.094,2.0614,2.009,1.9879,1.99,2.0089,2.0407,2.0857,2.1671,2.2048,2.2266,2.2777,2.3161,2.3499,2.3889,2.4469,2.5107,2.5474,2.5486,2.5249,2.5329,2.5008,2.4801,2.4641,2.4568,2.4315,2.4281,2.4189,2.4189,2.4189,2.4189,2.4189,2.4189,2.4189,2.4189,2.4189,2.4189,2.4467,2.4671,2.507,2.5581,2.6134,2.6662,2.749,2.8314,2.8571,2.8844,2.9257,2.9602,2.9602,2.9602,2.9602,2.9602,2.9602,2.9602,2.9602,2.4446,2.4446,2.4436,2.4383,2.4343,2.4394,2.4198,2.3857,2.3401,2.2976,2.2615,2.2128,2.2056,2.2325,2.2377,2.217,2.1942,2.1788,2.1788,2.1788,2.1859,2.184,2.1799,2.1788,2.18,2.1712,2.1676,2.1077,2.0406,1.9995,1.9596,1.9253,1.9139,1.9098,1.9098,1.9098,1.9098,1.9098,1.9098,1.9098,1.9098,1.9098,1.9098,1.9098,1.9098,1.9098,1.9098,1.9233,1.917,1.917,1.9202,1.9461,1.972,1.9813,2.0107,2.042,2.0558,2.0547,2.0496,2.0485,2.0296,1.9824,1.973,1.9737,1.9928,2.0627,2.1318,2.1794,2.2301,2.2811,2.3218,2.3407,2.3866,2.4377,2.4882,2.5532,2.5965,2.5612,2.5387,2.5164,2.4962,2.4602,2.4315,2.4269,2.42,2.42,2.4189,2.4189,2.4189,2.4189,2.4189,2.4189,2.4189,2.4189,2.4189,2.4189,2.4261,2.4394,2.4784,2.5235,2.5861,2.656,2.739,2.8082,2.836,2.8812,2.9336,2.9602,2.9602,2.9602,2.9602,2.9602,2.9602,2.9602,2.9602,2.4507,2.4507,2.4507,2.4507,2.4507,2.4507,2.427,2.3867,2.3401,2.2945,2.2532,2.2304,2.2449,2.276,2.2646,2.2387,2.2159,2.1952,2.1788,2.1912,2.2045,2.2056,2.1921,2.2016,2.2088,2.1774,2.1661,2.1345,2.0652,2.0224,1.992,1.9533,1.9253,1.9098,1.915,1.9108,1.9098,1.9098,1.9098,1.9098,1.9098,1.9098,1.9098,1.9098,1.9098,1.9098,1.9098,1.9098,1.9098,1.9098,1.9098,1.917,1.9347,1.9409,1.9513,1.9627,1.9672,1.9796,2.0014,2.0038,1.9827,1.9554,1.9426,1.9446,1.9772,2.0665,2.1604,2.206,2.2702,2.3275,2.3768,2.4102,2.4434,2.487,2.5356,2.5807,2.616,2.5727,2.544,2.5187,2.49,2.4499,2.4189,2.4189,2.4189,2.4189,2.4189,2.4189,2.4189,2.4189,2.4189,2.4189,2.4189,2.4189,2.4189,2.4189,2.4189,2.4358,2.4695,2.5182,2.5791,2.6513,2.7259,2.797,2.8457,2.894,2.9462,2.9602,2.9602,2.9602,2.9602,2.9602,2.9602,2.9602,2.9634,2.4507,2.4507,2.4507,2.4507,2.4507,2.4507,2.427,2.3877,2.3556,2.3132,2.2801,2.2811,2.3018,2.3122,2.2967,2.2842,2.2646,2.2304,2.2199,2.2283,2.2418,2.2459,2.2366,2.2429,2.2246,2.1742,2.1772,2.1527,2.1149,2.0715,2.0351,1.9951,1.9686,1.945,1.9305,1.9295,1.9285,1.9098,1.9098,1.9098,1.9098,1.9098,1.9098,1.9098,1.9098,1.9098,1.9098,1.9098,1.9098,1.9098,1.9098,1.9129,1.916,1.9181,1.9181,1.9233,1.9243,1.932,1.9544,1.9585,1.9419,1.9233,1.9131,1.9293,1.9684,2.0654,2.1503,2.1949,2.2766,2.3415,2.4011,2.4415,2.4831,2.5268,2.5879,2.6235,2.6378,2.5853,2.5383,2.5061,2.4763,2.4418,2.4189,2.4189,2.4189,2.4189,2.4189,2.4189,2.4189,2.4189,2.4189,2.4189,2.4189,2.4189,2.4189,2.4189,2.4189,2.4298,2.4653,2.5146,2.5756,2.6294,2.6909,2.7643,2.8425,2.886,2.9273,2.9446,2.9602,2.9602,2.9602,2.9602,2.9602,2.9602,2.9618,2.4507,2.4507,2.4507,2.4507,2.4507,2.4507,2.427,2.3909,2.3857,2.3567,2.3225,2.3525,2.3494,2.3381,2.3536,2.3463,2.3143,2.3101,2.2997,2.3007,2.3132,2.3018,2.2842,2.2615,2.247,2.2234,2.1974,2.1749,2.1614,2.1213,2.0806,2.0392,2.0185,2.0045,1.9827,1.9658,1.9471,1.9264,1.915,1.9098,1.9098,1.9098,1.9098,1.9098,1.9098,1.9098,1.9098,1.9098,1.9098,1.9098,1.9098,1.9098,1.9098,1.9098,1.9098,1.9098,1.9098,1.917,1.9243,1.9281,1.917,1.9119,1.9173,1.9318,1.9648,2.0498,2.1204,2.178,2.2665,2.3293,2.3755,2.4209,2.4873,2.5328,2.5822,2.6121,2.616,2.5819,2.5341,2.4962,2.4625,2.4303,2.4189,2.4189,2.4189,2.4189,2.4189,2.4189,2.4189,2.4189,2.4189,2.4189,2.4189,2.4189,2.4189,2.4189,2.4189,2.4279,2.4521,2.5105,2.5739,2.626,2.6786,2.7577,2.839,2.8732,2.9051,2.9273,2.9446,2.9556,2.9602,2.9602,2.9602,2.9602,2.9602,2.4507,2.4507,2.4507,2.4507,2.4507,2.4507,2.427,2.394,2.3898,2.3815,2.3639,2.3815,2.396,2.3981,2.3815,2.3815,2.3598,2.3297,2.3256,2.3308,2.3422,2.3256,2.3008,2.2822,2.2656,2.219,2.189,2.1788,2.1737,2.155,2.1499,2.1189,2.0744,2.0372,2.0151,1.9951,1.9699,1.9513,1.9253,1.9108,1.9098,1.9098,1.9098,1.9098,1.9098,1.9098,1.9098,1.9098,1.9098,1.9098,1.9098,1.9098,1.9098,1.9098,1.9098,1.9098,1.9098,1.9098,1.9098,1.9098,1.9098,1.917,1.9336,1.9591,1.9802,2.073,2.1346,2.1958,2.2663,2.337,2.3676,2.4332,2.4979,2.5338,2.5611,2.5892,2.5776,2.5409,2.5139,2.4667,2.4455,2.4223,2.4189,2.4189,2.4189,2.4189,2.4189,2.4189,2.4189,2.4189,2.4189,2.4189,2.4189,2.4189,2.4189,2.4189,2.4212,2.4344,2.4476,2.5153,2.5837,2.6289,2.6884,2.7653,2.821,2.8506,2.8812,2.9115,2.9336,2.9524,2.9587,2.9602,2.9602,2.9602,2.9602,2.4507,2.4507,2.4507,2.4507,2.4507,2.4507,2.4343,2.4115,2.4095,2.4074,2.4074,2.4095,2.4218,2.4363,2.425,2.4095,2.4012,2.3805,2.367,2.3753,2.3846,2.3567,2.3225,2.2966,2.28,2.2148,2.1838,2.1788,2.1788,2.1788,2.1726,2.1519,2.1189,2.0868,2.0534,2.0221,1.992,1.972,1.9523,1.9174,1.916,1.9098,1.9098,1.9098,1.9098,1.9098,1.9098,1.9098,1.9098,1.9098,1.9098,1.9098,1.9098,1.9098,1.9098,1.9098,1.9098,1.9098,1.9108,1.9098,1.917,1.9378,1.9575,1.9803,2.0215,2.0918,2.1365,2.1568,2.2574,2.3399,2.3524,2.4096,2.4598,2.487,2.504,2.5262,2.5055,2.477,2.4604,2.4354,2.4256,2.4189,2.4189,2.4189,2.4189,2.4189,2.4189,2.4189,2.4189,2.4189,2.4189,2.4189,2.4189,2.4189,2.4189,2.4384,2.4579,2.4678,2.4916,2.5426,2.6022,2.6408,2.6834,2.7503,2.7958,2.8244,2.8603,2.8972,2.9273,2.9556,2.9587,2.9602,2.9602,2.9602,2.9602,2.4507,2.4507,2.4507,2.4507,2.4507,2.4507,2.4476,2.4414,2.4425,2.4446,2.4414,2.4425,2.4435,2.4487,2.4415,2.4394,2.4405,2.4374,2.4321,2.4332,2.4301,2.4136,2.3784,2.3411,2.2987,2.248,2.2119,2.1902,2.1769,2.1788,2.1788,2.183,2.1654,2.1457,2.1104,2.063,2.0213,1.9876,1.9793,1.9492,1.9185,1.915,1.9202,1.9108,1.9202,1.9233,1.9119,1.9098,1.9098,1.9098,1.9098,1.9098,1.9098,1.9098,1.9098,1.9098,1.9098,1.9108,1.9129,1.9119,1.9336,1.9679,1.9886,2.0138,2.0431,2.0881,2.1281,2.1519,2.2185,2.2802,2.3174,2.3574,2.4025,2.4275,2.4414,2.4435,2.4239,2.4284,2.4138,2.4132,2.418,2.4189,2.4189,2.4189,2.4189,2.4189,2.4189,2.42,2.4212,2.42,2.42,2.4269,2.4281,2.4407,2.4487,2.4751,2.4935,2.5027,2.5276,2.5714,2.5999,2.625,2.6757,2.7394,2.7808,2.8157,2.853,2.889,2.9224,2.9509,2.9571,2.9602,2.9602,2.9602,2.9602,2.4507,2.4507,2.4507,2.4507,2.4507,2.4507,2.4507,2.4507,2.4507,2.4507,2.4507,2.4507,2.4507,2.4507,2.4507,2.4507,2.4507,2.4507,2.4507,2.4507,2.4507,2.4229,2.3908,2.3619,2.3144,2.2527,2.2186,2.1999,2.1598,2.1824,2.183,2.183,2.2109,2.1994,2.1561,2.1095,2.064,2.0234,1.9941,1.9596,1.9216,1.9388,1.944,1.9174,1.9413,1.943,1.9191,1.917,1.915,1.9108,1.9098,1.9098,1.9098,1.9098,1.9125,1.9119,1.9129,1.9274,1.945,1.9602,1.9616,1.9927,2.0304,2.0617,2.0899,2.1311,2.1507,2.1633,2.2108,2.2593,2.2776,2.3132,2.3452,2.3454,2.3521,2.349,2.3437,2.3698,2.3801,2.3871,2.3945,2.4127,2.4182,2.4223,2.4223,2.4303,2.4326,2.4281,2.4269,2.4223,2.4212,2.4349,2.443,2.4602,2.4797,2.5164,2.5375,2.5497,2.5605,2.5845,2.6073,2.6283,2.6936,2.7723,2.7924,2.8121,2.8625,2.9067,2.9248,2.9462,2.954,2.9602,2.9602,2.9602,2.9602,2.4507,2.4507,2.4507,2.4507,2.4507,2.4507,2.4507,2.4507,2.4507,2.4507,2.4507,2.4507,2.4507,2.4507,2.4507,2.4507,2.4507,2.4507,2.4507,2.4507,2.4507,2.4125,2.3826,2.3743,2.3236,2.2641,2.2536,2.2443,2.1887,2.2145,2.2316,2.2449,2.2543,2.2553,2.2273,2.1994,2.1673,2.1269,2.0904,2.0407,2.0076,1.9941,1.9869,1.9737,1.9786,1.9817,1.9492,1.9326,1.9274,1.9191,1.9119,1.9108,1.9108,1.9108,1.9198,1.9274,1.9527,1.9686,1.9931,2.0241,2.0304,2.0348,2.0855,2.1155,2.1331,2.1611,2.1695,2.1881,2.2242,2.2397,2.2539,2.2861,2.2857,2.288,2.2756,2.2708,2.2735,2.2989,2.3231,2.3346,2.3732,2.3934,2.4175,2.4246,2.4269,2.4372,2.4464,2.4453,2.4464,2.4453,2.4503,2.4687,2.4866,2.5084,2.536,2.5681,2.5865,2.5957,2.6092,2.6267,2.6364,2.6644,2.7346,2.7885,2.7925,2.8137,2.8839,2.9269,2.9518,2.9598,2.9571,2.9602,2.9602,2.9602,2.9602,2.4507,2.4507,2.4507,2.4507,2.4507,2.4507,2.4507,2.4507,2.4507,2.4507,2.4507,2.4507,2.4507,2.4507,2.4507,2.4507,2.4507,2.4507,2.4445,2.4425,2.4352,2.3908,2.3691,2.366,2.334,2.3009,2.2874,2.2907,2.2367,2.2546,2.2842,2.2987,2.2893,2.2935,2.2894,2.2842,2.2563,2.2087,2.1745,2.129,2.0938,2.0752,2.0586,2.0454,2.0444,2.0255,2.0014,1.9876,1.9606,1.9409,1.9222,1.916,1.9119,1.9098,1.9405,1.9741,2.0089,2.0258,2.0454,2.0772,2.0979,2.0979,2.1106,2.1406,2.1602,2.1747,2.1778,2.1901,2.2128,2.2294,2.2457,2.2475,2.2474,2.2327,2.2121,2.2062,2.2027,2.2214,2.2478,2.2815,2.3353,2.3696,2.4023,2.4166,2.4476,2.4659,2.4843,2.5107,2.5084,2.4962,2.5065,2.5341,2.549,2.567,2.5934,2.6198,2.6393,2.6476,2.6706,2.6878,2.6944,2.6941,2.7419,2.7745,2.7784,2.8174,2.9066,2.9568,2.9833,2.9839,2.9757,2.9673,2.9701,2.9631,2.9602,2.4507,2.4507,2.4507,2.4507,2.4507,2.4507,2.4507,2.4507,2.4507,2.4507,2.4507,2.4507,2.4507,2.4507,2.4507,2.4507,2.4487,2.4456,2.428,2.4187,2.4094,2.3908,2.3836,2.3774,2.3557,2.3464,2.3412,2.333,2.2766,2.2835,2.2729,2.2676,2.2852,2.2946,2.3111,2.3194,2.2894,2.2615,2.2346,2.2014,2.1778,2.1631,2.1352,2.1085,2.1158,2.0876,2.0441,2.0524,2.0245,1.9741,1.99,1.9831,1.9108,1.9119,1.9305,1.9772,2.0162,2.0498,2.0837,2.1023,2.122,2.1497,2.155,2.1613,2.1757,2.1788,2.1788,2.1901,2.1963,2.2087,2.2119,2.2128,2.2128,2.2025,2.1871,2.1859,2.1854,2.2025,2.2271,2.2572,2.3094,2.3597,2.3933,2.4429,2.4751,2.4939,2.5233,2.5566,2.5723,2.5589,2.565,2.5914,2.6075,2.6232,2.6404,2.6645,2.6852,2.7027,2.7153,2.719,2.7116,2.7175,2.7494,2.7818,2.818,2.8743,2.9453,2.9855,3.0141,3.0092,3.0004,2.9869,2.9771,2.9701,2.9617,2.4507,2.4507,2.4507,2.4507,2.4507,2.4507,2.4507,2.4507,2.4507,2.4507,2.4507,2.4507,2.4507,2.4507,2.4497,2.4404,2.4229,2.4219,2.4022,2.3712,2.3805,2.3712,2.3732,2.3929,2.3918,2.3865,2.3804,2.3691,2.3033,2.2591,2.2434,2.2842,2.277,2.2915,2.3111,2.3174,2.306,2.2811,2.2573,2.2346,2.2283,2.2211,2.1776,2.16,2.1726,2.1313,2.0837,2.1054,2.069,2.0159,2.0341,2.0196,1.9724,1.9806,1.9972,2.0449,2.0793,2.1106,2.1333,2.1393,2.155,2.1695,2.1788,2.1778,2.1778,2.1788,2.1788,2.1819,2.1809,2.1809,2.1799,2.1799,2.1799,2.1799,2.1799,2.1799,2.1902,2.2006,2.2214,2.2459,2.2906,2.3471,2.3999,2.4562,2.5153,2.5597,2.5911,2.6186,2.6309,2.6217,2.6301,2.6511,2.6637,2.6772,2.6921,2.6947,2.7038,2.713,2.7144,2.719,2.719,2.729,2.7481,2.8108,2.8818,2.9176,2.933,3.0039,3.0389,3.0245,3.0143,3.018,2.9987,2.9771,2.9701,2.4507,2.4507,2.4507,2.4507,2.4507,2.4507,2.4507,2.4507,2.4507,2.4507,2.4507,2.4507,2.4507,2.4487,2.4404,2.4208,2.4012,2.3898,2.3681,2.3225,2.3567,2.3608,2.3732,2.3991,2.3991,2.4063,2.4001,2.3722,2.2961,2.254,2.2557,2.3101,2.2925,2.2853,2.2822,2.2853,2.2749,2.2656,2.2501,2.2335,2.2439,2.2221,2.189,2.1869,2.1838,2.1644,2.1302,2.1116,2.0971,2.0651,2.0527,2.0568,2.0444,2.0679,2.0907,2.1124,2.1362,2.153,2.1644,2.1664,2.1695,2.1768,2.1788,2.1788,2.1788,2.1788,2.1788,2.1788,2.1788,2.1788,2.1788,2.1788,2.1788,2.1788,2.1788,2.1788,2.1845,2.1942,2.2119,2.2379,2.2839,2.3413,2.4195,2.4772,2.5489,2.6135,2.6551,2.676,2.6772,2.6711,2.6772,2.6947,2.697,2.7015,2.7073,2.7107,2.7133,2.7179,2.719,2.719,2.719,2.7292,2.7435,2.7976,2.8515,2.8716,2.8999,2.9801,3.0271,2.9993,3.0001,3.0339,3.0266,2.9957,2.9797,2.4507,2.4507,2.4507,2.4507,2.4507,2.4507,2.4497,2.4507,2.4507,2.4487,2.4507,2.4507,2.4507,2.4476,2.4187,2.3971,2.3857,2.3494,2.3328,2.3204,2.3339,2.3494,2.365,2.3888,2.3971,2.395,2.3857,2.3546,2.2774,2.2444,2.2247,2.2171,2.2202,2.2283,2.2283,2.2273,2.2273,2.2304,2.2201,2.2366,2.2697,2.2842,2.2749,2.2449,2.2221,2.2004,2.1788,2.1881,2.1549,2.1166,2.1362,2.1083,2.0485,2.0889,2.1064,2.1189,2.1569,2.1726,2.1788,2.1788,2.1788,2.1788,2.1788,2.1788,2.1788,2.1788,2.1788,2.1788,2.1788,2.1788,2.1788,2.1788,2.1788,2.1788,2.1788,2.1788,2.1788,2.1899,2.201,2.2387,2.2804,2.349,2.4276,2.5052,2.5777,2.636,2.6814,2.7073,2.7061,2.7004,2.697,2.7075,2.711,2.7144,2.719,2.719,2.719,2.719,2.719,2.719,2.719,2.7251,2.7353,2.7623,2.7984,2.8211,2.8731,2.9764,3.0023,2.971,3.0002,3.0385,3.0421,3.0208,3.004,2.4507,2.4507,2.4507,2.4507,2.4466,2.4312,2.4332,2.4445,2.4322,2.4343,2.4487,2.4507,2.4497,2.4435,2.4084,2.3722,2.3556,2.3091,2.2729,2.2676,2.3069,2.3163,2.3401,2.3691,2.367,2.365,2.3349,2.2936,2.249,2.2202,2.1974,2.1809,2.1788,2.1788,2.1788,2.1788,2.1788,2.1809,2.1788,2.2109,2.2625,2.2573,2.249,2.2221,2.2139,2.2004,2.1995,2.2057,2.1849,2.1569,2.1662,2.159,2.1209,2.1333,2.1406,2.1478,2.1644,2.1788,2.1788,2.1788,2.1788,2.1788,2.1788,2.1788,2.1788,2.1788,2.1788,2.1788,2.1788,2.1788,2.1788,2.1788,2.1788,2.1788,2.1788,2.1788,2.1788,2.1838,2.2065,2.2422,2.2883,2.3492,2.4311,2.5185,2.5871,2.6391,2.6896,2.7156,2.7179,2.719,2.719,2.719,2.719,2.719,2.719,2.719,2.719,2.719,2.719,2.719,2.719,2.719,2.7281,2.7473,2.7603,2.7681,2.8359,2.9257,2.9608,2.9366,2.9857,3.049,3.0431,3.0474,3.0512,2.4507,2.4507,2.4507,2.4456,2.4363,2.4053,2.4053,2.4239,2.4033,2.4095,2.4363,2.4394,2.4425,2.4363,2.3908,2.3536,2.3174,2.2822,2.2346,2.2366,2.2873,2.3029,2.3194,2.337,2.3339,2.308,2.2697,2.2542,2.2325,2.2066,2.1871,2.1799,2.1788,2.1788,2.1788,2.1788,2.1788,2.1788,2.1788,2.1788,2.1819,2.1788,2.185,2.184,2.1788,2.1788,2.1788,2.1788,2.1788,2.1778,2.1776,2.1706,2.1664,2.1644,2.1675,2.1726,2.1716,2.1788,2.1788,2.1788,2.1788,2.1788,2.1788,2.1788,2.1788,2.1788,2.1788,2.1788,2.1788,2.1788,2.1788,2.1788,2.1788,2.1788,2.1788,2.1788,2.1788,2.1861,2.2192,2.2542,2.3072,2.3643,2.444,2.5328,2.5835,2.6375,2.6745,2.6983,2.7158,2.719,2.719,2.719,2.719,2.719,2.719,2.719,2.719,2.719,2.719,2.719,2.719,2.719,2.719,2.721,2.7322,2.7412,2.7696,2.8375,2.8624,2.8903,2.9618,3.021,3.0489,3.0588,3.1019,2.4507,2.4507,2.4507,2.4322,2.4043,2.3919,2.3743,2.3525,2.3795,2.396,2.3991,2.4033,2.4167,2.4414,2.3225,2.2811,2.3039,2.2635,2.2522,2.2532,2.2832,2.2987,2.3008,2.2956,2.2956,2.2635,2.2232,2.1985,2.2066,2.1892,2.1788,2.1788,2.1788,2.1788,2.1788,2.1788,2.1788,2.1788,2.1788,2.1788,2.1788,2.1788,2.1788,2.1788,2.1788,2.1788,2.1788,2.1788,2.1788,2.1788,2.1788,2.1788,2.1788,2.1788,2.1788,2.1788,2.1788,2.1788,2.1788,2.1788,2.1788,2.1788,2.1788,2.1788,2.1788,2.1788,2.1788,2.1788,2.1788,2.1788,2.1788,2.1788,2.1788,2.1788,2.1788,2.1788,2.1788,2.2128,2.2501,2.2945,2.3421,2.4062,2.4733,2.5353,2.5665,2.6134,2.6507,2.6787,2.7158,2.719,2.719,2.719,2.719,2.719,2.719,2.719,2.719,2.719,2.719,2.719,2.719,2.719,2.719,2.719,2.719,2.726,2.7566,2.7857,2.8039,2.8442,2.9264,2.9878,3.0268,3.0787,3.128]}]]